ftp/pub/palmer/observations_modified/2019/September/AR190929_BASE.txt

Download

Sample DateTime	Unit Id	WS Avg 2min	WD Avg 2min	WGS 10min	WGD 10min	Air Temp	Rel Humidity	Dew Point	Pyranometer	Quantum	Air Pressure	Snow Level	Rainfall	PW Current	Visibility	CBase 1	CBase 2	CBase 3	Vert Vis
2019/09/29  00:00:00  BASE  0.7938   68   1.87572  60   -4.4  98    -4.7  0     0     982.2    NA       0.0000   9999     0     0     0    
2019/09/29  00:01:00  BASE  0.94668  51   1.87572  60   -4.5  98    -4.8  0     0     982.3    NA       0.0000   9999     0     0     0    
2019/09/29  00:02:00  BASE  0.72912  42   1.87572  60   -4.5  98    -4.8  0     0     982.3    NA       0.0000   9999     0     0     0    
2019/09/29  00:03:00  BASE  0.28812  55   1.87572  60   -4.5  98    -4.8  0     0     982.3    NA       0.0000   9999     0     0     0    
2019/09/29  00:04:00  BASE  0.15288  70   1.39356  62   -4.5  98    -4.8  0     0     982.2    NA       0.0000   9999     0     0     0    
2019/09/29  00:05:00  BASE  0.2058   169  1.39356  62   -4.5  98    -4.7  0     0     982.2    NA       0.0000   9999     0     0     0    
2019/09/29  00:06:00  BASE  0.6468   85   1.93452  49   -4.5  98    -4.7  0     0     982.2    NA       0.0000   9999     0     0     0    
2019/09/29  00:07:00  BASE  1.5582   47   2.26968  49   -4.5  98    -4.8  0     0     982.2    NA       0.0000   9999     0     0     0    
2019/09/29  00:08:00  BASE  1.75224  47   2.26968  49   -4.6  98    -4.9  0     0     982.2    NA       0.0000   9999     0     0     0    
2019/09/29  00:09:00  BASE  1.5288   50   2.26968  49   -4.6  98    -4.9  0     0     982.2    NA       0.0000   9999     0     0     0    
2019/09/29  00:10:00  BASE  1.43472  48   2.26968  49   -4.7  98    -5.0  0     0     982.2    NA       0.0000   9999     0     0     0    
2019/09/29  00:11:00  BASE  1.19952  58   2.26968  49   -4.8  98    -5.1  0     0     982.2    NA       0.0000   9999     0     0     0    
2019/09/29  00:12:00  BASE  0.95256  70   2.26968  49   -4.7  98    -5.0  0     0     982.2    NA       0.0000   9999     0     0     0    
2019/09/29  00:13:00  BASE  0.58212  81   2.26968  49   -4.7  98    -4.9  0     0     982.2    NA       0.0000   9999     0     0     0    
2019/09/29  00:14:00  BASE  0.13524  80   2.26968  49   -4.6  98    -4.8  0     0     982.2    NA       0.0000   9999     0     0     0    
2019/09/29  00:15:00  BASE  0.09408  52   2.26968  49   -4.6  98    -4.8  0     0     982.2    NA       0.0000   9999     0     0     0    
2019/09/29  00:16:00  BASE  0.18816  51   2.26968  49   -4.6  99    -4.7  0     0     982.2    NA       0.0000   9999     0     0     0    
2019/09/29  00:17:00  BASE  0.22932  79   1.75224  54   -4.5  99    -4.7  0     0     982.2    NA       0.0000   9999     0     0     0    
2019/09/29  00:18:00  BASE  0.59976  87   1.75224  54   -4.5  98    -4.8  0     0     982.2    NA       0.0000   9999     0     0     0    
2019/09/29  00:19:00  BASE  0.6174   100  1.57584  88   -4.5  98    -4.8  0     0     982.2    NA       0.0000   9999     0     0     0    
2019/09/29  00:20:00  BASE  0.18816  161  1.57584  88   -4.5  99    -4.7  0     0     982.2    NA       0.0000   9999     0     0     0    
2019/09/29  00:21:00  BASE  0.25284  184  1.57584  88   -4.4  98    -4.6  0     0     982.2    NA       0.0000   9999     0     0     0    
2019/09/29  00:22:00  BASE  0.79968  250  1.57584  88   -4.4  98    -4.6  0     0     982.2    NA       0.0000   9999     0     0     0    
2019/09/29  00:23:00  BASE  0.91728  321  1.54056  314  -4.4  98    -4.7  0     0     982.2    NA       0.0000   9999     0     0     0    
2019/09/29  00:24:00  BASE  0.6174   1    1.54056  314  -4.5  98    -4.8  0     0     982.2    NA       0.0000   9999     0     0     0    
2019/09/29  00:25:00  BASE  0.78204  1    1.54056  314  -4.5  97    -4.9  0     0     982.2    NA       0.0000   9999     0     0     0    
2019/09/29  00:26:00  BASE  0.6762   332  1.54056  314  -4.6  97    -5.0  0     0     982.2    NA       0.0000   9999     0     0     0    
2019/09/29  00:27:00  BASE  0.30576  99   1.54056  314  -4.6  97    -5.0  0     0     982.2    NA       0.0000   9999     0     0     0    
2019/09/29  00:28:00  BASE  0.14112  143  1.54056  314  -4.6  97    -5.0  0     0     982.2    NA       0.0000   9999     0     0     0    
2019/09/29  00:29:00  BASE  0.0294   220  1.54056  314  -4.5  97    -4.9  0     0     982.2    NA       0.0000   9999     0     0     0    
2019/09/29  00:30:00  BASE  0.0588   298  1.54056  314  -4.4  97    -4.8  0     0     982.2    NA       0.0000   9999     0     0     0    
2019/09/29  00:31:00  BASE  0.68796  318  1.81692  297  -4.4  97    -4.8  0     0     982.2    NA       0.0000   9999     0     0     0    
2019/09/29  00:32:00  BASE  1.18776  299  1.81692  297  -4.4  97    -4.9  0     0     982.2    NA       0.0000   9999     0     0     0    
2019/09/29  00:33:00  BASE  1.01724  309  1.81692  297  -4.4  96    -4.9  0     0     982.2    NA       0.0000   9999     0     0     0    
2019/09/29  00:34:00  BASE  1.01724  329  1.81692  297  -4.5  96    -5.0  0     0     982.2    NA       0.0000   9999     0     0     0    
2019/09/29  00:35:00  BASE  1.2348   331  1.9992   340  -4.6  96    -5.2  0     0     982.2    NA       0.0000   9999     0     0     0    
2019/09/29  00:36:00  BASE  1.0878   283  1.9992   340  -4.7  96    -5.3  0     0     982.2    NA       0.0000   9999     0     0     0    
2019/09/29  00:37:00  BASE  0.89376  249  1.9992   340  -4.8  96    -5.3  0     0     982.2    NA       0.0000   9999     0     0     0    
2019/09/29  00:38:00  BASE  1.12896  250  1.9992   340  -4.8  96    -5.3  0     0     982.2    NA       0.0000   9999     0     0     0    
2019/09/29  00:39:00  BASE  1.13484  245  1.9992   340  -4.7  96    -5.2  0     0     982.2    NA       0.0000   9999     0     0     0    
2019/09/29  00:40:00  BASE  0.72324  251  1.9992   340  -4.7  97    -5.1  0     0     982.2    NA       0.0000   9999     0     0     0    
2019/09/29  00:41:00  BASE  0.21756  262  1.9992   340  -4.7  97    -5.1  0     0     982.2    NA       0.0000   9999     0     0     0    
2019/09/29  00:42:00  BASE  0        244  1.9992   340  -4.7  97    -5.1  0     0     982.2    NA       0.0000   9999     0     0     0    
2019/09/29  00:43:00  BASE  0        244  1.9992   340  -4.8  97    -5.1  0     0     982.2    NA       0.0000   9999     0     0     0    
2019/09/29  00:44:00  BASE  0.06468  262  1.9992   340  -4.8  97    -5.2  0     0     982.2    NA       0.0000   9999     0     0     0    
2019/09/29  00:45:00  BASE  0.06468  244  1.96392  233  -4.8  98    -5.1  0     0     982.2    NA       0.0000   9999     0     0     0    
2019/09/29  00:46:00  BASE  0.1764   242  1.96392  233  -4.8  98    -5.1  0     0     982.2    NA       0.0000   9999     0     0     0    
2019/09/29  00:47:00  BASE  0.58212  265  1.96392  233  -4.8  98    -5.0  0     0     982.2    NA       0.0000   9999     0     0     0    
2019/09/29  00:48:00  BASE  0.81732  248  1.96392  233  -4.8  98    -5.0  0     0     982.2    NA       0.0000   9999     0     0     0    
2019/09/29  00:49:00  BASE  1.17012  215  2.29908  204  -4.7  99    -4.9  0     0     982.2    NA       0.0000   9999     0     0     0    
2019/09/29  00:50:00  BASE  1.81104  207  2.51076  212  -4.7  99    -4.8  0     0     982.2    NA       0.0000   9999     0     0     0    
2019/09/29  00:51:00  BASE  2.51664  216  3.41628  226  -4.6  99    -4.7  0     0     982.2    NA       0.0000   9999     0     0     0    
2019/09/29  00:52:00  BASE  2.98116  219  3.69264  212  -4.6  100   -4.6  0     0     982.2    NA       0.0000   9999     0     0     0    
2019/09/29  00:53:00  BASE  3.42804  211  4.1454   209  -4.6  100   -4.6  0     0     982.2    NA       0.0000   9999     0     0     0    
2019/09/29  00:54:00  BASE  3.65736  214  4.1454   209  -4.6  100   -4.6  0     0     982.2    NA       0.0000   9999     0     0     0    
2019/09/29  00:55:00  BASE  3.56328  219  4.2042   209  -4.6  100   -4.6  0     0     982.2    NA       0.0000   9999     0     0     0    
2019/09/29  00:56:00  BASE  3.43392  223  4.2042   209  -4.6  100   -4.6  0     0     982.2    NA       0.0000   9999     0     0     0    
2019/09/29  00:57:00  BASE  2.90472  233  4.2042   209  -4.6  100   -4.6  0     0     982.2    NA       0.0000   9999     0     0     0    
2019/09/29  00:58:00  BASE  2.15796  246  4.2042   209  -4.6  100   -4.6  0     0     982.2    NA       0.0000   9999     0     0     0    
2019/09/29  00:59:00  BASE  1.49352  258  4.2042   209  -4.7  100   -4.7  0     0     982.2    NA       0.0000   9999     0     0     0    
2019/09/29  01:00:00  BASE  1.37004  254  4.2042   209  -4.7  100   -4.7  0     0     982.2    NA       0.0000   9999     0     0     0    
2019/09/29  01:01:00  BASE  1.42884  240  4.2042   209  -4.7  100   -4.7  0     0     982.2    NA       0.0000   9999     0     0     0    
2019/09/29  01:02:00  BASE  1.5288   240  4.2042   209  -4.7  100   -4.7  0     0     982.2    NA       0.0000   9999     0     0     0    
2019/09/29  01:03:00  BASE  1.68168  249  4.2042   209  -4.8  100   -4.8  0     0     982.2    NA       0.0000   9999     0     0     0    
2019/09/29  01:04:00  BASE  1.65228  254  4.2042   209  -4.8  100   -4.8  0     0     982.2    NA       0.0000   9999     0     0     0    
2019/09/29  01:05:00  BASE  1.54644  254  3.59856  221  -4.8  100   -4.8  0     0     982.2    NA       0.0000   9999     0     0     0    
2019/09/29  01:06:00  BASE  1.45236  243  3.29868  214  -4.8  100   -4.8  0     0     982.2    NA       0.0000   9999     0     0     0    
2019/09/29  01:07:00  BASE  1.35828  239  2.0286   250  -4.8  100   -4.9  0     0     982.2    NA       0.0000   9999     0     0     0    
2019/09/29  01:08:00  BASE  1.00548  252  1.93452  238  -4.8  100   -4.8  0     0     982.2    NA       0.0000   9999     0     0     0    
2019/09/29  01:09:00  BASE  0.43512  268  1.93452  238  -4.8  100   -4.8  0     0     982.2    NA       0.0000   9999     0     0     0    
2019/09/29  01:10:00  BASE  0.10584  294  1.93452  238  -4.9  100   -4.9  0     0     982.2    NA       0.0000   9999     0     0     0    
2019/09/29  01:11:00  BASE  0.19992  334  1.93452  238  -5.0  100   -5.0  0     0     982.2    NA       0.0000   9999     0     0     0    
2019/09/29  01:12:00  BASE  0.75264  4    1.93452  238  -5.0  100   -5.0  0     0     982.2    NA       0.0000   9999     0     0     0    
2019/09/29  01:13:00  BASE  1.21716  12   1.93452  238  -5.1  100   -5.1  0     0     982.2    NA       0.0000   9999     0     0     0    
2019/09/29  01:14:00  BASE  1.22304  18   1.93452  238  -5.1  100   -5.1  0     0     982.2    NA       0.0000   9999     0     0     0    
2019/09/29  01:15:00  BASE  1.22892  28   1.87572  234  -5.2  100   -5.2  0     0     982.2    NA       0.0000   9999     0     0     0    
2019/09/29  01:16:00  BASE  1.323    29   1.69344  35   -5.2  100   -5.2  0     0     982.2    NA       0.0000   9999     0     0     0    
2019/09/29  01:17:00  BASE  1.2642   33   1.69344  35   -5.2  100   -5.2  0     0     982.2    NA       0.0000   9999     0     0     0    
2019/09/29  01:18:00  BASE  1.09956  36   1.69344  35   -5.2  100   -5.2  0     0     982.2    NA       0.0000   9999     0     0     0    
2019/09/29  01:19:00  BASE  1.09956  31   1.69344  35   -5.1  100   -5.1  0     0     982.2    NA       0.0000   9999     0     0     0    
2019/09/29  01:20:01  BASE  1.1466   27   1.69344  35   -5.1  100   -5.1  0     0     982.2    NA       0.0000   9999     0     0     0    
2019/09/29  01:21:01  BASE  1.21128  24   1.69344  35   -5.0  100   -5.0  0     0     982.2    NA       0.0000   9999     0     0     0    
2019/09/29  01:22:01  BASE  1.33476  29   1.69344  35   -5.0  100   -5.0  0     0     982.2    NA       0.0000   9999     0     0     0    
2019/09/29  01:23:01  BASE  1.44648  33   1.75224  26   -4.9  100   -4.9  0     0     982.2    NA       0.0000   9999     0     0     0    
2019/09/29  01:24:01  BASE  1.72872  31   2.35788  37   -4.9  100   -5.0  0     0     982.2    NA       0.0000   9999     0     0     0    
2019/09/29  01:25:01  BASE  1.58172  39   2.35788  37   -5.0  100   -5.0  0     0     982.2    NA       0.0000   9999     0     0     0    
2019/09/29  01:26:01  BASE  0.90552  51   2.35788  37   -5.0  100   -5.0  0     0     982.2    NA       0.0000   9999     0     0     0    
2019/09/29  01:27:01  BASE  0.42924  48   2.35788  37   -5.0  100   -5.0  0     0     982.2    NA       0.0000   9999     0     0     0    
2019/09/29  01:28:01  BASE  0.64092  35   2.35788  37   -5.1  100   -5.1  0     0     982.2    NA       0.0000   9999     0     0     0    
2019/09/29  01:29:01  BASE  1.0584   30   2.35788  37   -5.1  100   -5.1  0     0     982.2    NA       0.0000   9999     0     0     0    
2019/09/29  01:30:01  BASE  1.25244  29   2.35788  37   -5.2  100   -5.2  0     0     982.2    NA       0.0000   9999     0     0     0    
2019/09/29  01:31:01  BASE  1.59936  27   2.35788  37   -5.2  100   -5.2  0     0     982.2    NA       0.0000   9999     0     0     0    
2019/09/29  01:32:01  BASE  1.72284  29   2.35788  37   -5.3  100   -5.3  0     0     982.2    NA       0.0000   9999     0     0     0    
2019/09/29  01:33:01  BASE  1.7052   34   2.35788  37   -5.4  100   -5.4  0     0     982.2    NA       0.0000   9999     13450 0     0    
2019/09/29  01:34:01  BASE  1.63464  38   2.1462   23   -5.4  100   -5.4  0     0     982.2    NA       0.0000   9999     0     0     0    
2019/09/29  01:35:01  BASE  1.66404  35   1.96392  37   -5.5  100   -5.5  0     0     982.2    NA       0.0000   9999     0     0     0    
2019/09/29  01:36:01  BASE  1.764    35   1.96392  37   -5.6  100   -5.6  0     0     982.2    NA       0.0000   9999     0     0     0    
2019/09/29  01:37:01  BASE  1.82868  34   2.058    28   -5.6  100   -5.6  0     0     982.2    NA       0.0000   9999     0     0     0    
2019/09/29  01:38:01  BASE  1.74048  33   2.058    28   -5.7  100   -5.7  0     0     982.2    NA       0.0000   9999     0     0     0    
2019/09/29  01:39:01  BASE  1.48176  30   2.058    28   -5.7  100   -5.7  0     0     982.2    NA       0.0000   9999     0     0     0    
2019/09/29  01:40:01  BASE  1.41708  23   2.058    28   -5.6  100   -5.6  0     0     982.2    NA       0.0000   9999     0     0     0    
2019/09/29  01:41:01  BASE  1.39944  15   2.058    28   -5.5  100   -5.5  0     0     982.2    NA       0.0000   9999     0     0     0    
2019/09/29  01:42:01  BASE  1.31712  11   2.058    28   -5.5  100   -5.5  0     0     982.2    NA       0.0000   9999     0     0     0    
2019/09/29  01:43:01  BASE  1.15836  8    2.058    28   -5.4  100   -5.4  0     0     982.2    NA       0.0000   9999     0     0     0    
2019/09/29  01:44:01  BASE  0.87612  356  2.058    28   -5.4  100   -5.4  0     0     982.2    NA       0.0000   9999     0     0     0    
2019/09/29  01:45:01  BASE  0.65268  16   2.058    28   -5.4  100   -5.4  0     0     982.2    NA       0.0000   9999     0     0     0    
2019/09/29  01:46:01  BASE  0.7938   39   2.058    28   -5.4  100   -5.4  0     0     982.2    NA       0.0000   9999     0     0     0    
2019/09/29  01:47:01  BASE  1.0878   28   1.75224  33   -5.4  100   -5.4  0     0     982.2    NA       0.0000   9999     0     0     0    
2019/09/29  01:48:01  BASE  1.28184  26   1.57584  23   -5.4  100   -5.4  0     0     982.2    NA       0.0000   9999     0     0     0    
2019/09/29  01:49:01  BASE  1.5582   34   2.0286   35   -5.4  100   -5.4  0     0     982.1    NA       0.0000   9999     0     0     0    
2019/09/29  01:50:01  BASE  1.89336  37   2.26968  40   -5.4  100   -5.4  0     0     982.1    NA       0.0000   9999     0     0     0    
2019/09/29  01:51:01  BASE  1.9698   37   2.26968  40   -5.5  100   -5.5  0     0     982.1    NA       0.0000   9999     0     0     0    
2019/09/29  01:52:01  BASE  1.911    39   2.26968  40   -5.5  100   -5.5  0     0     982.1    NA       0.0000   9999     0     0     0    
2019/09/29  01:53:01  BASE  1.86396  39   2.26968  40   -5.5  100   -5.5  0     0     982.1    NA       0.0000   9999     0     0     0    
2019/09/29  01:54:01  BASE  1.77576  30   2.26968  40   -5.5  100   -5.5  0     0     982.1    NA       0.0000   9999     0     0     0    
2019/09/29  01:55:01  BASE  1.61112  22   2.26968  40   -5.5  100   -5.5  0     0     982.1    NA       0.0000   9999     0     0     0    
2019/09/29  01:56:01  BASE  1.323    13   2.26968  40   -5.4  100   -5.4  0     0     982.1    NA       0.0000   9999     0     0     0    
2019/09/29  01:57:01  BASE  1.18776  8    2.26968  40   -5.4  100   -5.4  0     0     982.1    NA       0.0000   9999     0     0     0    
2019/09/29  01:58:01  BASE  1.32888  16   2.26968  40   -5.4  100   -5.4  0     0     982.1    NA       0.0000   9999     0     0     0    
2019/09/29  01:59:01  BASE  1.53468  25   2.26968  40   -5.3  100   -5.3  0     0     982.1    NA       0.0000   9999     0     0     0    
2019/09/29  02:00:01  BASE  1.49352  26   2.1168   35   -5.4  100   -5.4  0     0     982.1    NA       0.0000   9999     0     0     0    
2019/09/29  02:01:01  BASE  1.28184  27   2.1168   35   -5.4  100   -5.4  0     0     982.1    NA       0.0000   9999     0     0     0    
2019/09/29  02:02:01  BASE  1.12308  28   1.93452  37   -5.4  100   -5.4  0     0     982.1    NA       0.0000   9999     0     0     0    
2019/09/29  02:03:01  BASE  0.7644   19   1.87572  22   -5.5  100   -5.5  0     0     982.1    NA       0.0000   9999     14370 0     0    
2019/09/29  02:04:01  BASE  0.74088  27   1.81692  34   -5.5  100   -5.5  0     0     982.1    NA       0.0000   9999     14440 0     0    
2019/09/29  02:05:01  BASE  1.15836  39   1.93452  35   -5.6  100   -5.6  0     0     982.1    NA       0.0000   9999     0     0     0    
2019/09/29  02:06:01  BASE  0.95256  50   1.93452  35   -5.5  100   -5.5  0     0     982.1    NA       0.0000   9999     0     0     0    
2019/09/29  02:07:01  BASE  0.67032  65   1.93452  35   -5.5  100   -5.5  0     0     982.1    NA       0.0000   9999     0     0     0    
2019/09/29  02:08:01  BASE  0.72324  79   1.93452  35   -5.5  100   -5.5  0     0     982.1    NA       0.0000   9999     0     0     0    
2019/09/29  02:09:01  BASE  0.5292   100  1.93452  35   -5.4  100   -5.4  0     0     982.1    NA       0.0000   9999     0     0     0    
2019/09/29  02:10:01  BASE  0.28224  82   1.93452  35   -5.4  100   -5.4  0     0     982.1    NA       0.0000   9999     0     0     0    
2019/09/29  02:11:01  BASE  0.54096  60   1.93452  35   -5.4  100   -5.4  0     0     982.1    NA       0.0000   9999     0     0     0    
2019/09/29  02:12:01  BASE  0.99372  55   1.93452  35   -5.4  100   -5.4  0     0     982.1    NA       0.0000   9999     0     0     0    
2019/09/29  02:13:01  BASE  1.25832  55   1.93452  35   -5.4  100   -5.4  0     0     982.1    NA       0.0000   9999     0     0     0    
2019/09/29  02:14:01  BASE  1.12308  62   1.93452  35   -5.4  100   -5.4  0     0     982.1    NA       0.0000   9999     0     0     0    
2019/09/29  02:15:01  BASE  0.48804  66   1.72284  47   -5.4  100   -5.4  0     0     982.1    NA       0.0000   9999     0     0     0    
2019/09/29  02:16:01  BASE  0.0588   77   1.72284  47   -5.5  100   -5.5  0     0     982.1    NA       0.0000   9999     0     0     0    
2019/09/29  02:17:01  BASE  0        36   1.72284  47   -5.5  100   -5.5  0     0     982.1    NA       0.0000   9999     0     0     0    
2019/09/29  02:18:01  BASE  0        321  1.72284  47   -5.5  100   -5.5  0     0     982.0    NA       0.0000   9999     0     0     0    
2019/09/29  02:19:01  BASE  0        333  1.72284  47   -5.4  100   -5.4  0     0     982.0    NA       0.0000   9999     0     0     0    
2019/09/29  02:20:01  BASE  0        321  1.72284  47   -5.4  100   -5.4  0     0     982.1    NA       0.0000   9999     0     0     0    
2019/09/29  02:21:01  BASE  0        304  1.72284  47   -5.4  100   -5.4  0     0     982.1    NA       0.0000   9999     0     0     0    
2019/09/29  02:22:01  BASE  0.46452  292  1.54056  54   -5.3  100   -5.3  0     0     982.1    NA       0.0000   9999     0     0     0    
2019/09/29  02:23:01  BASE  1.04076  258  2.0874   240  -5.3  100   -5.3  0     0     982.1    NA       0.0000   9999     0     0     0    
2019/09/29  02:24:01  BASE  1.48176  243  2.54016  227  -5.3  100   -5.3  0     0     982.0    NA       0.0000   9999     0     0     0    
2019/09/29  02:25:01  BASE  1.86396  234  2.54016  227  -5.4  100   -5.4  0     0     982.1    NA       0.0000   9999     0     0     0    
2019/09/29  02:26:01  BASE  2.05212  237  2.59896  242  -5.4  100   -5.4  0     0     982.0    NA       0.0000   9999     0     0     0    
2019/09/29  02:27:01  BASE  2.26968  237  2.59896  242  -5.4  100   -5.4  0     0     982.0    NA       0.0000   9999     0     0     0    
2019/09/29  02:28:01  BASE  2.08152  232  2.59896  242  -5.4  100   -5.4  0     0     982.1    NA       0.0000   9999     0     0     0    
2019/09/29  02:29:01  BASE  1.74048  230  2.59896  242  -5.3  100   -5.3  0     0     982.1    NA       0.0000   9999     0     0     0    
2019/09/29  02:30:01  BASE  1.62876  230  2.59896  242  -5.2  100   -5.2  0     0     982.1    NA       0.0000   9999     0     0     0    
2019/09/29  02:31:01  BASE  1.62876  223  2.59896  242  -5.1  100   -5.1  0     0     982.1    NA       0.0000   9999     0     0     0    
2019/09/29  02:32:01  BASE  1.44648  213  2.59896  242  -5.1  100   -5.1  0     0     982.1    NA       0.0000   9999     0     0     0    
2019/09/29  02:33:01  BASE  1.04076  204  2.59896  242  -5.1  100   -5.1  0     0     982.1    NA       0.0000   9999     0     0     0    
2019/09/29  02:34:01  BASE  0.6174   210  2.59896  242  -5.2  100   -5.2  0     0     982.1    NA       0.0000   9999     0     0     0    
2019/09/29  02:35:01  BASE  0.22344  221  2.59896  242  -5.3  100   -5.3  0     0     982.0    NA       0.0000   9999     0     0     0    
2019/09/29  02:36:01  BASE  0.31752  235  2.56956  221  -5.4  100   -5.4  0     0     982.0    NA       0.0000   9999     0     0     0    
2019/09/29  02:37:01  BASE  0.34104  272  2.56956  221  -5.4  100   -5.4  0     0     982.0    NA       0.0000   9999     0     0     0    
2019/09/29  02:38:01  BASE  0.18228  273  2.56956  221  -5.4  100   -5.4  0     0     982.0    NA       0.0000   9999     0     0     0    
2019/09/29  02:39:01  BASE  0.34104  255  2.56956  221  -5.4  100   -5.4  0     0     982.0    NA       0.0000   9999     0     0     0    
2019/09/29  02:40:01  BASE  0.21756  288  2.26968  228  -5.4  100   -5.4  0     0     982.0    NA       0.0000   9999     0     0     0    
2019/09/29  02:41:01  BASE  0        2    1.72284  226  -5.4  100   -5.4  0     0     981.9    NA       0.0000   9999     0     0     0    
2019/09/29  02:42:01  BASE  0.0294   310  1.63464  191  -5.4  100   -5.4  0     0     981.8    NA       0.0000   9999     0     0     0    
2019/09/29  02:43:01  BASE  0.0294   247  1.18188  229  -5.3  100   -5.3  0     0     981.8    NA       0.0000   9999     14080 0     0    
2019/09/29  02:44:01  BASE  0.43512  222  1.29948  208  -5.3  100   -5.3  0     0     981.8    NA       0.0000   9999     0     0     0    
2019/09/29  02:45:01  BASE  0.8232   200  1.29948  208  -5.2  100   -5.2  0     0     981.8    NA       0.0000   9999     0     0     0    
2019/09/29  02:46:01  BASE  0.48804  164  1.29948  208  -5.2  100   -5.2  0     0     981.8    NA       0.0000   9999     0     0     0    
2019/09/29  02:47:01  BASE  0.09996  105  1.29948  208  -5.2  100   -5.2  0     0     981.8    NA       0.0000   9999     0     0     0    
2019/09/29  02:48:01  BASE  0.18816  66   1.29948  208  -5.2  100   -5.2  0     0     981.8    NA       0.0000   9999     0     0     0    
2019/09/29  02:49:01  BASE  0.63504  53   1.29948  208  -5.3  100   -5.3  0     0     981.8    NA       0.0000   9999     0     0     0    
2019/09/29  02:50:01  BASE  0.57036  58   1.29948  208  -5.3  100   -5.3  0     0     981.8    NA       0.0000   9999     0     0     0    
2019/09/29  02:51:01  BASE  0.34692  93   1.29948  208  -5.3  100   -5.3  0     0     981.8    NA       0.0000   9999     0     0     0    
2019/09/29  02:52:01  BASE  0.72324  110  1.63464  95   -5.3  100   -5.3  0     0     981.8    NA       0.0000   9999     0     0     0    
2019/09/29  02:53:01  BASE  1.46412  83   2.21088  74   -5.3  100   -5.3  0     0     981.8    NA       0.0000   9999     0     0     0    
2019/09/29  02:54:01  BASE  1.5582   63   2.21088  74   -5.3  100   -5.3  0     0     981.8    NA       0.0000   9999     0     0     0    
2019/09/29  02:55:01  BASE  1.30536  49   2.21088  74   -5.4  100   -5.4  0     0     981.8    NA       0.0000   9999     0     0     0    
2019/09/29  02:56:01  BASE  1.2936   45   2.21088  74   -5.4  100   -5.4  0     0     981.8    NA       0.0000   9999     0     0     0    
2019/09/29  02:57:01  BASE  1.66404  65   2.59896  75   -5.4  100   -5.4  0     0     981.8    NA       0.0000   9999     0     0     0    
2019/09/29  02:58:01  BASE  1.9698   87   2.59896  75   -5.4  100   -5.4  0     0     981.8    NA       0.0000   9999     0     0     0    
2019/09/29  02:59:01  BASE  0.95256  62   2.59896  75   -5.4  100   -5.4  0     0     981.8    NA       0.0000   9999     0     0     0    
2019/09/29  03:00:01  BASE  0.08232  344  2.59896  75   -5.4  100   -5.4  0     0     981.8    NA       0.0000   9999     0     0     0    
2019/09/29  03:01:01  BASE  0.46452  332  2.59896  75   -5.4  100   -5.4  0     0     981.7    NA       0.0000   9999     0     0     0    
2019/09/29  03:02:01  BASE  0.8232   6    2.59896  75   -5.4  100   -5.4  0     0     981.8    NA       0.0000   9999     0     0     0    
2019/09/29  03:03:01  BASE  1.2642   60   2.59896  75   -5.4  100   -5.4  0     0     981.8    NA       0.0000   9999     0     0     0    
2019/09/29  03:04:01  BASE  2.28144  76   3.90432  82   -5.6  100   -5.6  0     0     981.8    NA       0.0000   9999     0     0     0    
2019/09/29  03:05:01  BASE  1.56408  59   3.90432  82   -5.6  100   -5.7  0     0     981.8    NA       0.0000   9999     0     0     0    
2019/09/29  03:06:01  BASE  0.2646   52   3.90432  82   -5.6  100   -5.7  0     0     981.8    NA       0.0000   9999     0     0     0    
2019/09/29  03:07:01  BASE  0.8232   34   3.90432  82   -5.7  100   -5.7  0     0     981.8    NA       0.0000   9999     0     0     0    
2019/09/29  03:08:01  BASE  1.62288  22   3.90432  82   -5.8  100   -5.8  0     0     981.8    NA       0.0000   9999     0     0     0    
2019/09/29  03:09:01  BASE  1.75812  33   3.90432  82   -5.8  100   -5.8  0     0     981.8    NA       0.0000   9999     0     0     0    
2019/09/29  03:10:01  BASE  1.57584  38   3.90432  82   -5.8  100   -5.8  0     0     981.8    NA       0.0000   9999     0     0     0    
2019/09/29  03:11:01  BASE  1.51704  41   3.90432  82   -5.9  100   -5.9  0     0     981.8    NA       0.0000   9999     0     0     0    
2019/09/29  03:12:01  BASE  1.71108  46   3.90432  82   -6.0  100   -6.0  0     0     981.8    NA       0.0000   9999     0     0     0    
2019/09/29  03:13:01  BASE  1.92276  48   3.90432  82   -6.0  100   -6.0  0     0     981.8    NA       0.0000   9999     0     0     0    
2019/09/29  03:14:01  BASE  1.95216  40   2.1462   43   -6.0  100   -6.0  0     0     981.8    NA       0.0000   9999     0     0     0    
2019/09/29  03:15:01  BASE  1.9992   26   2.29908  18   -6.0  100   -6.0  0     0     981.8    NA       0.0000   9999     0     0     0    
2019/09/29  03:16:01  BASE  2.0874   20   2.29908  18   -6.1  100   -6.1  0     0     981.7    NA       0.0000   9999     0     0     0    
2019/09/29  03:17:01  BASE  2.02272  24   2.29908  18   -6.1  100   -6.1  0     0     981.8    NA       0.0000   9999     0     0     0    
2019/09/29  03:18:01  BASE  2.04036  37   2.35788  47   -6.1  100   -6.1  0     0     981.8    NA       0.0000   9999     0     0     0    
2019/09/29  03:19:01  BASE  2.13444  47   2.45196  45   -6.1  100   -6.1  0     0     981.8    NA       0.0000   9999     0     0     0    
2019/09/29  03:20:01  BASE  1.9698   41   2.45196  45   -6.1  100   -6.1  0     0     981.8    NA       0.0000   9999     0     0     0    
2019/09/29  03:21:01  BASE  1.75812  28   2.45196  45   -6.1  100   -6.1  0     0     981.7    NA       0.0000   9999     0     0     0    
2019/09/29  03:22:01  BASE  1.9404   19   2.45196  45   -6.1  100   -6.1  0     0     981.7    NA       0.0000   9999     0     0     0    
2019/09/29  03:23:01  BASE  2.21088  21   2.45196  45   -6.1  100   -6.1  0     0     981.8    NA       0.0000   9999     0     0     0    
2019/09/29  03:24:01  BASE  2.15208  30   2.45196  45   -6.1  100   -6.1  0     0     981.8    NA       0.0000   9999     0     0     0    
2019/09/29  03:25:01  BASE  1.83456  39   2.45196  45   -6.1  100   -6.1  0     0     981.8    NA       0.0000   9999     0     0     0    
2019/09/29  03:26:01  BASE  1.56408  36   2.45196  45   -6.1  100   -6.1  0     0     981.8    NA       0.0000   9999     0     0     0    
2019/09/29  03:27:01  BASE  1.5288   28   2.45196  45   -6.1  100   -6.1  0     0     981.8    NA       0.0000   9999     0     0     0    
2019/09/29  03:28:01  BASE  1.75812  26   2.45196  45   -6.1  100   -6.1  0     0     981.8    NA       0.0000   9999     0     0     0    
2019/09/29  03:29:01  BASE  1.9698   26   2.35788  23   -6.1  100   -6.1  0     0     981.7    NA       0.0000   9999     0     0     0    
2019/09/29  03:30:01  BASE  1.911    30   2.35788  23   -6.0  100   -6.0  0     0     981.8    NA       0.0000   9999     0     0     0    
2019/09/29  03:31:01  BASE  1.72872  34   2.35788  23   -6.0  100   -6.0  0     0     981.8    NA       0.0000   9999     0     0     0    
2019/09/29  03:32:01  BASE  1.6464   38   2.35788  23   -6.0  100   -6.0  0     0     981.7    NA       0.0000   9999     0     0     0    
2019/09/29  03:33:01  BASE  1.89924  35   2.54016  32   -6.0  100   -6.0  0     0     981.7    NA       0.0000   9999     0     0     0    
2019/09/29  03:34:01  BASE  2.36376  34   2.93412  37   -6.1  100   -6.1  0     0     981.7    NA       0.0000   9999     0     0     0    
2019/09/29  03:35:01  BASE  2.5872   39   2.93412  37   -6.1  100   -6.1  0     0     981.8    NA       0.0000   9999     0     0     0    
2019/09/29  03:36:01  BASE  2.48136  40   2.93412  37   -6.2  100   -6.2  0     0     981.8    NA       0.0000   9999     0     0     0    
2019/09/29  03:37:01  BASE  2.25792  37   2.93412  37   -6.2  100   -6.2  0     0     981.8    NA       0.0000   9999     0     0     0    
2019/09/29  03:38:01  BASE  2.03448  38   2.93412  37   -6.2  100   -6.2  0     0     981.8    NA       0.0000   9999     0     0     0    
2019/09/29  03:39:01  BASE  2.07564  37   2.93412  37   -6.2  100   -6.2  0     0     981.7    NA       0.0000   9999     0     0     0    
2019/09/29  03:40:01  BASE  2.1168   31   2.93412  37   -6.2  100   -6.2  0     0     981.8    NA       0.0000   9999     0     0     0    
2019/09/29  03:41:01  BASE  1.92276  29   2.93412  37   -6.2  100   -6.2  0     0     981.8    NA       0.0000   9999     0     0     0    
2019/09/29  03:42:01  BASE  1.8816   28   2.93412  37   -6.1  100   -6.1  0     0     981.8    NA       0.0000   9999     0     0     0    
2019/09/29  03:43:01  BASE  1.62288  20   2.93412  37   -6.1  100   -6.1  0     0     981.8    NA       0.0000   9999     0     0     0    
2019/09/29  03:44:01  BASE  1.34064  24   2.81064  41   -6.0  100   -6.0  0     0     981.8    NA       0.0000   9999     0     0     0    
2019/09/29  03:45:01  BASE  1.45824  25   2.48136  36   -6.0  100   -6.0  0     0     981.8    NA       0.0000   9999     0     0     0    
2019/09/29  03:46:01  BASE  1.05252  10   2.35788  34   -5.9  100   -5.9  0     0     981.8    NA       0.0000   9999     0     0     0    
2019/09/29  03:47:01  BASE  0.61152  3    2.35788  34   -5.9  100   -5.9  0     0     981.8    NA       0.0000   9999     0     0     0    
2019/09/29  03:48:01  BASE  0.42336  287  2.35788  34   -5.8  100   -5.8  0     0     981.8    NA       0.0000   9999     0     0     0    
2019/09/29  03:49:01  BASE  0.21756  163  2.29908  27   -5.7  100   -5.8  0     0     981.8    NA       0.0000   9999     0     0     0    
2019/09/29  03:50:01  BASE  0.18228  121  2.058    26   -5.7  100   -5.7  0     0     981.8    NA       0.0000   9999     0     0     0    
2019/09/29  03:51:01  BASE  0.18816  92   2.058    26   -5.6  100   -5.6  0     0     981.8    NA       0.0000   9999     0     0     0    
2019/09/29  03:52:01  BASE  0.96432  53   2.29908  75   -5.6  100   -5.6  0     0     981.8    NA       0.0000   9999     0     0     0    
2019/09/29  03:53:01  BASE  1.59936  63   2.32848  75   -5.7  100   -5.7  0     0     981.8    NA       0.0000   9999     0     0     0    
2019/09/29  03:54:01  BASE  1.4994   60   2.32848  75   -5.8  100   -5.8  0     0     981.8    NA       0.0000   9999     0     0     0    
2019/09/29  03:55:01  BASE  1.33476  61   2.32848  75   -5.8  100   -5.8  0     0     982.0    NA       0.0000   9999     0     0     0    
2019/09/29  03:56:01  BASE  1.06428  63   2.32848  75   -6.0  100   -6.0  0     0     981.9    NA       0.0000   9999     0     0     0    
2019/09/29  03:57:01  BASE  1.11132  48   2.32848  75   -6.0  100   -6.0  0     0     981.8    NA       0.0000   9999     0     0     0    
2019/09/29  03:58:01  BASE  1.56408  40   2.32848  75   -6.1  100   -6.1  0     0     981.8    NA       0.0000   9999     0     0     0    
2019/09/29  03:59:01  BASE  1.8522   34   2.32848  75   -6.1  100   -6.1  0     0     981.8    NA       0.0000   9999     0     0     0    
2019/09/29  04:00:01  BASE  1.95804  35   2.32848  75   -6.2  100   -6.2  0     0     981.9    NA       0.0000   9999     0     0     0    
2019/09/29  04:01:01  BASE  2.07564  35   2.35788  30   -6.3  100   -6.3  0     0     981.9    NA       0.0000   9999     0     0     0    
2019/09/29  04:02:01  BASE  1.84632  30   2.35788  30   -6.3  100   -6.3  0     0     982.0    NA       0.0000   9999     0     0     0    
2019/09/29  04:03:01  BASE  1.323    35   2.35788  30   -6.3  100   -6.3  0     0     982.0    NA       0.0000   9999     0     0     0    
2019/09/29  04:04:01  BASE  1.4994   44   2.35788  30   -6.3  100   -6.3  0     0     981.9    NA       0.0000   9999     0     0     0    
2019/09/29  04:05:01  BASE  2.04036  48   2.45196  41   -6.3  100   -6.3  0     0     981.8    NA       0.0000   9999     0     0     0    
2019/09/29  04:06:01  BASE  2.06388  47   2.45196  41   -6.3  100   -6.3  0     0     981.8    NA       0.0000   9999     0     0     0    
2019/09/29  04:07:01  BASE  1.93452  50   2.45196  41   -6.2  100   -6.2  0     0     981.9    NA       0.0000   9999     0     0     0    
2019/09/29  04:08:01  BASE  1.54644  71   2.45196  41   -6.1  100   -6.1  0     0     982.0    NA       0.0000   9999     0     0     0    
2019/09/29  04:09:01  BASE  1.22304  71   2.45196  41   -6.1  100   -6.1  0     0     982.0    NA       0.0000   9999     0     0     0    
2019/09/29  04:10:01  BASE  1.40532  55   2.45196  41   -6.0  100   -6.0  0     0     982.0    NA       0.0000   9999     0     0     0    
2019/09/29  04:11:01  BASE  1.13484  52   2.45196  41   -6.0  100   -6.0  0     0     982.0    NA       0.0000   9999     0     0     0    
2019/09/29  04:12:01  BASE  0.54096  42   2.45196  41   -6.0  100   -6.0  0     0     982.0    NA       0.0000   9999     0     0     0    
2019/09/29  04:13:01  BASE  0.5586   18   2.45196  41   -6.0  100   -6.0  0     0     981.9    NA       0.0000   9999     0     0     0    
2019/09/29  04:14:01  BASE  0.7644   7    2.45196  41   -6.0  100   -6.0  0     0     981.8    NA       0.0000   9999     0     0     0    
2019/09/29  04:15:01  BASE  0.57624  40   2.42256  68   -5.9  100   -5.9  0     0     981.9    NA       0.0000   9999     0     0     0    
2019/09/29  04:16:01  BASE  0.82908  58   2.42256  68   -5.9  100   -5.9  0     0     982.0    NA       0.0000   9999     0     0     0    
2019/09/29  04:17:01  BASE  0.98196  51   2.42256  68   -5.9  100   -5.9  0     0     981.9    NA       0.0000   9999     0     0     0    
2019/09/29  04:18:01  BASE  0.98784  43   1.81692  59   -5.8  100   -5.8  0     0     981.9    NA       0.0000   9999     0     0     0    
2019/09/29  04:19:01  BASE  1.08192  39   1.81692  59   -5.9  100   -5.9  0     0     981.8    NA       0.0000   9999     0     0     0    
2019/09/29  04:20:01  BASE  0.8526   49   1.63464  41   -5.9  100   -5.9  0     0     982.0    NA       0.0000   9999     0     0     0    
2019/09/29  04:21:01  BASE  0.89964  61   1.63464  41   -5.9  100   -5.9  0     0     982.0    NA       0.0000   9999     0     0     0    
2019/09/29  04:22:01  BASE  0.95256  59   1.63464  41   -5.9  100   -6.0  0     0     982.0    NA       0.0000   9999     0     0     0    
2019/09/29  04:23:01  BASE  1.18776  53   1.66404  45   -6.0  100   -6.0  0     0     981.9    NA       0.0000   9999     0     0     0    
2019/09/29  04:24:01  BASE  1.5288   49   1.84632  42   -6.0  100   -6.0  0     0     981.8    NA       0.0000   9999     0     0     0    
2019/09/29  04:25:01  BASE  1.34064  51   1.84632  42   -6.0  100   -6.0  0     0     981.9    NA       0.0000   9999     0     0     0    
2019/09/29  04:26:01  BASE  0.8526   52   1.84632  42   -5.9  100   -5.9  0     0     982.0    NA       0.0000   9999     0     0     0    
2019/09/29  04:27:01  BASE  0.6174   46   1.84632  42   -6.0  100   -6.0  0     0     982.0    NA       0.0000   9999     0     0     0    
2019/09/29  04:28:01  BASE  0.55272  34   1.84632  42   -5.9  100   -5.9  0     0     982.0    NA       0.0000   9999     0     0     0    
2019/09/29  04:29:01  BASE  0.75852  23   1.84632  42   -5.9  100   -5.9  0     0     981.9    NA       0.0000   9999     0     0     0    
2019/09/29  04:30:01  BASE  1.15836  17   1.84632  42   -5.8  100   -5.8  0     0     982.0    NA       0.0000   9999     0     0     0    
2019/09/29  04:31:01  BASE  1.07016  15   1.84632  42   -5.8  100   -5.8  0     0     982.0    NA       0.0000   9999     0     0     0    
2019/09/29  04:32:01  BASE  0.95844  29   1.84632  42   -5.8  100   -5.8  0     0     982.0    NA       0.0000   9999     0     0     0    
2019/09/29  04:33:01  BASE  1.29948  41   1.93452  43   -5.7  100   -5.7  0     0     982.0    NA       0.0000   9999     0     0     0    
2019/09/29  04:34:01  BASE  1.31712  36   1.93452  43   -5.8  100   -5.8  0     0     982.0    NA       0.0000   9999     0     0     0    
2019/09/29  04:35:01  BASE  1.16424  33   1.93452  43   -5.8  100   -5.8  0     0     982.0    NA       0.0000   9999     0     0     0    
2019/09/29  04:36:01  BASE  1.35828  40   1.93452  43   -5.8  100   -5.8  0     0     982.0    NA       0.0000   9999     0     0     0    
2019/09/29  04:37:01  BASE  1.51116  52   1.93452  43   -5.8  100   -5.8  0     0     982.0    NA       0.0000   9999     0     0     0    
2019/09/29  04:38:01  BASE  1.39356  71   1.93452  43   -5.9  100   -5.9  0     0     982.0    NA       0.0000   9999     0     0     0    
2019/09/29  04:39:01  BASE  1.52292  72   1.93452  43   -5.9  100   -5.9  0     0     982.0    NA       0.0000   9999     0     0     0    
2019/09/29  04:40:01  BASE  1.86396  64   2.24028  65   -5.9  100   -5.9  0     0     982.0    NA       0.0000   9999     0     0     0    
2019/09/29  04:41:01  BASE  2.05212  62   2.48136  74   -5.9  100   -5.9  0     0     982.0    NA       0.0000   9999     0     0     0    
2019/09/29  04:42:01  BASE  1.98156  59   2.48136  74   -5.9  100   -5.9  0     0     982.0    NA       0.0000   9999     0     0     0    
2019/09/29  04:43:01  BASE  2.0286   60   2.66364  68   -5.9  100   -5.9  0     0     982.0    NA       0.0000   9999     0     0     0    
2019/09/29  04:44:01  BASE  2.07564  60   2.66364  68   -5.9  100   -5.9  0     0     982.0    NA       0.0000   9999     0     0     0    
2019/09/29  04:45:01  BASE  2.06388  56   2.66364  68   -5.9  100   -5.9  0     0     982.0    NA       0.0000   9999     0     0     0    
2019/09/29  04:46:01  BASE  1.77576  55   2.66364  68   -5.8  100   -5.8  0     0     982.0    NA       0.0000   9999     0     0     0    
2019/09/29  04:47:01  BASE  1.51704  52   2.66364  68   -5.7  100   -5.7  0     0     982.0    NA       0.0000   9999     0     0     0    
2019/09/29  04:48:01  BASE  1.84632  59   2.66364  68   -5.7  100   -5.7  0     0     982.0    NA       0.0000   9999     0     0     0    
2019/09/29  04:49:01  BASE  1.64052  86   2.66364  68   -5.7  100   -5.7  0     0     982.1    NA       0.0000   9999     0     0     0    
2019/09/29  04:50:01  BASE  1.0878   97   2.66364  68   -5.6  100   -5.6  0     0     982.1    NA       0.0000   9999     0     0     0    
2019/09/29  04:51:01  BASE  0.87612  101  2.66364  68   -5.5  100   -5.5  0     0     982.1    NA       0.0000   9999     0     0     0    
2019/09/29  04:52:01  BASE  0.77028  120  2.66364  68   -5.4  100   -5.4  0     0     982.1    NA       0.0000   9999     0     0     0    
2019/09/29  04:53:01  BASE  0.6762   114  2.48136  49   -5.3  100   -5.4  0     0     982.1    NA       0.0000   9999     0     0     0    
2019/09/29  04:54:01  BASE  0.62328  66   2.48136  49   -5.3  100   -5.4  0     0     982.1    NA       0.0000   9999     0     0     0    
2019/09/29  04:55:01  BASE  1.00548  48   2.42256  92   -5.4  99    -5.5  0     0     982.1    NA       0.0000   9999     0     0     0    
2019/09/29  04:56:01  BASE  1.22304  52   2.42256  92   -5.5  99    -5.6  0     0     982.1    NA       0.0000   9999     0     0     0    
2019/09/29  04:57:01  BASE  1.04664  50   2.42256  92   -5.7  99    -5.8  0     0     982.1    NA       0.0000   9999     0     0     0    
2019/09/29  04:58:01  BASE  0.64092  32   2.0286   101  -5.8  99    -6.0  0     0     982.1    NA       0.0000   9999     0     0     0    
2019/09/29  04:59:01  BASE  0.27636  29   1.9992   170  -5.8  99    -6.0  0     0     982.1    NA       0.0000   9999     0     0     0    
2019/09/29  05:00:01  BASE  0.28812  71   1.9992   170  -5.8  99    -6.0  0     0     982.1    NA       0.0000   9999     0     0     0    
2019/09/29  05:01:01  BASE  0.44688  44   1.9992   170  -5.8  99    -5.9  0     0     982.1    NA       0.0000   9999     0     0     0    
2019/09/29  05:02:01  BASE  0.62328  60   1.9992   170  -5.8  99    -5.9  0     0     982.1    NA       0.0000   9999     0     0     0    
2019/09/29  05:03:01  BASE  0.87024  75   1.9992   170  -5.7  99    -5.8  0     0     982.1    NA       0.0000   9999     0     0     0    
2019/09/29  05:04:01  BASE  1.04076  62   1.9992   170  -5.7  99    -5.8  0     0     982.1    NA       0.0000   9999     0     0     0    
2019/09/29  05:05:01  BASE  0.68796  59   1.9992   170  -5.6  99    -5.8  0     0     982.1    NA       0.0000   9999     0     0     0    
2019/09/29  05:06:01  BASE  0.3822   70   1.9992   170  -5.5  99    -5.7  0     0     982.1    NA       0.0000   9999     0     0     0    
2019/09/29  05:07:01  BASE  0.71148  100  1.9992   170  -5.4  99    -5.6  0     0     982.1    NA       0.0000   9999     0     0     0    
2019/09/29  05:08:01  BASE  1.37004  82   1.9992   170  -5.4  99    -5.6  0     0     982.1    NA       0.0000   9999     0     0     0    
2019/09/29  05:09:01  BASE  1.029    71   1.90512  66   -5.4  99    -5.6  0     0     982.1    NA       0.0000   9999     0     0     0    
2019/09/29  05:10:01  BASE  0.49392  68   1.90512  66   -5.5  99    -5.6  0     0     982.1    NA       0.0000   9999     0     0     0    
2019/09/29  05:11:01  BASE  0.29988  73   1.90512  66   -5.5  99    -5.7  0     0     982.1    NA       0.0000   9999     0     0     0    
2019/09/29  05:12:01  BASE  0        27   1.90512  66   -5.5  99    -5.7  0     0     982.0    NA       0.0000   9999     0     0     0    
2019/09/29  05:13:01  BASE  0.22932  360  1.90512  66   -5.5  99    -5.7  0     0     982.0    NA       0.0000   9999     0     0     0    
2019/09/29  05:14:01  BASE  1.01724  45   1.90512  66   -5.6  99    -5.8  0     0     982.0    NA       0.0000   9999     0     0     0    
2019/09/29  05:15:01  BASE  1.45824  77   1.90512  66   -5.6  99    -5.8  0     0     982.0    NA       0.0000   9999     0     0     0    
2019/09/29  05:16:01  BASE  1.33476  104  1.90512  66   -5.6  99    -5.8  0     0     982.1    NA       0.0000   9999     0     0     0    
2019/09/29  05:17:01  BASE  0.96432  127  1.90512  66   -5.6  99    -5.8  0     0     982.1    NA       0.0000   9999     0     0     0    
2019/09/29  05:18:01  BASE  0.8526   112  1.84632  87   -5.7  99    -5.8  0     0     982.1    NA       0.0000   9999     0     0     0    
2019/09/29  05:19:01  BASE  1.04076  79   1.84632  87   -5.6  99    -5.7  0     0     982.1    NA       0.0000   9999     0     0     0    
2019/09/29  05:20:01  BASE  0.84672  82   1.84632  87   -5.6  99    -5.7  0     0     982.1    NA       0.0000   9999     0     0     0    
2019/09/29  05:21:01  BASE  0.78204  91   1.84632  87   -5.5  99    -5.6  0     0     982.1    NA       0.0000   9999     0     0     0    
2019/09/29  05:22:01  BASE  0.53508  97   1.84632  87   -5.4  99    -5.5  0     0     982.1    NA       0.0000   9999     0     0     0    
2019/09/29  05:23:01  BASE  0.11172  117  1.84632  87   -5.3  99    -5.4  0     0     982.1    NA       0.0000   9999     0     0     0    
2019/09/29  05:24:01  BASE  0.5586   117  1.75224  81   -5.3  99    -5.4  0     0     982.1    NA       0.0000   9999     0     0     0    
2019/09/29  05:25:01  BASE  0.90552  77   1.60524  119  -5.3  100   -5.3  0     0     982.1    NA       0.0000   9999     0     0     0    
2019/09/29  05:26:01  BASE  0.3822   12   1.60524  119  -5.3  100   -5.3  0     0     982.1    NA       0.0000   9999     0     0     0    
2019/09/29  05:27:01  BASE  0.0294   330  1.60524  119  -5.3  100   -5.4  0     0     982.2    NA       0.0000   9999     0     0     0    
2019/09/29  05:28:01  BASE  0.19404  40   1.60524  119  -5.4  100   -5.4  0     0     982.2    NA       0.0000   9999     0     0     0    
2019/09/29  05:29:01  BASE  0.19404  51   1.60524  119  -5.4  100   -5.5  0     0     982.2    NA       0.0000   9999     0     0     0    
2019/09/29  05:30:01  BASE  0        48   1.60524  119  -5.5  100   -5.5  0     0     982.2    NA       0.0000   9999     0     0     0    
2019/09/29  05:31:01  BASE  0.09996  28   1.60524  119  -5.5  100   -5.5  0     0     982.1    NA       0.0000   9999     0     0     0    
2019/09/29  05:32:01  BASE  0.33516  17   1.60524  119  -5.5  100   -5.5  0     0     982.1    NA       0.0000   9999     0     0     0    
2019/09/29  05:33:01  BASE  0.441    59   1.60524  119  -5.4  100   -5.4  0     0     982.1    NA       0.0000   9999     0     0     0    
2019/09/29  05:34:01  BASE  0.33516  104  1.18188  30   -5.3  100   -5.3  0     0     982.2    NA       0.0000   9999     0     0     0    
2019/09/29  05:35:01  BASE  0.56448  160  1.24068  172  -5.2  100   -5.2  0     0     982.2    NA       0.0000   9999     0     0     0    
2019/09/29  05:36:01  BASE  0.6762   174  1.24068  172  -5.2  100   -5.2  0     0     982.2    NA       0.0000   9999     0     0     0    
2019/09/29  05:37:01  BASE  0.25872  184  1.24068  172  -5.2  100   -5.2  0     0     982.2    NA       0.0000   9999     0     0     0    
2019/09/29  05:38:01  BASE  0.0294   210  1.24068  172  -5.2  100   -5.2  0     0     982.2    NA       0.0000   9999     0     0     0    
2019/09/29  05:39:01  BASE  0.0588   233  1.24068  172  -5.2  100   -5.2  0     0     982.2    NA       0.0000   9999     0     0     0    
2019/09/29  05:40:01  BASE  0.0588   251  1.24068  172  -5.2  100   -5.2  0     0     982.2    NA       0.0000   9999     0     0     0    
2019/09/29  05:41:01  BASE  0.09408  231  1.24068  172  -5.2  100   -5.2  0     0     982.3    NA       0.0000   9999     0     0     0    
2019/09/29  05:42:01  BASE  0.09408  216  1.24068  172  -5.2  100   -5.2  0     0     982.3    NA       0.0000   9999     0     0     0    
2019/09/29  05:43:01  BASE  0        253  1.24068  172  -5.2  100   -5.2  0     0     982.3    NA       0.0000   9999     0     0     0    
2019/09/29  05:44:01  BASE  0        305  1.24068  172  -5.3  100   -5.3  0     0     982.3    NA       0.0000   9999     0     0     0    
2019/09/29  05:45:01  BASE  0        4    0.9996   169  -5.3  100   -5.3  0     0     982.3    NA       0.0000   9999     0     0     0    
2019/09/29  05:46:01  BASE  0.2058   25   0.84672  160  -5.4  100   -5.4  0     0     982.3    NA       0.0000   9999     0     0     0    
2019/09/29  05:47:01  BASE  0.27048  332  0.84672  160  -5.4  100   -5.4  0     0     982.3    NA       0.0000   9999     0     0     0    
2019/09/29  05:48:01  BASE  0.2352   294  0.84672  160  -5.4  100   -5.4  0     0     982.3    NA       0.0000   9999     0     0     0    
2019/09/29  05:49:01  BASE  0.17052  287  0.84672  160  -5.4  100   -5.4  0     0     982.3    NA       0.0000   9999     0     0     0    
2019/09/29  05:50:01  BASE  0        296  0.84672  160  -5.4  100   -5.4  0     0     982.3    NA       0.0000   9999     0     0     0    
2019/09/29  05:51:01  BASE  0.07056  270  0.93492  223  -5.4  100   -5.4  0     0     982.3    NA       0.0000   9999     0     0     0    
2019/09/29  05:52:01  BASE  0.34692  223  1.18188  205  -5.4  100   -5.4  0     0     982.3    NA       0.0000   9999     0     0     0    
2019/09/29  05:53:01  BASE  0.27636  226  1.18188  205  -5.4  100   -5.4  0     0     982.3    NA       0.0000   9999     0     0     0    
2019/09/29  05:54:01  BASE  0.4116   259  1.66404  259  -5.5  100   -5.5  0     0     982.3    NA       0.0000   9999     0     0     0    
2019/09/29  05:55:01  BASE  0.56448  238  1.66404  259  -5.5  100   -5.5  0     0     982.3    NA       0.0000   9999     0     0     0    
2019/09/29  05:56:01  BASE  0.43512  208  1.66404  259  -5.4  100   -5.4  0     0     982.3    NA       0.0000   9999     0     0     0    
2019/09/29  05:57:00  BASE  0.35868  215  1.66404  259  -5.4  100   -5.4  0     0     982.3    NA       0.0000   9999     0     0     0    
2019/09/29  05:58:01  BASE  0.21168  262  1.66404  259  -5.4  100   -5.4  0     0     982.3    NA       0.0000   9999     0     0     0    
2019/09/29  05:59:01  BASE  0.30576  289  1.66404  259  -5.4  100   -5.4  0     0     982.3    NA       0.0000   9999     0     0     0    
2019/09/29  06:00:00  BASE  0.2352   317  1.66404  259  -5.4  100   -5.4  0     0     982.3    NA       0.0000   9999     0     0     0    
2019/09/29  06:01:01  BASE  0.3822   357  1.66404  259  -5.4  100   -5.4  0     0     982.3    NA       0.0000   9999     0     0     0    
2019/09/29  06:02:01  BASE  0.3234   358  1.66404  259  -5.5  100   -5.5  0     0     982.3    NA       0.0000   9999     0     0     0    
2019/09/29  06:03:00  BASE  0.12348  352  1.66404  259  -5.4  100   -5.4  0     0     982.3    NA       0.0000   9999     0     0     0    
2019/09/29  06:04:01  BASE  0.48216  12   1.29948  183  -5.4  100   -5.4  0     0     982.3    NA       0.0000   9999     0     0     0    
2019/09/29  06:05:01  BASE  0.39396  22   1.29948  183  -5.5  100   -5.5  0     0     982.3    NA       0.0000   9999     0     0     0    
2019/09/29  06:06:01  BASE  0.2646   4    1.35828  346  -5.4  100   -5.4  0     0     982.3    NA       0.0000   9999     0     0     0    
2019/09/29  06:07:01  BASE  0.50568  21   1.35828  346  -5.4  100   -5.4  0     0     982.3    NA       0.0000   9999     0     0     0    
2019/09/29  06:08:01  BASE  0.96432  30   1.54056  25   -5.4  100   -5.4  0     0     982.3    NA       0.0000   9999     0     0     0    
2019/09/29  06:09:01  BASE  1.22304  30   1.54056  25   -5.4  100   -5.4  0     0     982.3    NA       0.0000   9999     0     0     0    
2019/09/29  06:10:01  BASE  1.01724  38   1.54056  25   -5.4  100   -5.4  0     0     982.3    NA       0.0000   9999     0     0     0    
2019/09/29  06:11:01  BASE  1.01724  50   1.54056  25   -5.5  100   -5.5  0     0     982.3    NA       0.0000   9999     0     0     0    
2019/09/29  06:12:01  BASE  0.91728  52   1.54056  25   -5.5  100   -5.5  0     0     982.3    NA       0.0000   9999     0     0     0    
2019/09/29  06:13:01  BASE  0.84084  41   1.57584  45   -5.6  100   -5.6  0     0     982.3    NA       0.0000   9999     0     0     0    
2019/09/29  06:14:01  BASE  0.62328  43   1.57584  45   -5.6  100   -5.6  0     0     982.3    NA       0.0000   9999     0     0     0    
2019/09/29  06:15:01  BASE  0.17052  70   1.57584  45   -5.6  100   -5.6  0     0     982.3    NA       0.0000   9999     0     0     0    
2019/09/29  06:16:01  BASE  0        110  1.57584  45   -5.6  100   -5.6  0     0     982.3    NA       0.0000   9999     0     0     0    
2019/09/29  06:17:00  BASE  0        360  1.57584  45   -5.5  100   -5.5  0     0     982.3    NA       0.0000   9999     0     0     0    
2019/09/29  06:18:01  BASE  0        17   1.57584  45   -5.5  100   -5.5  0     0     982.3    NA       0.0000   9999     0     0     0    
2019/09/29  06:19:00  BASE  0        313  1.57584  45   -5.5  100   -5.5  0     0     982.3    NA       0.0000   9999     0     0     0    
2019/09/29  06:20:00  BASE  0        232  1.57584  45   -5.4  100   -5.4  0     0     982.3    NA       0.0000   9999     0     0     0    
2019/09/29  06:21:00  BASE  0.32928  232  1.57584  45   -5.4  100   -5.4  0     0     982.3    NA       0.0000   9999     0     0     0    
2019/09/29  06:22:00  BASE  0.93492  252  1.87572  236  -5.4  100   -5.4  0     0     982.3    NA       0.0000   9999     0     0     0    
2019/09/29  06:23:00  BASE  0.98196  261  1.87572  236  -5.4  100   -5.4  0     0     982.3    NA       0.0000   9999     0     0     0    
2019/09/29  06:24:00  BASE  0.50568  305  1.87572  236  -5.4  100   -5.4  0     0     982.3    NA       0.0000   9999     0     0     0    
2019/09/29  06:25:00  BASE  0.18816  341  1.87572  236  -5.4  100   -5.4  0     0     982.3    NA       0.0000   9999     0     0     0    
2019/09/29  06:26:00  BASE  0.10584  346  1.87572  236  -5.5  100   -5.5  0     0     982.3    NA       0.0000   9999     0     0     0    
2019/09/29  06:27:00  BASE  0.07644  343  1.87572  236  -5.5  100   -5.5  0     0     982.3    NA       0.0000   9999     0     0     0    
2019/09/29  06:28:01  BASE  0.0294   356  1.87572  236  -5.5  100   -5.5  0     0     982.3    NA       0.0000   9999     0     0     0    
2019/09/29  06:29:00  BASE  0.15876  345  1.87572  236  -5.5  100   -5.5  0     0     982.3    NA       0.0000   9999     0     0     0    
2019/09/29  06:30:00  BASE  0.15876  293  1.87572  236  -5.5  100   -5.5  0     0     982.3    NA       0.0000   9999     0     0     0    
2019/09/29  06:31:00  BASE  0.15288  302  1.87572  236  -5.5  100   -5.5  0     0     982.3    NA       0.0000   9999     0     0     0    
2019/09/29  06:32:00  BASE  0.40572  350  1.21128  284  -5.5  100   -5.5  0     0     982.4    NA       0.0000   9999     0     0     0    
2019/09/29  06:33:00  BASE  0.28224  355  0.9702   351  -5.5  100   -5.5  0     0     982.4    NA       0.0000   9999     0     0     0    
2019/09/29  06:34:00  BASE  0.47628  323  1.54056  246  -5.5  100   -5.5  0     0     982.4    NA       0.0000   9999     0     0     0    
2019/09/29  06:35:00  BASE  1.15836  249  2.0286   209  -5.5  100   -5.5  0     0     982.3    NA       0.0000   9999     0     0     0    
2019/09/29  06:36:00  BASE  1.21128  247  2.0286   209  -5.5  100   -5.5  0     0     982.3    NA       0.0000   9999     0     0     0    
2019/09/29  06:37:00  BASE  1.18776  280  2.0286   209  -5.4  100   -5.4  0     0     982.3    NA       0.0000   9999     0     0     0    
2019/09/29  06:38:00  BASE  1.15836  280  2.0286   209  -5.4  100   -5.4  0     0     982.3    NA       0.0000   9999     0     0     0    
2019/09/29  06:39:00  BASE  0.882    276  2.0286   209  -5.4  100   -5.4  0     0     982.3    NA       0.0000   9999     0     0     0    
2019/09/29  06:40:00  BASE  0.45864  276  2.0286   209  -5.4  100   -5.4  0     0     982.3    NA       0.0000   9999     0     0     0    
2019/09/29  06:41:00  BASE  0.147    313  2.0286   209  -5.4  100   -5.4  0     0     982.3    NA       0.0000   9999     0     0     0    
2019/09/29  06:42:00  BASE  0.34104  338  2.0286   209  -5.5  100   -5.5  0     0     982.3    NA       0.0000   9999     0     0     0    
2019/09/29  06:43:00  BASE  0.39984  333  2.0286   209  -5.5  100   -5.5  0     0     982.3    NA       0.0000   9999     0     0     0    
2019/09/29  06:44:00  BASE  0.58212  328  2.0286   209  -5.5  100   -5.5  0     0     982.3    NA       0.0000   9999     0     0     0    
2019/09/29  06:45:00  BASE  1.1172   325  1.9992   289  -5.6  100   -5.6  0     0     982.3    NA       0.0000   9999     0     0     0    
2019/09/29  06:46:00  BASE  1.41708  360  2.0286   328  -5.6  100   -5.6  0     0     982.3    NA       0.0000   9999     0     0     0    
2019/09/29  06:47:00  BASE  1.50528  25   2.0286   328  -5.7  100   -5.7  0     0     982.4    NA       0.0000   9999     0     0     0    
2019/09/29  06:48:00  BASE  1.59348  26   2.0286   328  -5.7  100   -5.7  0     0     982.4    NA       0.0000   9999     0     0     0    
2019/09/29  06:49:00  BASE  1.5876   21   2.0286   20   -5.9  100   -5.9  0     0     982.4    NA       0.0000   9999     0     0     0    
2019/09/29  06:50:00  BASE  1.51704  20   2.0286   20   -5.9  100   -5.9  0     0     982.4    NA       0.0000   9999     0     0     0    
2019/09/29  06:51:00  BASE  1.43472  23   2.0286   20   -6.0  100   -6.0  0     0     982.4    NA       0.0000   9999     0     0     0    
2019/09/29  06:52:01  BASE  1.4994   20   2.0286   20   -6.0  100   -6.0  0     0     982.5    NA       0.0000   9999     0     0     0    
2019/09/29  06:53:00  BASE  1.52292  10   2.0286   20   -6.0  100   -6.0  0     0     982.6    NA       0.0000   9999     0     0     0    
2019/09/29  06:54:00  BASE  1.41708  353  2.0286   20   -6.0  100   -6.0  0     0     982.6    NA       0.0000   9999     0     0     0    
2019/09/29  06:55:00  BASE  1.39944  336  2.0286   20   -6.0  100   -6.0  0     0     982.6    NA       0.0000   9999     0     0     0    
2019/09/29  06:56:00  BASE  0.99372  324  2.0286   20   -5.9  100   -5.9  0     0     982.6    NA       0.0000   9999     0     0     0    
2019/09/29  06:57:00  BASE  1.09956  285  2.058    227  -5.9  100   -5.9  0     0     982.6    NA       0.0000   9999     0     0     0    
2019/09/29  06:58:00  BASE  1.5876   235  2.0874   214  -5.8  100   -5.8  0     0     982.6    NA       0.0000   9999     0     0     0    
2019/09/29  06:59:00  BASE  1.69932  225  2.0874   254  -5.8  100   -5.8  0     0     982.6    NA       0.0000   9999     0     0     0    
2019/09/29  07:00:00  BASE  1.92276  237  2.29908  248  -5.7  100   -5.7  0     0     982.6    NA       0.0000   9999     0     0     0    
2019/09/29  07:01:00  BASE  2.21088  236  3.087    234  -5.7  100   -5.7  0     0     982.6    NA       0.0000   9999     0     0     0    
2019/09/29  07:02:00  BASE  2.3814   236  3.087    234  -5.6  100   -5.6  0     0     982.6    NA       0.0000   9999     0     0     0    
2019/09/29  07:03:00  BASE  2.57544  236  3.69264  243  -5.5  100   -5.5  0     0     982.6    NA       0.0000   9999     0     0     0    
2019/09/29  07:04:00  BASE  2.54604  228  3.69264  243  -5.5  100   -5.5  0     0     982.6    NA       0.0000   9999     0     0     0    
2019/09/29  07:05:00  BASE  2.4696   225  3.69264  243  -5.4  100   -5.4  0     0     982.6    NA       0.0000   9999     0     0     0    
2019/09/29  07:06:00  BASE  2.24616  220  3.69264  243  -5.3  100   -5.3  0     0     982.6    NA       0.0000   9999     0     0     0    
2019/09/29  07:07:00  BASE  1.92864  224  3.69264  243  -5.3  100   -5.3  0     0     982.6    NA       0.0000   9999     0     0     0    
2019/09/29  07:08:00  BASE  1.93452  232  3.69264  243  -5.3  100   -5.3  0     0     982.6    NA       0.0000   9999     0     0     0    
2019/09/29  07:09:00  BASE  1.96392  233  3.69264  243  -5.4  100   -5.4  0     0     982.6    NA       0.0000   9999     0     0     0    
2019/09/29  07:10:00  BASE  1.8522   233  3.69264  243  -5.4  100   -5.4  0     0     982.7    NA       0.0000   9999     0     0     0    
2019/09/29  07:11:00  BASE  1.24656  236  3.69264  243  -5.4  100   -5.4  0     0     982.7    NA       0.0000   9999     0     0     0    
2019/09/29  07:12:01  BASE  0.87024  247  3.69264  243  -5.4  100   -5.4  0     0     982.6    NA       0.0000   9999     0     0     0    
2019/09/29  07:13:00  BASE  1.34064  251  3.234    229  -5.3  100   -5.3  0     0     982.6    NA       0.0000   9999     0     0     0    
2019/09/29  07:14:00  BASE  1.43472  254  3.234    229  -5.3  100   -5.3  0     0     982.6    NA       0.0000   9999     0     0     0    
2019/09/29  07:15:00  BASE  0.87612  275  2.81064  246  -5.4  100   -5.4  0     0     982.6    NA       0.0000   9999     0     0     0    
2019/09/29  07:16:00  BASE  0.99372  298  2.81064  246  -5.5  99    -5.6  0     0     982.6    NA       0.0000   9999     0     0     0    
2019/09/29  07:17:00  BASE  1.28184  320  2.81064  246  -5.7  99    -5.8  0     0     982.6    NA       0.0000   9999     0     0     0    
2019/09/29  07:18:01  BASE  1.25832  341  2.54016  226  -5.8  99    -6.0  0     0     982.7    NA       0.0000   9999     0     0     0    
2019/09/29  07:19:00  BASE  1.28184  352  2.54016  226  -6.0  99    -6.1  0     0     982.7    NA       0.0000   9999     0     0     0    
2019/09/29  07:20:00  BASE  1.31124  352  2.21088  260  -6.0  99    -6.1  0     0     982.7    NA       0.0000   9999     0     0     0    
2019/09/29  07:21:00  BASE  1.11132  351  2.21088  260  -6.1  99    -6.1  0     0     982.7    NA       0.0000   9999     0     0     0    
2019/09/29  07:22:00  BASE  1.0584   349  2.21088  260  -6.1  100   -6.2  0     0     982.7    NA       0.0000   9999     0     0     0    
2019/09/29  07:23:00  BASE  1.24656  356  1.78752  243  -6.1  100   -6.2  0     0     982.7    NA       0.0000   9999     0     0     0    
2019/09/29  07:24:01  BASE  1.21128  4    1.75224  360  -6.2  100   -6.2  0     0     982.7    NA       0.0000   9999     0     0     0    
2019/09/29  07:25:00  BASE  1.07604  359  1.75224  360  -6.2  100   -6.2  0     0     982.7    NA       0.0000   9999     0     0     0    
2019/09/29  07:26:00  BASE  1.07016  355  1.75224  360  -6.3  100   -6.3  0     0     982.7    NA       0.0000   9999     0     0     0    
2019/09/29  07:27:00  BASE  1.05252  2    1.75224  360  -6.3  100   -6.3  0     0     982.7    NA       0.0000   9999     0     0     0    
2019/09/29  07:28:00  BASE  0.91728  4    1.75224  360  -6.3  100   -6.3  0     0     982.7    NA       0.0000   9999     0     0     0    
2019/09/29  07:29:00  BASE  0.92316  4    1.75224  360  -6.3  100   -6.3  0     0     982.7    NA       0.0000   9999     0     0     0    
2019/09/29  07:30:00  BASE  1.21716  5    1.57584  3    -6.3  100   -6.3  0     0     982.7    NA       0.0000   9999     0     0     0    
2019/09/29  07:31:00  BASE  1.55232  360  1.81692  353  -6.3  100   -6.3  0     0     982.7    NA       0.0000   9999     0     0     0    
2019/09/29  07:32:00  BASE  1.64052  356  1.81692  353  -6.3  100   -6.3  0     0     982.7    NA       0.0000   9999     0     0     0    
2019/09/29  07:33:00  BASE  1.62288  359  1.81692  1    -6.3  100   -6.3  0     0     982.7    NA       0.0000   9999     0     0     0    
2019/09/29  07:34:00  BASE  1.63464  358  1.81692  354  -6.3  100   -6.3  0     0     982.8    NA       0.0000   9999     0     0     0    
2019/09/29  07:35:00  BASE  1.764    356  1.96392  360  -6.4  100   -6.4  0     0     982.8    NA       0.0000   9999     0     0     0    
2019/09/29  07:36:00  BASE  1.86396  357  2.0874   1    -6.5  100   -6.5  0     0     982.8    NA       0.0000   9999     0     0     0    
2019/09/29  07:37:00  BASE  1.81692  359  2.0874   1    -6.5  100   -6.5  0     0     982.8    NA       0.0000   9999     0     0     0    
2019/09/29  07:38:00  BASE  1.75224  0    2.0874   1    -6.6  100   -6.6  0     0     982.8    NA       0.0000   9999     0     0     0    
2019/09/29  07:39:00  BASE  1.93452  1    2.21088  360  -6.6  100   -6.6  0     0     982.8    NA       0.0000   9999     0     0     0    
2019/09/29  07:40:00  BASE  2.03448  2    2.21088  360  -6.6  100   -6.6  0     0     982.8    NA       0.0000   9999     0     0     0    
2019/09/29  07:41:00  BASE  1.78752  9    2.21088  360  -6.6  100   -6.6  0     0     982.8    NA       0.0000   9999     0     0     0    
2019/09/29  07:42:00  BASE  1.62876  15   2.21088  360  -6.6  100   -6.6  0     0     982.8    NA       0.0000   9999     0     0     0    
2019/09/29  07:43:00  BASE  1.54056  16   2.21088  360  -6.7  100   -6.7  0     0     982.8    NA       0.0000   9999     0     0     0    
2019/09/29  07:44:00  BASE  1.48176  17   2.21088  360  -6.7  100   -6.7  0     0     982.9    NA       0.0000   9999     0     0     0    
2019/09/29  07:45:00  BASE  1.60524  13   2.21088  360  -6.6  100   -6.6  0     0     982.9    NA       0.0000   9999     0     0     0    
2019/09/29  07:46:00  BASE  1.80516  13   2.21088  360  -6.6  100   -6.6  0     0     982.9    NA       0.0000   9999     0     0     0    
2019/09/29  07:47:00  BASE  1.98156  17   2.21088  21   -6.5  100   -6.5  0     0     982.9    NA       0.0000   9999     0     0     0    
2019/09/29  07:48:00  BASE  2.16384  16   2.42256  10   -6.5  100   -6.5  0     0     982.9    NA       0.0000   9999     0     0     0    
2019/09/29  07:49:00  BASE  2.05212  17   2.42256  10   -6.5  100   -6.5  0     0     982.9    NA       0.0000   9999     0     0     0    
2019/09/29  07:50:00  BASE  1.71108  22   2.42256  10   -6.6  100   -6.6  0     0     982.9    NA       0.0000   9999     0     0     0    
2019/09/29  07:51:00  BASE  1.56408  24   2.42256  10   -6.7  100   -6.7  0     0     982.9    NA       0.0000   9999     0     0     0    
2019/09/29  07:52:01  BASE  1.4994   21   2.42256  10   -6.7  100   -6.7  0     0     982.9    NA       0.0000   9999     0     0     0    
2019/09/29  07:53:00  BASE  1.42884  20   2.42256  10   -6.7  100   -6.7  0     0     982.9    NA       0.0000   9999     0     0     0    
2019/09/29  07:54:00  BASE  1.39356  26   2.42256  10   -6.7  100   -6.7  0     0     982.9    NA       0.0000   9999     0     0     0    
2019/09/29  07:55:00  BASE  1.59936  25   2.42256  10   -6.7  100   -6.7  0     0     982.9    NA       0.0000   9999     0     0     0    
2019/09/29  07:56:01  BASE  1.81692  21   2.42256  10   -6.6  100   -6.6  0     0     982.9    NA       0.0000   9999     0     0     0    
2019/09/29  07:57:00  BASE  1.76988  22   2.42256  10   -6.6  100   -6.6  0     0     982.9    NA       0.0000   9999     0     0     0    
2019/09/29  07:58:00  BASE  1.65228  22   2.0874   20   -6.7  100   -6.7  0     0     982.9    NA       0.0000   9999     0     0     0    
2019/09/29  07:59:00  BASE  1.61112  25   2.0874   20   -6.7  100   -6.7  0     0     982.9    NA       0.0000   9999     0     0     0    
2019/09/29  08:00:00  BASE  1.69932  22   2.0874   20   -6.7  100   -6.7  0     0     982.9    NA       0.0000   9999     0     0     0    
2019/09/29  08:01:00  BASE  1.71108  21   2.0874   20   -6.7  100   -6.7  0     0     982.9    NA       0.0000   9999     0     0     0    
2019/09/29  08:02:00  BASE  1.62876  26   2.0874   20   -6.7  100   -6.7  0     0     982.9    NA       0.0000   9999     0     0     0    
2019/09/29  08:03:00  BASE  1.51704  33   2.0874   20   -6.7  100   -6.7  0     0     982.9    NA       0.0000   9999     0     0     0    
2019/09/29  08:04:01  BASE  1.47     37   2.0874   20   -6.8  100   -6.8  0     0     982.9    NA       0.0000   9999     0     0     0    
2019/09/29  08:05:00  BASE  1.50528  32   2.1462   20   -6.8  100   -6.8  0     0     982.9    NA       0.0000   9999     0     0     0    
2019/09/29  08:06:00  BASE  1.35828  21   2.1462   20   -6.9  100   -6.9  0     0     982.9    NA       0.0000   9999     0     0     0    
2019/09/29  08:07:00  BASE  1.22304  19   2.1462   20   -6.9  100   -6.9  0     0     982.9    NA       0.0000   9999     0     0     0    
2019/09/29  08:08:00  BASE  1.11132  20   2.1462   20   -7.0  100   -7.0  0     0     982.9    NA       0.0000   9999     0     0     0    
2019/09/29  08:09:00  BASE  1.11132  22   2.1462   20   -7.0  100   -7.0  0     0     982.9    NA       0.0000   9999     0     0     0    
2019/09/29  08:10:00  BASE  1.37592  26   2.1462   20   -7.0  100   -7.0  0     0     982.9    NA       0.0000   9999     0     0     0    
2019/09/29  08:11:00  BASE  1.27596  19   2.1462   20   -7.0  100   -7.0  0     0     982.9    NA       0.0000   9999     0     0     0    
2019/09/29  08:12:00  BASE  1.22892  23   2.1462   20   -6.9  100   -6.9  0     0     982.9    NA       0.0000   9999     0     0     0    
2019/09/29  08:13:00  BASE  1.5288   28   2.1462   20   -6.8  100   -6.8  0     0     982.9    NA       0.0000   9999     0     0     0    
2019/09/29  08:14:00  BASE  1.88748  27   2.29908  19   -6.8  100   -6.8  0     0     982.9    NA       0.0000   9999     0     0     0    
2019/09/29  08:15:00  BASE  1.8816   29   2.29908  19   -6.7  100   -6.7  0     0     983.0    NA       0.0000   9999     0     0     0    
2019/09/29  08:16:00  BASE  1.66992  32   2.29908  19   -6.8  100   -6.8  0     0     983.1    NA       0.0000   9999     0     0     0    
2019/09/29  08:17:00  BASE  1.62876  28   2.29908  19   -6.8  100   -6.8  0     0     983.1    NA       0.0000   9999     0     0     0    
2019/09/29  08:18:00  BASE  1.60524  22   2.29908  19   -6.8  100   -6.8  0     0     983.1    NA       0.0000   9999     0     0     0    
2019/09/29  08:19:00  BASE  1.49352  17   2.29908  19   -7.0  100   -7.0  0     0     983.1    NA       0.0000   9999     0     0     0    
2019/09/29  08:20:00  BASE  1.45824  10   2.29908  19   -7.0  100   -7.0  0     0     983.1    NA       0.0000   9999     0     0     0    
2019/09/29  08:21:00  BASE  1.57584  9    2.29908  19   -7.0  100   -7.0  0     0     983.1    NA       0.0000   9999     0     0     0    
2019/09/29  08:22:01  BASE  1.5876   14   2.29908  19   -7.0  100   -7.0  0     0     983.2    NA       0.0000   9999     0     0     0    
2019/09/29  08:23:00  BASE  1.68168  17   2.29908  19   -6.9  100   -6.9  0     0     983.2    NA       0.0000   9999     0     0     0    
2019/09/29  08:24:00  BASE  1.68756  21   1.96392  19   -6.8  100   -6.8  0     0     983.2    NA       0.0000   9999     0     0     0    
2019/09/29  08:25:00  BASE  1.52292  27   1.96392  19   -6.7  100   -6.7  0     0     983.2    NA       0.0000   9999     0     0     0    
2019/09/29  08:26:00  BASE  1.39356  31   1.96392  19   -6.7  100   -6.7  0     0     983.2    NA       0.0000   9999     0     0     0    
2019/09/29  08:27:00  BASE  1.57584  33   2.42256  22   -6.7  100   -6.7  0     0     983.2    NA       0.0000   9999     0     0     0    
2019/09/29  08:28:00  BASE  1.87572  33   2.42256  22   -6.8  100   -6.8  0     0     983.2    NA       0.0000   9999     0     0     0    
2019/09/29  08:29:00  BASE  1.9992   33   2.42256  22   -6.8  100   -6.8  0     0     983.2    NA       0.0000   9999     0     0     0    
2019/09/29  08:30:00  BASE  1.9992   30   2.54016  30   -6.8  100   -6.8  0     0     983.2    NA       0.0000   9999     0     0     0    
2019/09/29  08:31:00  BASE  1.87572  28   2.54016  30   -6.8  100   -6.8  0     0     983.3    NA       0.0000   9999     0     0     0    
2019/09/29  08:32:00  BASE  1.84044  27   2.54016  30   -6.7  100   -6.7  0     0     983.3    NA       0.0000   9999     0     0     0    
2019/09/29  08:33:00  BASE  2.0286   31   2.54016  30   -6.6  100   -6.6  0     0     983.3    NA       0.0000   9999     0     0     0    
2019/09/29  08:34:01  BASE  2.21088  37   2.54016  30   -6.5  100   -6.5  0     0     983.3    NA       0.0000   9999     0     0     0    
2019/09/29  08:35:00  BASE  2.15796  34   2.54016  30   -6.5  100   -6.5  0     0     983.3    NA       0.0000   9999     0     0     0    
2019/09/29  08:36:00  BASE  2.15208  28   2.54016  30   -6.5  100   -6.5  0     0     983.3    NA       0.0000   9999     0     0     0    
2019/09/29  08:37:00  BASE  2.18148  25   2.54016  30   -6.5  100   -6.5  0     0     983.3    NA       0.0000   9999     0     0     0    
2019/09/29  08:38:00  BASE  2.02272  27   2.54016  30   -6.6  100   -6.6  0     0     983.3    NA       0.0000   9999     0     0     0    
2019/09/29  08:39:00  BASE  1.75812  33   2.54016  30   -6.6  100   -6.6  0     0     983.4    NA       0.0000   9999     0     0     0    
2019/09/29  08:40:00  BASE  1.49352  37   2.48136  34   -6.6  100   -6.6  0     0     983.4    NA       0.0000   9999     0     0     0    
2019/09/29  08:41:00  BASE  1.46412  32   2.48136  34   -6.6  100   -6.6  0     0     983.4    NA       0.0000   9999     0     0     0    
2019/09/29  08:42:00  BASE  1.49352  21   2.48136  34   -6.7  100   -6.7  0     0     983.4    NA       0.0000   9999     0     0     0    
2019/09/29  08:43:00  BASE  1.47     21   2.48136  34   -6.7  100   -6.7  0     0     983.4    NA       0.0000   9999     0     0     0    
2019/09/29  08:44:00  BASE  1.59348  19   2.45196  29   -6.6  100   -6.6  0     0     983.4    NA       0.0000   9999     0     0     0    
2019/09/29  08:45:00  BASE  1.66992  13   2.42256  24   -6.6  100   -6.6  0     0     983.4    NA       0.0000   9999     0     0     0    
2019/09/29  08:46:00  BASE  1.56408  16   2.24028  21   -6.6  100   -6.6  0     0     983.4    NA       0.0000   9999     0     0     0    
2019/09/29  08:47:00  BASE  1.51704  13   2.1756   23   -6.6  100   -6.6  0     0     983.4    NA       0.0000   9999     0     0     0    
2019/09/29  08:48:00  BASE  1.54056  13   2.058    5    -6.6  100   -6.6  0     0     983.4    NA       0.0000   9999     0     0     0    
2019/09/29  08:49:00  BASE  1.51116  19   2.058    5    -6.6  100   -6.6  0     0     983.4    NA       0.0000   9999     0     0     0    
2019/09/29  08:50:00  BASE  1.6464   26   2.058    5    -6.6  100   -6.6  0     0     983.4    NA       0.0000   9999     0     0     0    
2019/09/29  08:51:00  BASE  1.90512  30   2.0874   29   -6.6  100   -6.6  0     0     983.4    NA       0.0000   9999     0     0     0    
2019/09/29  08:52:00  BASE  1.92276  34   2.0874   29   -6.6  100   -6.6  0     0     983.4    NA       0.0000   9999     0     0     0    
2019/09/29  08:53:00  BASE  1.72284  32   2.0874   29   -6.6  100   -6.6  0     0     983.4    NA       0.0000   9999     0     0     0    
2019/09/29  08:54:00  BASE  1.4994   30   2.0874   29   -6.6  100   -6.6  0     0     983.4    NA       0.0000   9999     0     0     0    
2019/09/29  08:55:00  BASE  1.3524   25   2.0874   29   -6.5  100   -6.5  0     0     983.4    NA       0.0000   9999     0     0     0    
2019/09/29  08:56:00  BASE  1.37004  25   2.0874   29   -6.5  100   -6.5  0     0     983.5    NA       0.0000   9999     0     0     0    
2019/09/29  08:57:00  BASE  1.47588  29   2.0874   29   -6.5  100   -6.5  0     0     983.5    NA       0.0000   9999     0     0     0    
2019/09/29  08:58:00  BASE  1.617    31   2.0874   29   -6.5  100   -6.5  0     0     983.5    NA       0.0000   9999     0     0     0    
2019/09/29  08:59:00  BASE  1.79928  34   2.1756   31   -6.5  100   -6.5  0     0     983.5    NA       0.0000   9999     0     0     0    
2019/09/29  09:00:00  BASE  1.95216  32   2.21088  23   -6.6  100   -6.6  0     0     983.5    NA       0.0000   9999     0     0     0    
2019/09/29  09:01:00  BASE  1.98156  31   2.21088  23   -6.6  100   -6.6  0     0     983.5    NA       0.0000   9999     0     0     0    
2019/09/29  09:02:01  BASE  2.07564  29   2.24028  25   -6.7  100   -6.7  0     0     983.5    NA       0.0000   9999     0     0     0    
2019/09/29  09:03:00  BASE  2.07564  26   2.24028  25   -6.7  100   -6.7  0     0     983.5    NA       0.0000   9999     0     0     0    
2019/09/29  09:04:00  BASE  1.8816   27   2.24028  25   -6.7  100   -6.7  0     0     983.5    NA       0.0000   9999     0     0     0    
2019/09/29  09:05:00  BASE  1.74636  27   2.24028  25   -6.7  100   -6.7  0     0     983.5    NA       0.0000   9999     0     0     0    
2019/09/29  09:06:00  BASE  1.74048  23   2.24028  25   -6.6  100   -6.6  0     0     983.5    NA       0.0000   9999     0     0     0    
2019/09/29  09:07:00  BASE  1.76988  19   2.24028  25   -6.6  100   -6.6  0     0     983.5    NA       0.0000   9999     0     0     0    
2019/09/29  09:08:00  BASE  1.74048  16   2.24028  25   -6.6  100   -6.6  0     0     983.5    NA       0.0000   9999     0     0     0    
2019/09/29  09:09:00  BASE  1.82868  18   2.24028  25   -6.6  100   -6.6  0     0     983.5    NA       0.0000   9999     0     0     0    
2019/09/29  09:10:00  BASE  1.90512  25   2.24028  25   -6.6  100   -6.6  0     0     983.5    NA       0.0000   9999     0     0     0    
2019/09/29  09:11:00  BASE  1.92864  29   2.24028  25   -6.6  100   -6.6  0     0     983.5    NA       0.0000   9999     0     0     0    
2019/09/29  09:12:00  BASE  2.00508  31   2.1462   30   -6.6  100   -6.6  0     0     983.5    NA       0.0000   9999     0     0     0    
2019/09/29  09:13:00  BASE  2.0874   30   2.35788  23   -6.6  100   -6.6  0     0     983.5    NA       0.0000   9999     0     0     0    
2019/09/29  09:14:01  BASE  2.25792  28   2.51076  26   -6.6  100   -6.6  0     0     983.5    NA       0.0000   9999     0     0     0    
2019/09/29  09:15:00  BASE  2.3814   27   2.56956  31   -6.6  100   -6.6  0     0     983.5    NA       0.0000   9999     0     0     0    
2019/09/29  09:16:00  BASE  2.45196  26   2.69304  28   -6.7  100   -6.7  0     0     983.5    NA       0.0000   9999     0     0     0    
2019/09/29  09:17:00  BASE  2.3814   26   2.69304  28   -6.7  100   -6.7  0     0     983.6    NA       0.0000   9999     0     0     0    
2019/09/29  09:18:00  BASE  2.15208  31   2.69304  28   -6.7  100   -6.7  0     0     983.7    NA       0.0000   9999     0     0     0    
2019/09/29  09:19:00  BASE  1.98156  33   2.69304  28   -6.7  100   -6.7  1     0     983.7    NA       0.0000   9999     0     0     0    
2019/09/29  09:20:00  BASE  1.93452  30   2.69304  28   -6.7  100   -6.7  1     0     983.7    NA       0.0000   9999     0     0     0    
2019/09/29  09:21:00  BASE  1.95216  26   2.69304  28   -6.7  100   -6.7  1     0     983.7    NA       0.0000   9999     0     0     0    
2019/09/29  09:22:00  BASE  2.00508  26   2.69304  28   -6.7  100   -6.7  1     0     983.7    NA       0.0000   9999     0     0     0    
2019/09/29  09:23:00  BASE  2.16972  30   2.69304  28   -6.7  100   -6.7  1     0     983.7    NA       0.0000   9999     0     0     0    
2019/09/29  09:24:00  BASE  2.37552  32   2.69304  28   -6.7  100   -6.7  1     0     983.7    NA       0.0000   9999     0     0     0    
2019/09/29  09:25:00  BASE  2.39316  34   2.69304  28   -6.7  100   -6.7  1     0     983.7    NA       0.0000   9999     0     0     0    
2019/09/29  09:26:00  BASE  2.21088  36   2.63424  35   -6.8  100   -6.8  2     0     983.7    NA       0.0000   9999     0     0     0    
2019/09/29  09:27:00  BASE  1.96392  38   2.63424  35   -6.8  100   -6.8  2     0     983.7    NA       0.0000   9999     0     0     0    
2019/09/29  09:28:00  BASE  1.80516  38   2.63424  35   -6.8  100   -6.8  2     0     983.7    NA       0.0000   9999     0     0     0    
2019/09/29  09:29:00  BASE  1.79928  33   2.63424  35   -6.8  100   -6.8  2     0     983.7    NA       0.0000   9999     0     0     0    
2019/09/29  09:30:00  BASE  1.9404   29   2.63424  35   -6.8  100   -6.8  2     0     983.7    NA       0.0000   9999     0     0     0    
2019/09/29  09:31:00  BASE  2.07564  26   2.63424  35   -6.8  100   -6.8  2     0     983.7    NA       0.0000   9999     0     0     0    
2019/09/29  09:32:00  BASE  2.16972  28   2.63424  35   -6.7  100   -6.7  3     0     983.7    NA       0.0000   9999     0     0     0    
2019/09/29  09:33:00  BASE  2.19324  31   2.63424  35   -6.7  100   -6.7  3     0     983.6    NA       0.0000   9999     0     0     0    
2019/09/29  09:34:01  BASE  2.12268  33   2.48136  37   -6.7  100   -6.7  3     0     983.5    NA       0.0000   9999     0     0     0    
2019/09/29  09:35:00  BASE  2.10504  32   2.32848  28   -6.8  100   -6.8  3     0     983.5    NA       0.0000   9999     0     0     0    
2019/09/29  09:36:00  BASE  2.10504  31   2.32848  28   -6.8  100   -6.8  3     0     983.5    NA       0.0000   9999     0     0     0    
2019/09/29  09:37:00  BASE  2.07564  34   2.32848  28   -6.8  100   -6.8  4     0     983.6    NA       0.0000   9999     0     0     0    
2019/09/29  09:38:00  BASE  1.95216  40   2.32848  28   -6.8  100   -6.8  4     0     983.7    NA       0.0000   9999     0     0     0    
2019/09/29  09:39:00  BASE  1.87572  36   2.32848  28   -6.8  100   -6.8  4     0     983.5    NA       0.0000   9999     0     0     0    
2019/09/29  09:40:00  BASE  1.9992   29   2.32848  28   -6.8  100   -6.8  4     0     983.5    NA       0.0000   9999     0     0     0    
2019/09/29  09:41:00  BASE  2.15796  27   2.35788  25   -6.8  100   -6.8  5     0     983.5    NA       0.0000   9999     0     0     0    
2019/09/29  09:42:00  BASE  2.2638   29   2.54016  34   -6.8  100   -6.8  5     0     983.5    NA       0.0000   9999     0     0     0    
2019/09/29  09:43:00  BASE  2.2932   37   2.54016  34   -6.8  100   -6.8  5     0     983.5    NA       0.0000   9999     0     0     0    
2019/09/29  09:44:00  BASE  2.52252  40   2.81064  34   -6.8  100   -6.8  5     0     983.5    NA       0.0000   9999     0     0     0    
2019/09/29  09:45:00  BASE  2.7636   39   2.99292  34   -6.9  100   -6.9  6     0     983.5    NA       0.0000   9999     0     0     0    
2019/09/29  09:46:00  BASE  2.58132  39   2.99292  34   -6.9  100   -6.9  6     0     983.5    NA       0.0000   9999     0     0     0    
2019/09/29  09:47:00  BASE  2.24616  38   2.99292  34   -6.9  100   -6.9  6     0     983.5    NA       0.0000   9999     0     0     0    
2019/09/29  09:48:00  BASE  2.06976  36   2.99292  34   -7.0  100   -7.0  7     0     983.5    NA       0.0000   9999     0     0     0    
2019/09/29  09:49:00  BASE  2.08152  34   2.99292  34   -7.0  100   -7.0  7     0     983.5    NA       0.0000   9999     0     0     0    
2019/09/29  09:50:00  BASE  2.1756   31   2.99292  34   -7.0  100   -7.0  7     0     983.5    NA       0.0000   9999     0     0     0    
2019/09/29  09:51:00  BASE  2.2344   30   2.99292  34   -6.9  100   -6.9  8     0     983.5    NA       0.0000   9999     0     0     0    
2019/09/29  09:52:00  BASE  2.22852  31   2.99292  34   -6.9  100   -6.9  8     0     983.5    NA       0.0000   9999     0     0     0    
2019/09/29  09:53:00  BASE  2.24616  30   2.99292  34   -6.9  100   -6.9  8     0     983.5    NA       0.0000   9999     0     0     0    
2019/09/29  09:54:00  BASE  2.3226   32   2.99292  34   -6.9  100   -6.9  8     0     983.5    NA       0.0000   9999     0     0     0    
2019/09/29  09:55:00  BASE  2.27556  32   2.69304  43   -6.9  100   -6.9  9     0     983.5    NA       0.0000   9999     0     0     0    
2019/09/29  09:56:00  BASE  2.18736  31   2.56956  34   -6.9  100   -6.9  9     0     983.5    NA       0.0000   9999     0     0     0    
2019/09/29  09:57:00  BASE  1.94628  32   2.56956  34   -6.8  100   -6.8  9     0     983.6    NA       0.0000   9999     0     0     0    
2019/09/29  09:58:00  BASE  1.68168  32   2.56956  34   -6.8  100   -6.8  10    0     983.7    NA       0.0000   9999     0     0     0    
2019/09/29  09:59:00  BASE  1.56996  33   2.56956  34   -6.8  100   -6.8  10    0     983.7    NA       0.0000   9999     0     0     0    
2019/09/29  10:00:00  BASE  1.41708  28   2.56956  34   -6.8  100   -6.8  10    0     983.7    NA       0.0000   9999     0     0     0    
2019/09/29  10:01:00  BASE  1.21128  20   2.56956  34   -6.7  100   -6.7  10    0     983.7    NA       0.0000   9999     0     0     0    
2019/09/29  10:02:00  BASE  1.1172   14   2.56956  34   -6.7  100   -6.7  11    0     983.7    NA       0.0000   9999     0     0     0    
2019/09/29  10:03:00  BASE  1.22892  8    2.56956  34   -6.7  100   -6.7  11    0     983.7    NA       0.0000   9999     0     0     0    
2019/09/29  10:04:00  BASE  1.31124  7    2.42256  27   -6.7  100   -6.7  11    0     983.7    NA       0.0000   9999     0     0     0    
2019/09/29  10:05:00  BASE  1.32888  12   2.42256  27   -6.6  100   -6.6  12    0     983.7    NA       0.0000   9999     0     0     0    
2019/09/29  10:06:00  BASE  1.37592  18   1.96392  33   -6.6  100   -6.6  12    0     983.7    NA       0.0000   9999     0     0     0    
2019/09/29  10:07:00  BASE  1.40532  20   1.75224  27   -6.6  100   -6.6  12    0     983.7    NA       0.0000   9999     0     0     0    
2019/09/29  10:08:00  BASE  1.45236  20   1.75224  27   -6.6  100   -6.6  13    0     983.7    NA       0.0000   9999     0     0     0    
2019/09/29  10:09:00  BASE  1.42296  21   1.63464  18   -6.6  100   -6.6  13    0     983.7    NA       0.0000   9999     0     0     0    
2019/09/29  10:10:00  BASE  1.25832  26   1.63464  18   -6.6  100   -6.6  13    0     983.8    NA       0.0000   9999     0     0     0    
2019/09/29  10:11:00  BASE  1.15248  29   1.63464  18   -6.6  100   -6.6  13    0     983.8    NA       0.0000   9999     0     0     0    
2019/09/29  10:12:00  BASE  1.05252  23   1.63464  18   -6.6  100   -6.6  14    0     983.9    NA       0.0000   9999     0     0     0    
2019/09/29  10:13:00  BASE  0.87612  20   1.63464  18   -6.6  100   -6.6  14    0     983.9    NA       0.0000   9999     0     0     0    
2019/09/29  10:14:00  BASE  0.89376  22   1.63464  18   -6.6  100   -6.6  15    0     983.9    NA       0.0000   9999     0     0     0    
2019/09/29  10:15:00  BASE  0.98196  19   1.63464  18   -6.6  100   -6.6  15    0     983.9    NA       0.0000   9999     0     0     0    
2019/09/29  10:16:00  BASE  1.04076  18   1.63464  18   -6.6  100   -6.6  16    0     983.9    NA       0.0000   9999     0     0     0    
2019/09/29  10:17:00  BASE  1.01136  25   1.63464  18   -6.5  100   -6.5  16    0     984.0    NA       0.0000   9999     0     0     0    
2019/09/29  10:18:00  BASE  0.92316  30   1.39356  24   -6.5  100   -6.5  16    0     984.0    NA       0.0000   9999     0     0     0    
2019/09/29  10:19:00  BASE  1.15836  31   1.51116  17   -6.5  100   -6.5  17    0     984.0    NA       0.0000   9999     0     0     0    
2019/09/29  10:20:00  BASE  1.33476  28   1.51116  17   -6.5  100   -6.5  17    0     984.0    NA       0.0000   9999     0     0     0    
2019/09/29  10:21:00  BASE  1.2936   31   1.51116  17   -6.5  100   -6.5  17    0     984.0    NA       0.0000   9999     0     0     0    
2019/09/29  10:22:00  BASE  1.34064  38   1.51116  40   -6.5  100   -6.5  18    0     984.0    NA       0.0000   9999     0     0     0    
2019/09/29  10:23:00  BASE  1.41708  38   1.51116  40   -6.5  100   -6.5  18    0     984.0    NA       0.0000   9999     0     0     0    
2019/09/29  10:24:00  BASE  1.31712  36   1.51116  40   -6.5  100   -6.5  24    0     984.0    NA       0.0000   9999     0     0     0    
2019/09/29  10:25:00  BASE  1.28184  37   1.51116  40   -6.5  100   -6.5  35    0     984.0    NA       0.0000   9999     0     0     0    
2019/09/29  10:26:00  BASE  1.25244  34   1.60524  25   -6.5  100   -6.5  48    0     984.0    NA       0.0000   9999     0     0     0    
2019/09/29  10:27:00  BASE  1.21128  32   1.60524  25   -6.5  100   -6.5  57    0     984.0    NA       0.0000   9999     0     0     0    
2019/09/29  10:28:00  BASE  1.28772  35   1.60524  25   -6.5  100   -6.5  60    0     984.0    NA       0.0000   9999     0     0     0    
2019/09/29  10:29:00  BASE  1.30536  37   1.66404  44   -6.5  100   -6.5  62    0     984.0    NA       0.0000   9999     0     0     0    
2019/09/29  10:30:00  BASE  1.29948  39   1.66404  44   -6.5  100   -6.5  64    0     984.0    NA       0.0000   9999     0     0     0    
2019/09/29  10:31:00  BASE  1.34064  42   1.66404  44   -6.5  100   -6.5  66    0     984.1    NA       0.0000   9999     0     0     0    
2019/09/29  10:32:00  BASE  1.31124  48   1.66404  44   -6.5  100   -6.5  67    0     984.1    NA       0.0000   9999     0     0     0    
2019/09/29  10:33:00  BASE  1.14072  51   1.66404  44   -6.4  100   -6.4  69    0     984.1    NA       0.0000   9999     0     0     0    
2019/09/29  10:34:00  BASE  1.05252  45   1.66404  44   -6.3  100   -6.3  71    0     984.1    NA       0.0000   9999     0     0     0    
2019/09/29  10:35:00  BASE  1.05252  39   1.66404  44   -6.3  100   -6.3  73    0     984.1    NA       0.0000   9999     0     0     0    
2019/09/29  10:36:00  BASE  0.93492  37   1.66404  44   -6.2  100   -6.2  75    0     984.1    NA       0.0000   9999     0     0     0    
2019/09/29  10:37:00  BASE  0.7644   32   1.66404  44   -6.2  100   -6.2  77    0     984.1    NA       0.0000   9999     0     0     0    
2019/09/29  10:38:00  BASE  0.87024  26   1.66404  44   -6.2  100   -6.2  79    0     984.1    NA       0.0000   9999     0     0     0    
2019/09/29  10:39:00  BASE  1.1172   24   1.54056  43   -6.2  100   -6.2  81    0     984.1    NA       0.0000   9999     0     0     0    
2019/09/29  10:40:00  BASE  1.18188  23   1.54056  43   -6.3  100   -6.3  83    0     984.0    NA       0.0000   9999     0     0     0    
2019/09/29  10:41:00  BASE  1.25244  29   1.48176  37   -6.3  100   -6.3  85    0     984.0    NA       0.0000   9999     0     0     0    
2019/09/29  10:42:00  BASE  1.31124  38   1.48176  37   -6.3  100   -6.3  87    0     984.1    NA       0.0000   9999     0     0     0    
2019/09/29  10:43:00  BASE  1.3524   40   1.51116  42   -6.4  100   -6.4  90    0     984.1    NA       0.0000   9999     0     0     0    
2019/09/29  10:44:00  BASE  1.54056  37   1.75224  34   -6.4  100   -6.4  92    0     984.1    NA       0.0000   9999     0     0     0    
2019/09/29  10:45:00  BASE  1.74048  33   1.87572  35   -6.4  100   -6.4  94    0     984.1    NA       0.0000   9999     0     0     0    
2019/09/29  10:46:00  BASE  1.79928  34   1.90512  33   -6.5  100   -6.5  96    0     984.1    NA       0.0000   9999     0     0     0    
2019/09/29  10:47:00  BASE  1.74048  38   1.90512  33   -6.5  100   -6.5  98    0     984.1    NA       0.0000   9999     0     0     0    
2019/09/29  10:48:00  BASE  1.75224  45   1.90512  33   -6.5  100   -6.5  101   0     984.1    NA       0.0000   9999     0     0     0    
2019/09/29  10:49:00  BASE  1.69344  51   1.90512  33   -6.5  100   -6.5  103   0     984.1    NA       0.0000   9999     0     0     0    
2019/09/29  10:50:00  BASE  1.29948  58   1.90512  33   -6.4  100   -6.4  105   0     984.1    NA       0.0000   9999     0     0     0    
2019/09/29  10:51:00  BASE  1.09368  56   1.90512  33   -6.4  100   -6.4  107   0     984.1    NA       0.0000   9999     0     0     0    
2019/09/29  10:52:00  BASE  1.02312  45   1.90512  33   -6.3  100   -6.3  109   0     984.1    NA       0.0000   9999     0     0     0    
2019/09/29  10:53:00  BASE  0.9702   36   1.90512  33   -6.2  100   -6.2  111   0     984.1    NA       0.0000   9999     0     0     0    
2019/09/29  10:54:00  BASE  1.25244  29   1.90512  33   -6.2  100   -6.2  114   0     984.1    NA       0.0000   9999     0     0     0    
2019/09/29  10:55:00  BASE  1.42296  22   1.90512  33   -6.2  100   -6.2  116   0     984.1    NA       0.0000   9999     0     0     0    
2019/09/29  10:56:00  BASE  1.34064  24   1.87572  49   -6.2  100   -6.2  118   0     984.1    NA       0.0000   9999     0     0     0    
2019/09/29  10:57:00  BASE  1.1466   28   1.87572  49   -6.1  100   -6.1  120   0     984.2    NA       0.0000   9999     0     0     0    
2019/09/29  10:58:00  BASE  0.97608  29   1.84632  48   -6.1  100   -6.1  122   0     984.2    NA       0.0000   9999     0     0     0    
2019/09/29  10:59:00  BASE  0.72912  21   1.57584  21   -6.1  100   -6.1  124   0     984.2    NA       0.0000   9999     0     0     0    
2019/09/29  11:00:00  BASE  0.4116   15   1.57584  21   -6.0  100   -6.0  127   0     984.2    NA       0.0000   9999     0     0     0    
2019/09/29  11:01:00  BASE  0.6468   28   1.57584  21   -6.0  100   -6.0  128   0     984.2    NA       0.0000   9999     0     0     0    
2019/09/29  11:02:00  BASE  1.09956  34   1.57584  21   -6.1  100   -6.1  130   0     984.2    NA       0.0000   9999     0     0     0    
2019/09/29  11:03:00  BASE  1.30536  28   1.57584  21   -6.1  100   -6.1  132   0     984.2    NA       0.0000   9999     0     0     0    
2019/09/29  11:04:00  BASE  1.3524   28   1.57584  21   -6.2  100   -6.2  134   0     984.2    NA       0.0000   9999     0     0     0    
2019/09/29  11:05:00  BASE  0.94668  23   1.51116  19   -6.2  100   -6.2  136   0     984.2    NA       0.0000   9999     0     0     0    
2019/09/29  11:06:00  BASE  0.77028  19   1.51116  19   -6.2  100   -6.2  138   0     984.2    NA       0.0000   9999     0     0     0    
2019/09/29  11:07:00  BASE  0.89376  27   1.51116  19   -6.3  100   -6.3  140   0     984.2    NA       0.0000   9999     0     0     0    
2019/09/29  11:08:00  BASE  0.84672  31   1.51116  19   -6.2  100   -6.2  141   0     984.3    NA       0.0000   9999     0     0     0    
2019/09/29  11:09:00  BASE  0.91728  25   1.51116  19   -6.2  100   -6.2  143   0     984.3    NA       0.0000   9999     0     0     0    
2019/09/29  11:10:00  BASE  0.9996   17   1.51116  19   -6.2  100   -6.2  145   0     984.3    NA       0.0000   9999     0     0     0    
2019/09/29  11:11:00  BASE  1.11132  15   1.51116  19   -6.1  100   -6.1  146   0     984.3    NA       0.0000   9999     0     0     0    
2019/09/29  11:12:00  BASE  1.2054   17   1.51116  19   -6.1  100   -6.1  148   0     984.4    NA       0.0000   9999     0     0     0    
2019/09/29  11:13:00  BASE  1.323    22   1.54056  28   -6.2  100   -6.2  150   0     984.5    NA       0.0000   9999     0     0     0    
2019/09/29  11:14:00  BASE  1.48176  29   1.63464  40   -6.2  100   -6.2  152   0     984.5    NA       0.0000   9999     0     0     0    
2019/09/29  11:15:00  BASE  1.54056  34   1.75224  33   -6.3  100   -6.3  153   0     984.5    NA       0.0000   9999     0     0     0    
2019/09/29  11:16:00  BASE  1.44648  28   1.75224  33   -6.3  100   -6.3  155   0     984.6    NA       0.0000   9999     0     0     0    
2019/09/29  11:17:00  BASE  1.2054   17   1.75224  33   -6.4  100   -6.4  156   0     984.6    NA       0.0000   9999     0     0     0    
2019/09/29  11:18:00  BASE  0.98784  9    1.75224  33   -6.4  100   -6.4  158   0     984.6    NA       0.0000   9999     0     0     0    
2019/09/29  11:19:00  BASE  0.89376  10   1.75224  33   -6.4  100   -6.4  160   0     984.6    NA       0.0000   9999     0     0     0    
2019/09/29  11:20:00  BASE  0.98196  20   1.75224  33   -6.4  100   -6.4  162   0     984.6    NA       0.0000   9999     0     0     0    
2019/09/29  11:21:00  BASE  1.17012  29   1.75224  33   -6.4  100   -6.4  164   0     984.6    NA       0.0000   9999     0     0     0    
2019/09/29  11:22:00  BASE  1.39944  30   1.75224  33   -6.4  100   -6.4  166   0     984.6    NA       0.0000   9999     0     0     0    
2019/09/29  11:23:00  BASE  1.54644  28   1.75224  33   -6.5  100   -6.5  168   0     984.6    NA       0.0000   9999     0     0     0    
2019/09/29  11:24:00  BASE  1.55232  25   1.75224  33   -6.5  100   -6.5  170   0     984.6    NA       0.0000   9999     0     0     0    
2019/09/29  11:25:00  BASE  1.6464   24   1.87572  24   -6.4  100   -6.4  171   0     984.6    NA       0.0000   9999     0     0     0    
2019/09/29  11:26:00  BASE  1.764    25   1.87572  26   -6.4  100   -6.4  173   0     984.6    NA       0.0000   9999     0     0     0    
2019/09/29  11:27:00  BASE  1.74636  30   1.87572  26   -6.4  100   -6.4  175   0     984.6    NA       0.0000   9999     0     0     0    
2019/09/29  11:28:00  BASE  1.74048  35   1.87572  30   -6.4  100   -6.4  177   0     984.5    NA       0.0000   9999     0     0     0    
2019/09/29  11:29:00  BASE  1.7346   36   1.87572  30   -6.4  100   -6.4  179   0     984.5    NA       0.0000   9999     0     0     0    
2019/09/29  11:30:00  BASE  1.64052  37   1.87572  30   -6.4  100   -6.4  181   0     984.5    NA       0.0000   9999     0     0     0    
2019/09/29  11:31:00  BASE  1.63464  33   1.87572  30   -6.4  100   -6.4  183   0     984.5    NA       0.0000   9999     0     0     0    
2019/09/29  11:32:00  BASE  1.60524  26   1.87572  30   -6.4  100   -6.4  185   0     984.5    NA       0.0000   9999     0     0     0    
2019/09/29  11:33:00  BASE  1.48176  25   1.87572  30   -6.4  100   -6.4  187   0     984.6    NA       0.0000   9999     0     0     0    
2019/09/29  11:34:00  BASE  1.37592  28   1.87572  30   -6.3  100   -6.3  188   0     984.6    NA       0.0000   9999     0     0     0    
2019/09/29  11:35:00  BASE  1.323    27   1.87572  30   -6.3  100   -6.3  190   0     984.6    NA       0.0000   9999     0     0     0    
2019/09/29  11:36:00  BASE  1.323    24   1.87572  30   -6.3  100   -6.3  192   0     984.5    NA       0.0000   9999     0     0     0    
2019/09/29  11:37:00  BASE  1.32888  28   1.87572  30   -6.3  100   -6.3  194   0     984.5    NA       0.0000   9999     0     0     0    
2019/09/29  11:38:00  BASE  1.31712  33   1.81692  20   -6.3  100   -6.3  196   0     984.5    NA       0.0000   9999     0     0     0    
2019/09/29  11:39:00  BASE  1.24068  37   1.81692  20   -6.3  100   -6.3  198   0     984.5    NA       0.0000   9999     0     0     0    
2019/09/29  11:40:00  BASE  0.95844  42   1.81692  20   -6.2  100   -6.2  200   0     984.6    NA       0.0000   9999     0     0     0    
2019/09/29  11:41:00  BASE  0.36456  40   1.72284  24   -6.2  100   -6.2  201   0     984.6    NA       0.0000   9999     0     0     0    
2019/09/29  11:42:00  BASE  0        36   1.66404  22   -6.1  100   -6.1  203   0     984.6    NA       0.0000   9999     0     0     0    
2019/09/29  11:43:00  BASE  0        3    1.57584  25   -6.1  100   -6.1  205   0     984.7    NA       0.0000   9999     0     0     0    
2019/09/29  11:44:00  BASE  0        284  1.45236  27   -6.0  100   -6.0  206   0     984.7    NA       0.0000   9999     0     0     0    
2019/09/29  11:45:00  BASE  0        140  1.45236  27   -6.0  100   -6.0  208   0     984.7    NA       0.0000   9999     0     0     0    
2019/09/29  11:46:00  BASE  0        79   1.45236  27   -6.0  100   -6.0  210   0     984.7    NA       0.0000   9999     0     0     0    
2019/09/29  11:47:00  BASE  0        38   1.35828  37   -6.0  100   -6.0  212   0     984.7    NA       0.0000   9999     0     0     0    
2019/09/29  11:48:00  BASE  0        33   1.35828  37   -6.0  100   -6.0  214   0     984.7    NA       0.0000   9999     0     0     0    
2019/09/29  11:49:00  BASE  0        13   1.029    41   -6.0  100   -6.0  216   0     984.7    NA       0.0000   9999     0     0     0    
2019/09/29  11:50:00  BASE  0.13524  5    0.75852  30   -6.0  100   -6.0  218   0     984.7    NA       0.0000   9999     0     0     0    
2019/09/29  11:51:00  BASE  0.28812  22   0.81732  36   -5.9  100   -5.9  220   0     984.7    NA       0.0000   9999     0     0     0    
2019/09/29  11:52:00  BASE  0.59388  28   0.9702   26   -5.9  100   -5.9  222   0     984.7    NA       0.0000   9999     0     0     0    
2019/09/29  11:53:00  BASE  0.91728  27   1.21128  27   -5.8  100   -5.8  223   0     984.7    NA       0.0000   9999     0     0     0    
2019/09/29  11:54:00  BASE  1.03488  33   1.27008  44   -5.8  100   -5.8  225   0     984.6    NA       0.0000   9999     0     0     0    
2019/09/29  11:55:00  BASE  1.0584   36   1.32888  25   -5.8  100   -5.8  227   0     984.6    NA       0.0000   9999     0     0     0    
2019/09/29  11:56:00  BASE  0.97608  32   1.32888  25   -5.8  100   -5.8  229   0     984.6    NA       0.0000   9999     0     0     0    
2019/09/29  11:57:00  BASE  0.85848  42   1.32888  25   -5.8  100   -5.8  231   0     984.6    NA       0.0000   9999     0     0     0    
2019/09/29  11:58:00  BASE  0.92316  48   1.35828  42   -5.8  100   -5.8  233   0     984.6    NA       0.0000   9999     0     0     0    
2019/09/29  11:59:00  BASE  0.97608  43   1.35828  42   -5.8  100   -5.8  235   0     984.6    NA       0.0000   9999     0     0     0    
2019/09/29  12:00:00  BASE  1.2642   51   1.81692  54   -5.9  100   -5.9  236   0     984.6    NA       0.0000   9999     0     0     0    
2019/09/29  12:01:00  BASE  1.66404  56   1.81692  54   -5.9  100   -5.9  238   0     984.6    NA       0.0000   9999     0     0     0    
2019/09/29  12:02:00  BASE  1.61112  53   1.81692  54   -5.9  100   -5.9  240   0     984.6    NA       0.0000   9999     0     0     0    
2019/09/29  12:03:00  BASE  1.56996  49   1.81692  54   -6.0  100   -6.0  242   0     984.6    NA       0.0000   9999     0     0     0    
2019/09/29  12:04:00  BASE  1.3818   44   1.81692  54   -6.0  100   -6.0  244   0     984.6    NA       0.0000   9999     0     0     0    
2019/09/29  12:05:00  BASE  1.15836  45   1.81692  54   -6.0  100   -6.0  246   0     984.6    NA       0.0000   9999     0     0     0    
2019/09/29  12:06:00  BASE  1.21128  49   1.81692  54   -6.0  100   -6.0  247   0     984.6    NA       0.0000   9999     0     0     0    
2019/09/29  12:07:00  BASE  1.31124  53   1.81692  54   -6.0  100   -6.0  249   0     984.6    NA       0.0000   9999     0     0     0    
2019/09/29  12:08:00  BASE  1.3524   51   1.81692  54   -6.0  100   -6.0  251   0     984.6    NA       0.0000   9999     0     0     0    
2019/09/29  12:09:00  BASE  1.2642   52   1.81692  54   -5.9  100   -5.9  253   0     984.6    NA       0.0000   9999     0     0     0    
2019/09/29  12:10:00  BASE  1.18776  55   1.75224  53   -5.9  100   -5.9  255   0     984.6    NA       0.0000   9999     0     0     0    
2019/09/29  12:11:00  BASE  1.18188  59   1.66404  45   -5.9  100   -5.9  257   0     984.6    NA       0.0000   9999     0     0     0    
2019/09/29  12:12:00  BASE  0.95844  57   1.66404  45   -5.8  100   -5.8  259   0     984.6    NA       0.0000   9999     0     0     0    
2019/09/29  12:13:00  BASE  0.8232   52   1.48176  52   -5.9  100   -5.9  261   0     984.6    NA       0.0000   9999     0     0     0    
2019/09/29  12:14:00  BASE  0.882    52   1.48176  52   -5.9  100   -5.9  263   0     984.6    NA       0.0000   9999     0     0     0    
2019/09/29  12:15:00  BASE  0.69972  60   1.48176  52   -5.9  100   -5.9  264   0     984.6    NA       0.0000   9999     0     0     0    
2019/09/29  12:16:00  BASE  0.32928  72   1.48176  52   -5.8  100   -5.9  266   0     984.6    NA       0.0000   9999     0     0     0    
2019/09/29  12:17:00  BASE  0.37632  69   1.48176  52   -5.8  100   -5.8  268   0     984.6    NA       0.0000   9999     0     0     0    
2019/09/29  12:18:00  BASE  0.75852  56   1.32888  52   -5.6  100   -5.7  270   0     984.6    NA       0.0000   9999     0     0     0    
2019/09/29  12:19:00  BASE  0.89376  57   1.32888  52   -5.5  100   -5.5  272   0     984.6    NA       0.0000   9999     0     0     0    
2019/09/29  12:20:00  BASE  0.77028  69   1.32888  52   -5.4  100   -5.4  274   0     984.6    NA       0.0000   9999     0     0     0    
2019/09/29  12:21:00  BASE  0.57624  75   1.32888  52   -5.4  100   -5.4  275   0     984.6    NA       0.0000   9999     0     0     0    
2019/09/29  12:22:00  BASE  0.6174   68   1.32888  52   -5.4  100   -5.4  277   0     984.6    NA       0.0000   9999     0     0     0    
2019/09/29  12:23:00  BASE  0.9996   63   1.32888  52   -5.4  99    -5.5  279   0     984.6    NA       0.0000   9999     0     0     0    
2019/09/29  12:24:00  BASE  1.2348   66   1.29948  65   -5.4  99    -5.5  281   0     984.6    NA       0.0000   9999     0     0     0    
2019/09/29  12:25:00  BASE  1.176    66   1.29948  65   -5.5  99    -5.6  282   0     984.6    NA       0.0000   9999     0     0     0    
2019/09/29  12:26:00  BASE  1.19364  66   1.35828  69   -5.5  99    -5.6  284   0     984.6    NA       0.0000   9999     0     0     0    
2019/09/29  12:27:00  BASE  1.2348   66   1.39356  66   -5.5  99    -5.6  286   0     984.7    NA       0.0000   9999     0     0     0    
2019/09/29  12:28:00  BASE  1.22892  65   1.39356  66   -5.5  99    -5.6  288   0     984.7    NA       0.0000   9999     0     0     0    
2019/09/29  12:29:00  BASE  1.21716  68   1.48176  70   -5.5  99    -5.6  290   0     984.7    NA       0.0000   9999     0     0     0    
2019/09/29  12:30:00  BASE  1.25832  69   1.54056  69   -5.5  99    -5.6  292   0     984.7    NA       0.0000   9999     0     0     0    
2019/09/29  12:31:00  BASE  1.45824  66   1.72284  56   -5.5  99    -5.6  294   0     984.7    NA       0.0000   9999     0     0     0    
2019/09/29  12:32:00  BASE  1.55232  61   1.72284  56   -5.5  99    -5.7  296   0     984.7    NA       0.0000   9999     0     0     0    
2019/09/29  12:33:00  BASE  1.43472  57   1.72284  56   -5.5  99    -5.7  297   0     984.7    NA       0.0000   9999     0     0     0    
2019/09/29  12:34:00  BASE  1.323    54   1.72284  56   -5.6  98    -5.8  299   0     984.8    NA       0.0000   9999     0     0     0    
2019/09/29  12:35:00  BASE  1.1466   57   1.72284  56   -5.6  98    -5.8  301   0     984.8    NA       0.0000   9999     0     0     0    
2019/09/29  12:36:00  BASE  0.92316  58   1.72284  56   -5.6  98    -5.9  302   0     984.8    NA       0.0000   9999     0     0     0    
2019/09/29  12:37:00  BASE  0.57624  58   1.72284  56   -5.6  98    -5.8  304   0     984.9    NA       0.0000   9999     0     0     0    
2019/09/29  12:38:00  BASE  0.15876  59   1.72284  56   -5.6  98    -5.8  306   0     984.9    NA       0.0000   9999     0     0     0    
2019/09/29  12:39:00  BASE  0        57   1.72284  56   -5.6  98    -5.8  308   0     984.9    NA       0.0000   9999     0     0     0    
2019/09/29  12:40:00  BASE  0        54   1.72284  56   -5.5  98    -5.8  309   0     984.9    NA       0.0000   9999     0     0     0    
2019/09/29  12:41:00  BASE  0        53   1.54056  59   -5.5  98    -5.8  311   0     984.9    NA       0.0000   9999     0     0     0    
2019/09/29  12:42:00  BASE  0.05292  49   1.48176  56   -5.5  98    -5.8  313   0     984.9    NA       0.0000   9999     0     0     0    
2019/09/29  12:43:00  BASE  0.31752  48   1.48176  56   -5.5  98    -5.8  315   0     984.9    NA       0.0000   9999     0     0     0    
2019/09/29  12:44:00  BASE  0.68208  44   1.21128  55   -5.5  98    -5.8  316   0     984.9    NA       0.0000   9999     0     0     0    
2019/09/29  12:45:00  BASE  0.84672  41   0.90552  42   -5.5  98    -5.8  318   0     984.9    NA       0.0000   9999     0     0     0    
2019/09/29  12:46:00  BASE  0.92904  43   1.21128  60   -5.5  98    -5.8  320   0     984.9    NA       0.0000   9999     0     0     0    
2019/09/29  12:47:00  BASE  0.9996   49   1.21128  60   -5.5  97    -5.8  322   0     984.9    NA       0.0000   9999     0     0     0    
2019/09/29  12:48:00  BASE  1.05252  53   1.21128  54   -5.5  97    -5.9  323   0     984.9    NA       0.0000   9999     0     0     0    
2019/09/29  12:49:00  BASE  1.15836  55   1.29948  57   -5.5  97    -5.9  325   0     984.9    NA       0.0000   9999     0     0     0    
2019/09/29  12:50:00  BASE  1.2054   58   1.42296  61   -5.4  97    -5.8  326   0     984.9    NA       0.0000   9999     0     0     0    
2019/09/29  12:51:00  BASE  1.09956  61   1.42296  61   -5.4  97    -5.8  328   0     984.9    NA       0.0000   9999     0     0     0    
2019/09/29  12:52:00  BASE  0.92904  56   1.42296  61   -5.3  97    -5.8  330   0     984.9    NA       0.0000   9999     0     0     0    
2019/09/29  12:53:00  BASE  0.87024  55   1.42296  61   -5.3  97    -5.7  332   0     985.0    NA       0.0000   9999     0     0     0    
2019/09/29  12:54:00  BASE  0.92904  58   1.42296  61   -5.3  97    -5.7  333   0     985.1    NA       0.0000   9999     0     0     0    
2019/09/29  12:55:00  BASE  0.9408   53   1.42296  61   -5.3  97    -5.8  335   0     985.1    NA       0.0000   9999     0     0     0    
2019/09/29  12:56:00  BASE  0.72912  50   1.42296  61   -5.3  96    -5.8  337   0     985.1    NA       0.0000   9999     0     0     0    
2019/09/29  12:57:00  BASE  0.55272  46   1.42296  61   -5.3  96    -5.8  338   0     985.1    NA       0.0000   9999     0     0     0    
2019/09/29  12:58:00  BASE  0.59976  35   1.42296  61   -5.3  96    -5.8  339   0     985.1    NA       0.0000   9999     0     0     0    
2019/09/29  12:59:00  BASE  0.75852  26   1.42296  61   -5.3  96    -5.9  341   0     985.0    NA       0.0000   9999     0     0     0    
2019/09/29  13:00:00  BASE  0.7644   21   1.0878   59   -5.3  96    -5.9  343   0     985.0    NA       0.0000   9999     0     0     0    
2019/09/29  13:01:00  BASE  0.35868  23   1.0878   59   -5.4  96    -5.9  344   0     984.9    NA       0.0000   9999     0     0     0    
2019/09/29  13:02:00  BASE  0.10584  26   1.0878   59   -5.4  96    -5.9  346   0     985.0    NA       0.0000   9999     0     0     0    
2019/09/29  13:03:00  BASE  0.18816  32   1.0878   59   -5.4  96    -6.0  348   0     985.1    NA       0.0000   9999     0     0     0    
2019/09/29  13:04:00  BASE  0.441    38   1.0878   59   -5.3  95    -6.0  349   0     985.1    NA       0.0000   9999     0     0     0    
2019/09/29  13:05:00  BASE  0.72912  41   1.029    19   -5.3  95    -6.0  351   0     985.1    NA       0.0000   9999     0     0     0    
2019/09/29  13:06:00  BASE  0.87612  42   1.029    36   -5.3  95    -6.0  353   0     985.1    NA       0.0000   9999     0     0     0    
2019/09/29  13:07:00  BASE  0.95844  43   1.029    45   -5.3  95    -5.9  354   0     985.1    NA       0.0000   9999     0     0     0    
2019/09/29  13:08:00  BASE  0.92904  49   1.029    45   -5.3  95    -5.9  355   0     985.1    NA       0.0000   9999     0     0     0    
2019/09/29  13:09:00  BASE  0.84672  49   1.029    45   -5.3  95    -5.9  357   0     985.2    NA       0.0000   9999     0     0     0    
2019/09/29  13:10:00  BASE  0.735    40   1.029    45   -5.3  95    -6.0  359   0     985.1    NA       0.0000   9999     0     0     0    
2019/09/29  13:11:00  BASE  0.33516  31   1.029    45   -5.3  95    -6.0  360   0     985.1    NA       0.0000   9999     0     0     0    
2019/09/29  13:12:00  BASE  0.2352   28   1.029    45   -5.3  95    -6.0  362   0     985.1    NA       0.0000   9999     0     0     0    
2019/09/29  13:13:00  BASE  0.6762   28   1.029    45   -5.3  95    -6.0  364   0     985.1    NA       0.0000   9999     0     0     0    
2019/09/29  13:14:00  BASE  0.97608  28   1.21128  31   -5.3  95    -6.0  366   0     985.1    NA       0.0000   9999     0     0     0    
2019/09/29  13:15:00  BASE  0.99372  35   1.21128  31   -5.4  95    -6.0  367   0     985.1    NA       0.0000   9999     0     0     0    
2019/09/29  13:16:00  BASE  0.9114   36   1.21128  31   -5.4  95    -6.0  368   0     985.1    NA       0.0000   9999     0     0     0    
2019/09/29  13:17:00  BASE  0.65856  23   1.21128  31   -5.4  96    -6.0  370   0     985.2    NA       0.0000   9999     0     0     0    
2019/09/29  13:18:00  BASE  0.19992  3    1.21128  31   -5.4  96    -6.0  371   0     985.2    NA       0.0000   9999     0     0     0    
2019/09/29  13:19:00  BASE  0        352  1.21128  31   -5.4  96    -6.0  372   0     985.2    NA       0.0000   9999     0     0     0    
2019/09/29  13:20:00  BASE  0.0294   350  1.21128  31   -5.4  96    -6.0  373   0     985.2    NA       0.0000   9999     0     0     0    
2019/09/29  13:21:00  BASE  0.18228  350  1.21128  31   -5.5  96    -6.0  375   0     985.2    NA       0.0000   9999     0     0     0    
2019/09/29  13:22:00  BASE  0.5292   355  1.21128  31   -5.5  96    -6.1  376   0     985.2    NA       0.0000   9999     0     0     0    
2019/09/29  13:23:00  BASE  0.84672  360  1.21128  31   -5.6  96    -6.1  378   0     985.3    NA       0.0000   9999     0     0     0    
2019/09/29  13:24:00  BASE  0.98196  8    1.0878   20   -5.6  96    -6.0  380   0     985.3    NA       0.0000   9999     0     0     0    
2019/09/29  13:25:00  BASE  1.07604  19   1.21128  26   -5.6  97    -6.0  382   0     985.3    NA       0.0000   9999     0     0     0    
2019/09/29  13:26:00  BASE  1.1466   25   1.21128  26   -5.5  97    -6.0  384   0     985.3    NA       0.0000   9999     0     0     0    
2019/09/29  13:27:00  BASE  1.12896  23   1.21128  26   -5.5  97    -5.9  385   0     985.3    NA       0.0000   9999     0     0     0    
2019/09/29  13:28:00  BASE  0.99372  19   1.21128  26   -5.5  97    -5.9  388   0     985.3    NA       0.0000   9999     0     0     0    
2019/09/29  13:29:00  BASE  0.84672  15   1.21128  26   -5.5  97    -5.9  389   0     985.3    NA       0.0000   9999     0     0     0    
2019/09/29  13:30:00  BASE  0.79968  14   1.21128  26   -5.5  98    -5.8  391   0     985.2    NA       0.0000   9999     0     0     0    
2019/09/29  13:31:00  BASE  0.86436  14   1.21128  26   -5.5  98    -5.8  392   0     985.2    NA       0.0000   9999     0     0     0    
2019/09/29  13:32:00  BASE  0.95844  15   1.21128  26   -5.5  98    -5.8  393   0     985.2    NA       0.0000   9999     0     0     0    
2019/09/29  13:33:00  BASE  0.91728  18   1.21128  26   -5.5  98    -5.7  394   0     985.2    NA       0.0000   9999     0     0     0    
2019/09/29  13:34:00  BASE  0.94668  23   1.21128  26   -5.5  98    -5.7  395   0     985.2    NA       0.0000   9999     0     0     0    
2019/09/29  13:35:00  BASE  1.0878   28   1.24068  29   -5.5  99    -5.7  397   0     985.2    NA       0.0000   9999     0     0     0    
2019/09/29  13:36:00  BASE  1.19364  30   1.29948  37   -5.5  99    -5.6  398   0     985.2    NA       0.0000   9999     0     0     0    
2019/09/29  13:37:00  BASE  1.2936   33   1.42296  37   -5.5  99    -5.6  399   0     985.2    NA       0.0000   9999     0     0     0    
2019/09/29  13:38:00  BASE  1.42884  31   1.57584  29   -5.5  99    -5.6  401   0     985.2    NA       0.0000   9999     0     0     0    
2019/09/29  13:39:00  BASE  1.57584  28   1.72284  26   -5.5  99    -5.6  402   0     985.1    NA       0.0000   9999     0     0     0    
2019/09/29  13:40:00  BASE  1.66404  25   1.75224  15   -5.5  99    -5.6  403   0     985.1    NA       0.0000   9999     0     0     0    
2019/09/29  13:41:00  BASE  1.74048  25   1.9992   26   -5.5  99    -5.6  404   0     985.1    NA       0.0000   9999     0     0     0    
2019/09/29  13:42:00  BASE  1.90512  26   2.0874   27   -5.5  99    -5.7  406   0     985.1    NA       0.0000   9999     0     0     0    
2019/09/29  13:43:00  BASE  2.0286   26   2.1462   26   -5.5  99    -5.7  407   0     985.1    NA       0.0000   9999     0     0     0    
2019/09/29  13:44:00  BASE  1.99332  27   2.1462   26   -5.6  99    -5.7  408   0     985.1    NA       0.0000   9999     0     0     0    
2019/09/29  13:45:00  BASE  1.89336  31   2.1462   26   -5.6  99    -5.7  410   0     985.1    NA       0.0000   9999     0     0     0    
2019/09/29  13:46:00  BASE  1.66404  27   2.1462   26   -5.6  99    -5.7  411   0     985.1    NA       0.0000   9999     0     0     0    
2019/09/29  13:47:00  BASE  1.37004  19   2.1462   26   -5.6  99    -5.7  412   0     985.1    NA       0.0000   9999     0     0     0    
2019/09/29  13:48:00  BASE  1.19364  15   2.1462   26   -5.6  99    -5.8  413   0     985.2    NA       0.0000   9999     0     0     0    
2019/09/29  13:49:00  BASE  1.25244  13   2.1462   26   -5.6  99    -5.8  414   0     985.2    NA       0.0000   9999     0     0     0    
2019/09/29  13:50:00  BASE  1.41708  12   2.1462   26   -5.6  99    -5.8  416   0     985.2    NA       0.0000   9999     0     0     0    
2019/09/29  13:51:00  BASE  1.45236  11   2.1462   26   -5.6  99    -5.7  417   0     985.2    NA       0.0000   9999     0     0     0    
2019/09/29  13:52:00  BASE  1.45824  11   2.1462   26   -5.6  99    -5.7  419   0     985.2    NA       0.0000   9999     0     0     0    
2019/09/29  13:53:00  BASE  1.4994   10   2.0874   34   -5.6  99    -5.7  420   0     985.2    NA       0.0000   9999     0     0     0    
2019/09/29  13:54:00  BASE  1.46412  12   2.058    35   -5.6  99    -5.7  421   0     985.2    NA       0.0000   9999     0     0     0    
2019/09/29  13:55:00  BASE  1.39356  12   1.72284  5    -5.7  99    -5.8  423   0     985.2    NA       0.0000   9999     0     0     0    
2019/09/29  13:56:00  BASE  1.30536  9    1.72284  5    -5.7  99    -5.8  423   0     985.2    NA       0.0000   9999     0     0     0    
2019/09/29  13:57:00  BASE  1.2642   10   1.72284  5    -5.7  99    -5.9  425   0     985.2    NA       0.0000   9999     0     0     0    
2019/09/29  13:58:00  BASE  1.22892  10   1.72284  5    -5.8  99    -5.9  426   0     985.3    NA       0.0000   9999     0     0     0    
2019/09/29  13:59:00  BASE  1.01724  9    1.72284  5    -5.8  99    -5.9  427   0     985.3    NA       0.0000   9999     0     0     0    
2019/09/29  14:00:00  BASE  0.54096  358  1.72284  5    -5.8  99    -5.9  428   0     985.3    NA       0.0000   9999     0     0     0    
2019/09/29  14:01:00  BASE  0.11172  340  1.72284  5    -5.8  99    -5.9  430   0     985.3    NA       0.0000   9999     0     0     0    
2019/09/29  14:02:00  BASE  0        329  1.72284  5    -5.6  99    -5.7  431   0     985.3    NA       0.0000   9999     0     0     0    
2019/09/29  14:03:00  BASE  0.05292  316  1.60524  16   -5.5  99    -5.6  431   0     985.2    NA       0.0000   9999     0     0     0    
2019/09/29  14:04:00  BASE  0.11172  301  1.48176  4    -5.3  99    -5.4  433   0     985.2    NA       0.0000   9999     0     0     0    
2019/09/29  14:05:00  BASE  0.05292  304  1.42296  11   -5.2  99    -5.3  434   0     985.2    NA       0.0000   9999     0     0     0    
2019/09/29  14:06:00  BASE  0        304  1.42296  11   -5.2  99    -5.3  436   0     985.2    NA       0.0000   9999     0     0     0    
2019/09/29  14:07:00  BASE  0        294  1.27008  5    -5.2  99    -5.4  438   0     985.2    NA       0.0000   9999     0     0     0    
2019/09/29  14:08:00  BASE  0        286  0.9996   10   -5.3  98    -5.6  439   0     985.2    NA       0.0000   9999     0     0     0    
2019/09/29  14:09:00  BASE  0        284  0.72324  360  -5.4  98    -5.6  440   0     985.2    NA       0.0000   9999     0     0     0    
2019/09/29  14:10:00  BASE  0        285  0.69384  276  -5.3  98    -5.5  441   0     985.2    NA       0.0000   9999     0     0     0    
2019/09/29  14:11:00  BASE  0        287  0.69384  276  -5.2  99    -5.4  442   0     985.2    NA       0.0000   9999     0     0     0    
2019/09/29  14:12:00  BASE  0        287  0.69384  276  -5.1  99    -5.3  443   0     985.2    NA       0.0000   9999     0     0     0    
2019/09/29  14:13:00  BASE  0        287  0.63504  302  -5.1  98    -5.3  444   0     985.2    NA       0.0000   9999     0     0     0    
2019/09/29  14:14:00  BASE  0        287  0        M    -5.0  98    -5.3  446   0     985.2    NA       0.0000   9999     0     0     0    
2019/09/29  14:15:00  BASE  0        280  0        M    -5.0  98    -5.3  446   0     985.2    NA       0.0000   9999     0     0     0    
2019/09/29  14:16:00  BASE  0        254  0        M    -5.0  98    -5.2  448   0     985.2    NA       0.0000   9999     0     0     0    
2019/09/29  14:17:00  BASE  0        230  0        M    -5.0  98    -5.3  450   0     985.2    NA       0.0000   9999     0     0     0    
2019/09/29  14:18:00  BASE  0        234  0        M    -4.9  98    -5.2  451   0     985.2    NA       0.0000   9999     0     0     0    
2019/09/29  14:19:00  BASE  0        240  0        M    -5.0  98    -5.3  452   0     985.2    NA       0.0000   9999     0     0     0    
2019/09/29  14:20:00  BASE  0.1764   77   0.90552  68   -5.1  97    -5.5  453   0     985.2    NA       0.0000   9999     0     0     0    
2019/09/29  14:21:00  BASE  0.65856  62   1.029    60   -5.2  97    -5.6  454   0     985.2    NA       0.0000   9999     0     0     0    
2019/09/29  14:22:00  BASE  0.93492  58   1.0584   60   -5.3  97    -5.6  455   0     985.3    NA       0.0000   9999     0     0     0    
2019/09/29  14:23:00  BASE  0.92316  53   1.1172   58   -5.3  98    -5.6  455   0     985.3    NA       0.0000   9999     0     0     0    
2019/09/29  14:24:00  BASE  0.882    48   1.1172   58   -5.3  98    -5.6  456   0     985.3    NA       0.0000   9999     0     0     0    
2019/09/29  14:25:00  BASE  0.86436  42   1.1172   58   -5.3  98    -5.6  457   0     985.3    NA       0.0000   9999     0     0     0    
2019/09/29  14:26:00  BASE  0.90552  43   1.1172   37   -5.3  98    -5.5  458   0     985.3    NA       0.0000   9999     0     0     0    
2019/09/29  14:27:00  BASE  0.89964  44   1.1172   37   -5.3  98    -5.5  459   0     985.2    NA       0.0000   9999     0     0     0    
2019/09/29  14:28:00  BASE  0.86436  44   1.1172   37   -5.3  98    -5.5  460   0     985.2    NA       0.0000   9999     0     0     0    
2019/09/29  14:29:00  BASE  0.84084  43   1.1172   37   -5.2  98    -5.5  461   0     985.2    NA       0.0000   9999     0     0     0    
2019/09/29  14:30:00  BASE  0.71736  46   1.1172   37   -5.2  98    -5.5  462   0     985.2    NA       0.0000   9999     0     0     0    
2019/09/29  14:31:00  BASE  0.33516  65   1.1172   37   -5.2  98    -5.4  463   0     985.2    NA       0.0000   9999     0     0     0    
2019/09/29  14:32:00  BASE  0.07644  84   1.1172   37   -5.2  98    -5.4  464   0     985.2    NA       0.0000   9999     0     0     0    
2019/09/29  14:33:00  BASE  0.05292  105  1.1172   37   -5.2  99    -5.4  466   0     985.3    NA       0.0000   9999     0     0     0    
2019/09/29  14:34:00  BASE  0        139  1.1172   37   -5.2  99    -5.3  466   0     985.3    NA       0.0000   9999     0     0     0    
2019/09/29  14:35:00  BASE  0.17052  171  1.1172   37   -5.2  99    -5.3  467   0     985.3    NA       0.0000   9999     0     0     0    
2019/09/29  14:36:00  BASE  0.57036  183  1.029    40   -5.2  99    -5.3  467   0     985.4    NA       0.0000   9999     0     0     0    
2019/09/29  14:37:00  BASE  0.87024  186  1.029    183  -5.3  99    -5.5  468   0     985.4    NA       0.0000   9999     0     0     0    
2019/09/29  14:38:00  BASE  1.0584   191  1.24068  196  -5.4  99    -5.6  469   0     985.4    NA       0.0000   9999     0     0     0    
2019/09/29  14:39:00  BASE  1.13484  198  1.24068  196  -5.5  99    -5.6  470   0     985.4    NA       0.0000   9999     0     0     0    
2019/09/29  14:40:00  BASE  1.03488  207  1.24068  196  -5.5  99    -5.7  471   0     985.4    NA       0.0000   9999     0     0     0    
2019/09/29  14:41:00  BASE  0.95844  217  1.24068  196  -5.5  99    -5.6  472   0     985.4    NA       0.0000   9999     0     0     0    
2019/09/29  14:42:00  BASE  0.92316  224  1.24068  196  -5.5  100   -5.5  475   0     985.3    NA       0.0000   9999     0     0     0    
2019/09/29  14:43:00  BASE  0.81732  227  1.24068  196  -5.4  100   -5.4  484   0     985.4    NA       0.0000   9999     0     0     0    
2019/09/29  14:44:00  BASE  0.66444  226  1.24068  196  -5.3  100   -5.3  462   0     985.4    NA       0.0000   9999     890   0     0    
2019/09/29  14:45:00  BASE  0.33516  226  1.24068  196  -5.3  100   -5.3  379   0     985.4    NA       0.0000   9999     820   0     0    
2019/09/29  14:46:00  BASE  0.02352  226  1.24068  196  -5.2  100   -5.2  401   0     985.4    NA       0.0000   9999     820   0     0    
2019/09/29  14:47:00  BASE  0        227  1.24068  196  -5.2  100   -5.2  386   0     985.4    NA       0.0000   9999     820   0     0    
2019/09/29  14:48:00  BASE  0        239  1.18188  212  -5.2  100   -5.2  363   0     985.4    NA       0.0000   9999     820   0     0    
2019/09/29  14:49:00  BASE  0        261  1.18188  212  -5.1  100   -5.1  364   0     985.4    NA       0.0000   9999     850   0     0    
2019/09/29  14:50:00  BASE  0        274  1.029    228  -5.0  100   -5.0  398   0     985.4    NA       0.0000   9999     850   0     0    
2019/09/29  14:51:00  BASE  0        274  1.029    228  -5.0  100   -5.0  404   0     985.4    NA       0.0000   9999     890   0     0    
2019/09/29  14:52:00  BASE  0        257  0.87612  228  -5.0  100   -5.0  426   0     985.5    NA       0.0000   9999     920   0     0    
2019/09/29  14:53:00  BASE  0.05292  235  0.72324  227  -4.9  100   -4.9  420   0     985.5    NA       0.0000   9999     890   0     0    
2019/09/29  14:54:00  BASE  0.34104  236  0.90552  242  -5.0  100   -5.0  343   0     985.6    NA       0.0000   9999     850   0     0    
2019/09/29  14:55:00  BASE  0.72324  245  1.0584   263  -5.0  100   -5.0  402   0     985.6    NA       0.0000   9999     850   0     0    
2019/09/29  14:56:00  BASE  0.74088  253  1.0584   263  -5.1  100   -5.1  370   0     985.6    NA       0.0000   9999     920   0     0    
2019/09/29  14:57:00  BASE  0.3822   253  1.0584   263  -5.1  100   -5.1  331   0     985.6    NA       0.0000   9999     980   0     0    
2019/09/29  14:58:00  BASE  0.12936  250  1.0584   263  -5.1  100   -5.1  359   0     985.6    NA       0.0000   9999     980   0     0    
2019/09/29  14:59:00  BASE  0.05292  289  1.0584   263  -5.1  100   -5.1  360   0     985.6    NA       0.0000   9999     1050  0     0    
2019/09/29  15:00:00  BASE  0.2646   351  1.0584   263  -5.1  100   -5.1  381   0     985.6    NA       0.0000   9999     1050  0     0    
2019/09/29  15:01:00  BASE  0.86436  11   1.32888  19   -5.1  100   -5.1  328   0     985.6    NA       0.0000   9999     0     0     0    
2019/09/29  15:02:00  BASE  1.2348   12   1.42296  12   -5.1  100   -5.1  405   0     985.6    NA       0.0000   9999     0     0     0    
2019/09/29  15:03:00  BASE  1.21128  17   1.42296  12   -5.1  100   -5.1  534   0     985.6    NA       0.0000   9999     1050  0     0    
2019/09/29  15:04:00  BASE  1.17012  25   1.42296  12   -5.1  100   -5.1  427   0     985.6    NA       0.0000   9999     1020  0     0    
2019/09/29  15:05:00  BASE  1.24068  26   1.42296  12   -5.1  100   -5.1  568   0     985.6    NA       0.0000   9999     1080  0     0    
2019/09/29  15:06:00  BASE  1.3818   29   1.57584  29   -5.0  100   -5.0  360   0     985.6    NA       0.0000   9999     1080  0     0    
2019/09/29  15:07:00  BASE  1.47588  28   1.57584  29   -5.0  100   -5.0  373   0     985.6    NA       0.0000   9999     1080  0     0    
2019/09/29  15:08:00  BASE  1.40532  25   1.57584  29   -5.0  100   -5.0  409   0     985.6    NA       0.0000   9999     1080  0     0    
2019/09/29  15:09:00  BASE  1.27596  27   1.57584  29   -5.0  100   -5.0  360   0     985.6    NA       0.0000   9999     1180  0     0    
2019/09/29  15:10:00  BASE  1.11132  32   1.57584  29   -5.0  100   -5.0  363   0     985.6    NA       0.0000   9999     1210  0     0    
2019/09/29  15:11:00  BASE  1.01136  34   1.57584  29   -5.0  100   -5.0  348   0     985.7    NA       0.0000   9999     1250  0     0    
2019/09/29  15:12:00  BASE  1.21716  34   1.66404  36   -5.0  100   -5.0  392   0     985.7    NA       0.0000   9999     0     0     0    
2019/09/29  15:13:00  BASE  1.5288   35   1.87572  35   -5.0  100   -5.0  384   0     985.7    NA       0.0000   9999     0     0     0    
2019/09/29  15:14:00  BASE  1.7346   39   1.96392  43   -4.9  100   -4.9  495   0     985.7    NA       0.0000   9999     1280  0     0    
2019/09/29  15:15:00  BASE  1.75224  42   2.058    38   -4.9  100   -4.9  572   0     985.7    NA       0.0000   9999     0     0     0    
2019/09/29  15:16:00  BASE  1.57584  38   2.058    38   -4.9  100   -4.9  478   0     985.7    NA       0.0000   9999     0     0     0    
2019/09/29  15:17:00  BASE  1.59936  34   2.058    38   -4.8  100   -4.8  483   0     985.7    NA       0.0000   9999     0     0     0    
2019/09/29  15:18:00  BASE  1.78752  32   2.058    38   -4.8  100   -4.8  443   0     985.7    NA       0.0000   9999     1250  0     0    
2019/09/29  15:19:00  BASE  1.71108  30   2.058    38   -4.8  100   -4.8  459   0     985.7    NA       0.0000   9999     1250  0     0    
2019/09/29  15:20:00  BASE  1.56408  28   2.058    38   -4.8  100   -4.8  426   0     985.7    NA       0.0000   9999     1280  0     0    
2019/09/29  15:21:00  BASE  1.31712  36   2.058    38   -4.8  100   -4.8  535   0     985.7    NA       0.0000   9999     1210  0     0    
2019/09/29  15:22:00  BASE  0.93492  48   2.058    38   -4.8  100   -4.8  506   0     985.7    NA       0.0000   9999     1210  0     0    
2019/09/29  15:23:00  BASE  0.95844  50   2.058    38   -4.8  100   -4.8  527   0     985.7    NA       0.0000   9999     1210  0     0    
2019/09/29  15:24:00  BASE  1.13484  43   2.058    38   -4.8  100   -4.8  514   0     985.7    NA       0.0000   9999     1250  0     0    
2019/09/29  15:25:00  BASE  1.21128  40   2.0286   36   -4.8  100   -4.8  512   0     985.6    NA       0.0000   9999     0     0     0    
2019/09/29  15:26:00  BASE  1.28184  32   2.0286   36   -4.7  100   -4.7  510   0     985.6    NA       0.0000   9999     0     0     0    
2019/09/29  15:27:00  BASE  1.34064  22   2.0286   36   -4.7  100   -4.7  506   0     985.6    NA       0.0000   9999     0     0     0    
2019/09/29  15:28:00  BASE  1.31712  24   1.75224  30   -4.7  100   -4.7  505   0     985.6    NA       0.0000   9999     0     0     0    
2019/09/29  15:29:00  BASE  1.0878   31   1.69344  28   -4.7  100   -4.7  504   0     985.6    NA       0.0000   9999     0     0     0    
2019/09/29  15:30:00  BASE  0.87024  39   1.57584  19   -4.7  100   -4.7  505   0     985.6    NA       0.0000   9999     0     0     0    
2019/09/29  15:31:00  BASE  0.89376  49   1.57584  19   -4.7  100   -4.7  505   0     985.6    NA       0.0000   9999     0     0     0    
2019/09/29  15:32:00  BASE  1.11132  46   1.57584  19   -4.7  100   -4.7  505   0     985.6    NA       0.0000   9999     0     0     0    
2019/09/29  15:33:00  BASE  1.17012  36   1.57584  19   -4.7  100   -4.7  505   0     985.6    NA       0.0000   9999     0     0     0    
2019/09/29  15:34:00  BASE  0.94668  35   1.57584  19   -4.7  100   -4.7  504   0     985.6    NA       0.0000   9999     0     0     0    
2019/09/29  15:35:00  BASE  0.5292   31   1.57584  19   -4.7  100   -4.7  505   0     985.6    NA       0.0000   9999     0     0     0    
2019/09/29  15:36:00  BASE  0.13524  26   1.57584  19   -4.7  100   -4.7  505   0     985.7    NA       0.0000   9999     0     0     0    
2019/09/29  15:37:00  BASE  0        30   1.54056  27   -4.7  100   -4.7  505   0     985.7    NA       0.0000   9999     0     0     0    
2019/09/29  15:38:00  BASE  0        41   1.51116  46   -4.7  100   -4.7  505   0     985.7    NA       0.0000   9999     0     0     0    
2019/09/29  15:39:00  BASE  0.0882   39   1.51116  46   -4.7  100   -4.7  506   0     985.7    NA       0.0000   9999     0     0     0    
2019/09/29  15:40:00  BASE  0.16464  32   1.51116  46   -4.7  100   -4.7  506   0     985.7    NA       0.0000   9999     0     0     0    
2019/09/29  15:41:00  BASE  0.13524  34   1.51116  46   -4.7  100   -4.7  506   0     985.6    NA       0.0000   9999     0     0     0    
2019/09/29  15:42:00  BASE  0.05292  37   1.32888  31   -4.7  100   -4.7  507   0     985.6    NA       0.0000   9999     0     0     0    
2019/09/29  15:43:00  BASE  0        37   0.90552  37   -4.7  100   -4.7  508   0     985.6    NA       0.0000   9999     0     0     0    
2019/09/29  15:44:00  BASE  0.0294   43   0.75852  29   -4.7  100   -4.7  508   0     985.6    NA       0.0000   9999     0     0     0    
2019/09/29  15:45:00  BASE  0.29988  50   0.75852  29   -4.7  100   -4.7  508   0     985.6    NA       0.0000   9999     0     0     0    
2019/09/29  15:46:00  BASE  0.3528   47   0.75852  29   -4.7  100   -4.7  509   0     985.6    NA       0.0000   9999     0     0     0    
2019/09/29  15:47:00  BASE  0.07644  40   0.75852  29   -4.7  100   -4.7  509   0     985.6    NA       0.0000   9999     0     0     0    
2019/09/29  15:48:00  BASE  0        34   0.75852  29   -4.7  100   -4.7  509   0     985.6    NA       0.0000   9999     0     0     0    
2019/09/29  15:49:00  BASE  0.13524  31   0.72324  54   -4.7  100   -4.7  509   0     985.7    NA       0.0000   9999     0     0     0    
2019/09/29  15:50:00  BASE  0.13524  31   0.72324  54   -4.7  100   -4.7  509   0     985.7    NA       0.0000   9999     0     0     0    
2019/09/29  15:51:00  BASE  0        31   0.72324  54   -4.7  100   -4.7  510   0     985.7    NA       0.0000   9999     0     0     0    
2019/09/29  15:52:00  BASE  0        26   0.72324  54   -4.7  100   -4.7  510   0     985.7    NA       0.0000   9999     0     0     0    
2019/09/29  15:53:00  BASE  0.25284  12   0.90552  18   -4.7  100   -4.7  510   0     985.6    NA       0.0000   9999     0     0     0    
2019/09/29  15:54:00  BASE  0.81732  17   1.35828  23   -4.7  100   -4.7  510   0     985.6    NA       0.0000   9999     0     0     0    
2019/09/29  15:55:00  BASE  1.07016  28   1.35828  23   -4.7  100   -4.7  511   0     985.7    NA       0.0000   9999     0     0     0    
2019/09/29  15:56:00  BASE  0.92904  23   1.35828  23   -4.7  100   -4.7  430   0     985.7    NA       0.0000   9999     0     0     0    
2019/09/29  15:57:00  BASE  0.7938   28   1.35828  23   -4.7  100   -4.7  378   0     985.7    NA       0.0000   9999     1210  0     0    
2019/09/29  15:58:00  BASE  0.64092  36   1.35828  23   -4.7  100   -4.7  510   0     985.8    NA       0.0000   9999     1210  0     0    
2019/09/29  15:59:00  BASE  0.27636  33   1.35828  23   -4.7  100   -4.7  521   0     985.8    NA       0.0000   9999     1280  0     0    
2019/09/29  16:00:00  BASE  0        25   1.35828  23   -4.7  100   -4.7  521   0     985.8    NA       0.0000   9999     0     0     0    
2019/09/29  16:01:00  BASE  0.21168  16   1.35828  23   -4.7  100   -4.7  510   0     985.8    NA       0.0000   9999     0     0     0    
2019/09/29  16:02:00  BASE  0.42336  350  1.35828  23   -4.7  100   -4.7  519   0     985.8    NA       0.0000   9999     0     0     0    
2019/09/29  16:03:00  BASE  0.5586   331  1.35828  23   -4.7  100   -4.7  515   0     985.8    NA       0.0000   9999     0     0     0    
2019/09/29  16:04:00  BASE  0.93492  320  1.54056  312  -4.7  100   -4.7  517   0     985.8    NA       0.0000   9999     0     0     0    
2019/09/29  16:05:00  BASE  1.39356  312  1.69344  312  -4.6  100   -4.6  515   0     985.9    NA       0.0000   9999     0     0     0    
2019/09/29  16:06:00  BASE  1.56408  311  1.69344  312  -4.5  100   -4.5  516   0     985.9    NA       0.0000   9999     0     0     0    
2019/09/29  16:07:00  BASE  1.45824  313  1.69344  312  -4.4  100   -4.4  521   0     985.9    NA       0.0000   9999     0     0     0    
2019/09/29  16:08:00  BASE  1.33476  315  1.69344  312  -4.4  100   -4.4  489   0     985.9    NA       0.0000   9999     0     0     0    
2019/09/29  16:09:00  BASE  1.25832  321  1.69344  312  -4.3  100   -4.3  514   0     985.9    NA       0.0000   9999     0     0     0    
2019/09/29  16:10:00  BASE  1.21128  336  1.69344  312  -4.4  100   -4.4  516   0     985.9    NA       0.0000   9999     0     0     0    
2019/09/29  16:11:00  BASE  1.176    345  1.69344  312  -4.4  100   -4.4  515   0     985.9    NA       0.0000   9999     0     0     0    
2019/09/29  16:12:00  BASE  1.18188  350  1.69344  312  -4.5  100   -4.5  514   0     985.9    NA       0.0000   9999     0     0     0    
2019/09/29  16:13:00  BASE  1.07604  345  1.69344  312  -4.6  100   -4.6  513   0     985.9    NA       0.0000   9999     0     0     0    
2019/09/29  16:14:00  BASE  0.98784  349  1.69344  312  -4.6  100   -4.6  513   0     985.9    NA       0.0000   9999     0     0     0    
2019/09/29  16:15:00  BASE  1.06428  2    1.60524  311  -4.6  100   -4.6  514   0     985.9    NA       0.0000   9999     0     0     0    
2019/09/29  16:16:00  BASE  1.19364  357  1.48176  310  -4.6  100   -4.6  515   0     985.9    NA       0.0000   9999     0     0     0    
2019/09/29  16:17:00  BASE  1.25244  1    1.42296  11   -4.6  100   -4.6  514   0     985.9    NA       0.0000   9999     0     0     0    
2019/09/29  16:18:00  BASE  1.24068  11   1.42296  11   -4.6  100   -4.6  513   0     985.9    NA       0.0000   9999     0     0     0    
2019/09/29  16:19:00  BASE  1.21128  16   1.42296  11   -4.6  100   -4.6  512   0     985.9    NA       0.0000   9999     0     0     0    
2019/09/29  16:20:00  BASE  1.176    19   1.42296  11   -4.6  100   -4.6  511   0     985.8    NA       0.0000   9999     0     0     0    
2019/09/29  16:21:00  BASE  1.19364  16   1.42296  11   -4.6  100   -4.6  511   0     985.8    NA       0.0000   9999     0     0     0    
2019/09/29  16:22:00  BASE  1.19364  8    1.42296  11   -4.6  100   -4.6  510   0     985.8    NA       0.0000   9999     0     0     0    
2019/09/29  16:23:00  BASE  1.19952  360  1.42296  11   -4.6  100   -4.6  510   0     985.8    NA       0.0000   9999     0     0     0    
2019/09/29  16:24:00  BASE  1.24068  5    1.42296  16   -4.6  100   -4.6  510   0     985.8    NA       0.0000   9999     0     0     0    
2019/09/29  16:25:00  BASE  1.25832  20   1.42296  16   -4.6  100   -4.6  510   0     985.8    NA       0.0000   9999     0     0     0    
2019/09/29  16:26:00  BASE  1.28184  31   1.42296  16   -4.7  100   -4.7  508   0     985.8    NA       0.0000   9999     0     0     0    
2019/09/29  16:27:00  BASE  1.25244  34   1.42296  16   -4.7  100   -4.7  509   0     985.8    NA       0.0000   9999     0     0     0    
2019/09/29  16:28:00  BASE  1.14072  35   1.42296  16   -4.7  100   -4.7  508   0     985.8    NA       0.0000   9999     0     0     0    
2019/09/29  16:29:00  BASE  1.09956  38   1.42296  16   -4.7  100   -4.7  508   0     985.7    NA       0.0000   9999     0     0     0    
2019/09/29  16:30:00  BASE  1.09956  32   1.42296  16   -4.7  100   -4.7  508   0     985.7    NA       0.0000   9999     0     0     0    
2019/09/29  16:31:00  BASE  1.13484  29   1.42296  16   -4.7  100   -4.7  507   0     985.7    NA       0.0000   9999     0     0     0    
2019/09/29  16:32:00  BASE  1.15836  29   1.42296  16   -4.7  100   -4.7  507   0     985.7    NA       0.0000   9999     0     0     0    
2019/09/29  16:33:00  BASE  1.16424  24   1.42296  16   -4.7  100   -4.7  507   0     985.7    NA       0.0000   9999     0     0     0    
2019/09/29  16:34:00  BASE  1.09956  17   1.39356  36   -4.7  100   -4.7  507   0     985.7    NA       0.0000   9999     0     0     0    
2019/09/29  16:35:00  BASE  1.01136  8    1.39356  36   -4.7  100   -4.7  506   0     985.8    NA       0.0000   9999     0     0     0    
2019/09/29  16:36:00  BASE  0.90552  0    1.35828  25   -4.8  100   -4.8  506   0     985.8    NA       0.0000   9999     0     0     0    
2019/09/29  16:37:00  BASE  0.81732  353  1.29948  32   -4.8  100   -4.8  505   0     985.8    NA       0.0000   9999     0     0     0    
2019/09/29  16:38:00  BASE  0.7938   349  1.29948  32   -4.9  100   -4.9  505   0     985.7    NA       0.0000   9999     0     0     0    
2019/09/29  16:39:00  BASE  0.80556  348  1.29948  32   -4.9  100   -4.9  506   0     985.7    NA       0.0000   9999     0     0     0    
2019/09/29  16:40:00  BASE  0.78792  347  1.29948  32   -4.9  100   -4.9  505   0     985.7    NA       0.0000   9999     0     0     0    
2019/09/29  16:41:00  BASE  0.74676  347  1.27008  24   -4.9  100   -4.9  505   0     985.7    NA       0.0000   9999     0     0     0    
2019/09/29  16:42:00  BASE  0.75264  349  1.24068  17   -4.9  100   -4.9  505   0     985.7    NA       0.0000   9999     0     0     0    
2019/09/29  16:43:00  BASE  0.57036  353  1.24068  17   -4.8  100   -4.8  505   0     985.7    NA       0.0000   9999     0     0     0    
2019/09/29  16:44:00  BASE  0.60564  351  1.0878   2    -4.8  100   -4.8  504   0     985.7    NA       0.0000   9999     0     0     0    
2019/09/29  16:45:00  BASE  0.8526   348  1.1466   1    -4.7  100   -4.7  504   0     985.6    NA       0.0000   9999     0     0     0    
2019/09/29  16:46:00  BASE  1.0584   358  1.48176  11   -4.7  100   -4.7  504   0     985.6    NA       0.0000   9999     0     0     0    
2019/09/29  16:47:00  BASE  1.18776  7    1.48176  11   -4.7  100   -4.7  503   0     985.6    NA       0.0000   9999     0     0     0    
2019/09/29  16:48:00  BASE  1.19364  10   1.48176  11   -4.7  100   -4.7  503   0     985.6    NA       0.0000   9999     0     0     0    
2019/09/29  16:49:00  BASE  1.21128  7    1.48176  11   -4.7  100   -4.7  503   0     985.6    NA       0.0000   9999     0     0     0    
2019/09/29  16:50:00  BASE  1.12308  356  1.48176  11   -4.7  100   -4.7  502   0     985.6    NA       0.0000   9999     0     0     0    
2019/09/29  16:51:00  BASE  0.97608  350  1.48176  11   -4.7  100   -4.7  502   0     985.7    NA       0.0000   9999     0     0     0    
2019/09/29  16:52:00  BASE  0.92904  359  1.48176  11   -4.7  100   -4.7  501   0     985.7    NA       0.0000   9999     0     0     0    
2019/09/29  16:53:00  BASE  0.93492  6    1.48176  11   -4.7  100   -4.7  500   0     985.7    NA       0.0000   9999     0     0     0    
2019/09/29  16:54:00  BASE  0.91728  8    1.48176  11   -4.7  100   -4.7  500   0     985.7    NA       0.0000   9999     0     0     0    
2019/09/29  16:55:00  BASE  0.96432  11   1.48176  11   -4.8  100   -4.8  499   0     985.7    NA       0.0000   9999     0     0     0    
2019/09/29  16:56:00  BASE  0.9114   10   1.35828  18   -4.8  100   -4.8  499   0     985.7    NA       0.0000   9999     0     0     0    
2019/09/29  16:57:00  BASE  0.82908  12   1.35828  18   -4.8  100   -4.8  499   0     985.7    NA       0.0000   9999     0     0     0    
2019/09/29  16:58:00  BASE  0.9408   9    1.32888  354  -4.8  100   -4.8  498   0     985.7    NA       0.0000   9999     0     0     0    
2019/09/29  16:59:00  BASE  0.81144  355  1.32888  354  -4.8  100   -4.8  497   0     985.7    NA       0.0000   9999     0     0     0    
2019/09/29  17:00:00  BASE  0.72324  344  1.1466   360  -4.8  100   -4.8  497   0     985.7    NA       0.0000   9999     0     0     0    
2019/09/29  17:01:00  BASE  0.84672  342  1.1466   360  -4.8  100   -4.8  497   0     985.7    NA       0.0000   9999     0     0     0    
2019/09/29  17:02:00  BASE  0.89376  347  1.24068  351  -4.8  100   -4.8  496   0     985.7    NA       0.0000   9999     0     0     0    
2019/09/29  17:03:00  BASE  1.04076  350  1.24068  351  -4.8  100   -4.8  495   0     985.7    NA       0.0000   9999     0     0     0    
2019/09/29  17:04:00  BASE  1.06428  355  1.24068  351  -4.8  100   -4.8  495   0     985.7    NA       0.0000   9999     0     0     0    
2019/09/29  17:05:00  BASE  0.96432  360  1.24068  351  -4.8  100   -4.8  495   0     985.7    NA       0.0000   9999     0     0     0    
2019/09/29  17:06:00  BASE  0.90552  356  1.24068  351  -4.8  100   -4.8  494   0     985.7    NA       0.0000   9999     0     0     0    
2019/09/29  17:07:00  BASE  0.91728  359  1.24068  351  -4.8  100   -4.8  493   0     985.8    NA       0.0000   9999     0     0     0    
2019/09/29  17:08:00  BASE  1.03488  7    1.24068  351  -4.8  100   -4.8  492   0     985.8    NA       0.0000   9999     0     0     0    
2019/09/29  17:09:00  BASE  1.17012  3    1.35828  1    -4.8  100   -4.8  492   0     985.8    NA       0.0000   9999     0     0     0    
2019/09/29  17:10:00  BASE  1.22892  3    1.35828  1    -4.8  100   -4.8  491   0     985.8    NA       0.0000   9999     0     0     0    
2019/09/29  17:11:00  BASE  1.17012  6    1.35828  1    -4.8  100   -4.8  491   0     985.8    NA       0.0000   9999     0     0     0    
2019/09/29  17:12:00  BASE  1.1172   11   1.35828  1    -4.8  100   -4.8  490   0     985.8    NA       0.0000   9999     0     0     0    
2019/09/29  17:13:00  BASE  1.02312  13   1.35828  1    -4.7  100   -4.7  489   0     985.8    NA       0.0000   9999     0     0     0    
2019/09/29  17:14:00  BASE  0.98196  9    1.35828  1    -4.7  100   -4.7  489   0     985.9    NA       0.0000   9999     0     0     0    
2019/09/29  17:15:00  BASE  0.90552  8    1.35828  1    -4.8  100   -4.8  488   0     985.9    NA       0.0000   9999     0     0     0    
2019/09/29  17:16:00  BASE  0.7938   7    1.35828  1    -4.8  100   -4.8  488   0     985.9    NA       0.0000   9999     0     0     0    
2019/09/29  17:17:00  BASE  0.81732  12   1.35828  1    -4.8  100   -4.8  487   0     985.9    NA       0.0000   9999     0     0     0    
2019/09/29  17:18:00  BASE  0.84672  17   1.35828  1    -4.8  100   -4.8  486   0     985.9    NA       0.0000   9999     0     0     0    
2019/09/29  17:19:00  BASE  0.89376  21   1.27008  12   -4.7  100   -4.7  486   0     985.9    NA       0.0000   9999     0     0     0    
2019/09/29  17:20:00  BASE  0.88788  20   1.21128  351  -4.7  100   -4.7  485   0     985.9    NA       0.0000   9999     0     0     0    
2019/09/29  17:21:00  BASE  0.9114   24   1.21128  351  -4.7  100   -4.7  485   0     985.9    NA       0.0000   9999     0     0     0    
2019/09/29  17:22:00  BASE  1.13484  36   1.45236  38   -4.6  100   -4.6  484   0     985.9    NA       0.0000   9999     0     0     0    
2019/09/29  17:23:00  BASE  1.37592  39   1.54056  37   -4.6  100   -4.6  483   0     985.9    NA       0.0000   9999     0     0     0    
2019/09/29  17:24:00  BASE  1.47588  38   1.63464  34   -4.6  100   -4.6  485   0     985.9    NA       0.0000   9999     0     0     0    
2019/09/29  17:25:00  BASE  1.37592  33   1.63464  34   -4.5  100   -4.5  491   0     985.9    NA       0.0000   9999     0     0     0    
2019/09/29  17:26:00  BASE  1.15836  31   1.63464  34   -4.5  100   -4.5  492   0     986.0    NA       0.0000   9999     0     0     0    
2019/09/29  17:27:00  BASE  1.03488  40   1.63464  34   -4.5  100   -4.5  490   0     985.9    NA       0.0000   9999     0     0     0    
2019/09/29  17:28:00  BASE  1.08192  49   1.63464  34   -4.5  100   -4.5  488   0     985.9    NA       0.0000   9999     0     0     0    
2019/09/29  17:29:00  BASE  1.07016  53   1.63464  34   -4.5  100   -4.5  485   0     985.9    NA       0.0000   9999     0     0     0    
2019/09/29  17:30:00  BASE  0.95844  58   1.63464  34   -4.4  100   -4.4  478   0     985.9    NA       0.0000   9999     0     0     0    
2019/09/29  17:31:00  BASE  0.80556  61   1.63464  34   -4.4  100   -4.4  479   0     985.9    NA       0.0000   9999     0     0     0    
2019/09/29  17:32:00  BASE  0.87024  60   1.63464  34   -4.4  100   -4.4  465   0     985.9    NA       0.0000   9999     0     0     0    
2019/09/29  17:33:00  BASE  1.2936   61   1.81692  53   -4.4  100   -4.4  477   0     985.8    NA       0.0000   9999     0     0     0    
2019/09/29  17:34:00  BASE  1.61112  63   2.1462   70   -4.4  100   -4.4  474   0     985.8    NA       0.0000   9999     0     0     0    
2019/09/29  17:35:00  BASE  1.85808  63   2.21088  73   -4.4  100   -4.4  474   0     985.8    NA       0.0000   9999     0     0     0    
2019/09/29  17:36:00  BASE  1.89924  58   2.21088  73   -4.4  100   -4.4  473   0     985.8    NA       0.0000   9999     0     0     0    
2019/09/29  17:37:00  BASE  1.8228   51   2.21088  73   -4.4  100   -4.4  473   0     985.8    NA       0.0000   9999     0     0     0    
2019/09/29  17:38:00  BASE  1.86984  44   2.21088  73   -4.3  100   -4.3  472   0     985.8    NA       0.0000   9999     0     0     0    
2019/09/29  17:39:00  BASE  1.80516  35   2.21088  73   -4.3  100   -4.3  470   0     985.8    NA       0.0000   9999     0     0     0    
2019/09/29  17:40:00  BASE  1.71696  26   2.21088  73   -4.3  100   -4.3  469   0     985.9    NA       0.0000   9999     0     0     0    
2019/09/29  17:41:00  BASE  1.6464   24   2.21088  73   -4.3  100   -4.3  469   0     985.9    NA       0.0000   9999     0     0     0    
2019/09/29  17:42:00  BASE  1.60524  22   2.21088  73   -4.4  100   -4.4  469   0     985.9    NA       0.0000   9999     0     0     0    
2019/09/29  17:43:00  BASE  1.65228  18   2.21088  73   -4.4  100   -4.4  468   0     985.9    NA       0.0000   9999     0     0     0    
2019/09/29  17:44:00  BASE  1.72284  11   2.21088  73   -4.5  100   -4.5  469   0     985.9    NA       0.0000   9999     0     0     0    
2019/09/29  17:45:00  BASE  1.45824  10   2.0286   39   -4.5  100   -4.5  468   0     985.9    NA       0.0000   9999     0     0     0    
2019/09/29  17:46:00  BASE  1.28772  20   2.0286   39   -4.6  100   -4.6  469   0     985.9    NA       0.0000   9999     0     0     0    
2019/09/29  17:47:00  BASE  1.38768  20   2.0286   39   -4.6  100   -4.6  471   0     985.9    NA       0.0000   9999     0     0     0    
2019/09/29  17:48:00  BASE  1.323    16   1.93452  25   -4.6  100   -4.6  473   0     985.9    NA       0.0000   9999     0     0     0    
2019/09/29  17:49:00  BASE  1.35828  19   1.87572  3    -4.6  100   -4.6  472   0     985.9    NA       0.0000   9999     980   0     0    
2019/09/29  17:50:00  BASE  1.42884  12   1.87572  3    -4.6  100   -4.6  468   0     985.9    NA       0.0000   9999     0     0     0    
2019/09/29  17:51:00  BASE  1.19364  5    1.87572  3    -4.6  100   -4.6  466   0     985.9    NA       0.0000   9999     850   0     0    
2019/09/29  17:52:00  BASE  1.13484  13   1.87572  3    -4.5  100   -4.5  470   0     985.9    NA       0.0000   9999     890   0     0    
2019/09/29  17:53:00  BASE  1.27596  19   1.87572  3    -4.5  100   -4.5  475   0     985.9    NA       0.0000   9999     890   0     0    
2019/09/29  17:54:00  BASE  1.15248  23   1.69344  3    -4.5  100   -4.5  474   0     985.9    NA       0.0000   9999     920   0     0    
2019/09/29  17:55:00  BASE  1.11132  26   1.69344  3    -4.5  100   -4.5  470   0     985.8    NA       0.0000   9999     920   0     0    
2019/09/29  17:56:00  BASE  1.22892  29   1.69344  3    -4.5  100   -4.5  471   0     985.8    NA       0.0000   9999     920   0     0    
2019/09/29  17:57:00  BASE  1.40532  33   1.69344  3    -4.5  100   -4.5  470   0     985.9    NA       0.0000   9999     890   0     0    
2019/09/29  17:58:00  BASE  1.5288   35   1.69344  3    -4.6  100   -4.6  466   0     985.8    NA       0.0000   9999     890   0     0    
2019/09/29  17:59:00  BASE  1.47588  37   1.69344  3    -4.5  100   -4.5  461   0     985.8    NA       0.0000   9999     890   0     0    
2019/09/29  18:00:00  BASE  1.41708  40   1.63464  34   -4.5  100   -4.5  458   0     985.8    NA       0.0000   9999     890   0     0    
2019/09/29  18:01:00  BASE  1.2642   40   1.63464  34   -4.5  100   -4.5  456   0     985.8    NA       0.0000   9999     890   0     0    
2019/09/29  18:02:00  BASE  1.02312  39   1.63464  34   -4.5  100   -4.5  453   0     985.8    NA       0.0000   9999     0     0     0    
2019/09/29  18:03:00  BASE  0.92904  42   1.63464  34   -4.6  100   -4.6  450   0     985.8    NA       0.0000   9999     0     0     0    
2019/09/29  18:04:00  BASE  0.80556  42   1.63464  34   -4.6  100   -4.6  448   0     985.8    NA       0.0000   9999     0     0     0    
2019/09/29  18:05:00  BASE  0.69384  40   1.63464  34   -4.6  100   -4.6  446   0     985.8    NA       0.0000   9999     0     0     0    
2019/09/29  18:06:00  BASE  0.67032  42   1.63464  34   -4.7  100   -4.7  445   0     985.8    NA       0.0000   9999     0     0     0    
2019/09/29  18:07:00  BASE  0.735    42   1.63464  34   -4.7  100   -4.7  444   0     985.8    NA       0.0000   9999     0     0     0    
2019/09/29  18:08:00  BASE  0.98196  46   1.57584  37   -4.7  100   -4.7  444   0     985.8    NA       0.0000   9999     0     0     0    
2019/09/29  18:09:00  BASE  1.04664  49   1.51116  43   -4.6  100   -4.6  445   0     985.8    NA       0.0000   9999     0     0     0    
2019/09/29  18:10:00  BASE  0.78204  42   1.24068  39   -4.6  100   -4.6  448   0     985.8    NA       0.0000   9999     0     0     0    
2019/09/29  18:11:00  BASE  0.33516  34   1.21128  53   -4.6  100   -4.6  453   0     985.9    NA       0.0000   9999     0     0     0    
2019/09/29  18:12:00  BASE  0.02352  35   1.21128  53   -4.6  100   -4.6  457   0     985.8    NA       0.0000   9999     0     0     0    
2019/09/29  18:13:00  BASE  0        35   1.21128  53   -4.6  100   -4.6  460   0     985.8    NA       0.0000   9999     0     0     0    
2019/09/29  18:14:00  BASE  0        28   1.21128  53   -4.7  100   -4.7  463   0     985.8    NA       0.0000   9999     0     0     0    
2019/09/29  18:15:00  BASE  0        22   1.21128  53   -4.7  100   -4.7  471   0     985.8    NA       0.0000   9999     0     0     0    
2019/09/29  18:16:00  BASE  0        357  1.21128  53   -4.7  100   -4.7  482   0     985.8    NA       0.0000   9999     0     0     0    
2019/09/29  18:17:00  BASE  0        307  1.21128  53   -4.6  100   -4.6  496   0     985.8    NA       0.0000   9999     0     0     0    
2019/09/29  18:18:00  BASE  0        283  1.1172   56   -4.6  100   -4.6  508   0     985.8    NA       0.0000   9999     0     0     0    
2019/09/29  18:19:00  BASE  0        273  0.75852  41   -4.5  100   -4.5  511   0     985.8    NA       0.0000   9999     0     0     0    
2019/09/29  18:20:00  BASE  0        214  0.60564  25   -4.4  100   -4.4  496   0     985.7    NA       0.0000   9999     0     0     0    
2019/09/29  18:21:00  BASE  0        173  0        M    -4.3  100   -4.3  479   0     985.7    NA       0.0000   9999     0     0     0    
2019/09/29  18:22:00  BASE  0        146  0        M    -4.3  100   -4.3  462   0     985.7    NA       0.0000   9999     0     0     0    
2019/09/29  18:23:00  BASE  0.05292  101  0.63504  70   -4.4  100   -4.4  416   0     985.7    NA       0.0000   9999     0     0     0    
2019/09/29  18:24:00  BASE  0.57036  79   1.35828  87   -4.4  100   -4.4  415   0     985.7    NA       0.0000   9999     0     0     0    
2019/09/29  18:25:00  BASE  1.04076  76   1.35828  87   -4.4  100   -4.4  443   0     985.7    NA       0.0000   9999     0     0     0    
2019/09/29  18:26:00  BASE  1.07604  70   1.35828  87   -4.5  100   -4.5  439   0     985.7    NA       0.0000   9999     0     0     0    
2019/09/29  18:27:00  BASE  1.12308  58   1.35828  87   -4.5  100   -4.5  380   0     985.7    NA       0.0000   9999     0     0     0    
2019/09/29  18:28:00  BASE  1.0584   50   1.35828  87   -4.5  100   -4.5  427   0     985.7    NA       0.0000   9999     0     0     0    
2019/09/29  18:29:00  BASE  0.92904  50   1.35828  87   -4.5  100   -4.5  420   0     985.7    NA       0.0000   9999     0     0     0    
2019/09/29  18:30:00  BASE  0.87612  55   1.35828  87   -4.5  100   -4.5  419   0     985.7    NA       0.0000   9999     0     0     0    
2019/09/29  18:31:00  BASE  0.72912  56   1.35828  87   -4.4  100   -4.4  417   0     985.6    NA       0.0000   9999     0     0     0    
2019/09/29  18:32:00  BASE  0.65268  54   1.35828  87   -4.4  100   -4.4  415   0     985.6    NA       0.0000   9999     0     0     0    
2019/09/29  18:33:00  BASE  0.7056   53   1.35828  87   -4.4  100   -4.4  413   0     985.6    NA       0.0000   9999     0     0     0    
2019/09/29  18:34:00  BASE  0.74676  51   1.32888  49   -4.4  100   -4.4  412   0     985.6    NA       0.0000   9999     0     0     0    
2019/09/29  18:35:00  BASE  0.7644   46   1.32888  49   -4.4  100   -4.4  410   0     985.6    NA       0.0000   9999     0     0     0    
2019/09/29  18:36:00  BASE  0.75852  44   1.32888  49   -4.4  100   -4.4  408   0     985.6    NA       0.0000   9999     0     0     0    
2019/09/29  18:37:00  BASE  0.8232   41   1.1466   68   -4.4  100   -4.4  406   0     985.6    NA       0.0000   9999     0     0     0    
2019/09/29  18:38:00  BASE  0.85848  38   1.0878   54   -4.4  100   -4.4  405   0     985.6    NA       0.0000   9999     0     0     0    
2019/09/29  18:39:00  BASE  0.8232   43   1.029    39   -4.4  100   -4.4  404   0     985.6    NA       0.0000   9999     0     0     0    
2019/09/29  18:40:00  BASE  0.8526   46   1.029    45   -4.4  100   -4.4  402   0     985.6    NA       0.0000   9999     0     0     0    
2019/09/29  18:41:00  BASE  0.87612  45   1.0584   51   -4.4  100   -4.4  401   0     985.6    NA       0.0000   9999     0     0     0    
2019/09/29  18:42:00  BASE  0.97608  42   1.1466   43   -4.4  100   -4.4  400   0     985.6    NA       0.0000   9999     0     0     0    
2019/09/29  18:43:00  BASE  0.98784  29   1.1466   10   -4.4  100   -4.4  398   0     985.6    NA       0.0000   9999     0     0     0    
2019/09/29  18:44:00  BASE  1.09956  17   1.57584  27   -4.5  100   -4.5  397   0     985.6    NA       0.0000   9999     0     0     0    
2019/09/29  18:45:00  BASE  1.31124  15   1.57584  27   -4.5  100   -4.5  395   0     985.6    NA       0.0000   9999     0     0     0    
2019/09/29  18:46:00  BASE  1.38768  13   1.57584  27   -4.5  100   -4.5  394   0     985.6    NA       0.0000   9999     0     0     0    
2019/09/29  18:47:00  BASE  1.35828  14   1.57584  27   -4.6  100   -4.6  392   0     985.6    NA       0.0000   9999     0     0     0    
2019/09/29  18:48:00  BASE  1.2348   14   1.57584  27   -4.7  100   -4.7  391   0     985.6    NA       0.0000   9999     0     0     0    
2019/09/29  18:49:00  BASE  1.08192  14   1.57584  27   -4.7  100   -4.7  389   0     985.6    NA       0.0000   9999     0     0     0    
2019/09/29  18:50:00  BASE  0.98196  10   1.57584  27   -4.8  100   -4.8  388   0     985.6    NA       0.0000   9999     0     0     0    
2019/09/29  18:51:00  BASE  1.05252  10   1.57584  27   -4.8  100   -4.8  386   0     985.6    NA       0.0000   9999     0     0     0    
2019/09/29  18:52:00  BASE  1.1466   14   1.57584  27   -4.9  100   -4.9  385   0     985.6    NA       0.0000   9999     0     0     0    
2019/09/29  18:53:00  BASE  1.21716  16   1.57584  27   -4.9  100   -4.9  383   0     985.6    NA       0.0000   9999     0     0     0    
2019/09/29  18:54:00  BASE  1.13484  15   1.54056  12   -4.9  100   -4.9  382   0     985.6    NA       0.0000   9999     0     0     0    
2019/09/29  18:55:00  BASE  1.00548  11   1.54056  12   -4.9  100   -4.9  381   0     985.6    NA       0.0000   9999     0     0     0    
2019/09/29  18:56:00  BASE  0.95844  8    1.42296  17   -4.9  100   -4.9  379   0     985.6    NA       0.0000   9999     0     0     0    
2019/09/29  18:57:00  BASE  1.01724  9    1.35828  16   -4.9  100   -4.9  378   0     985.5    NA       0.0000   9999     0     0     0    
2019/09/29  18:58:00  BASE  1.0878   17   1.35828  16   -5.0  100   -5.0  376   0     985.4    NA       0.0000   9999     0     0     0    
2019/09/29  18:59:00  BASE  1.04076  20   1.35828  16   -5.0  100   -5.0  375   0     985.4    NA       0.0000   9999     0     0     0    
2019/09/29  19:00:00  BASE  0.98196  20   1.35828  16   -5.0  100   -5.0  373   0     985.4    NA       0.0000   9999     0     0     0    
2019/09/29  19:01:00  BASE  0.84672  17   1.35828  16   -5.0  100   -5.0  372   0     985.4    NA       0.0000   9999     0     0     0    
2019/09/29  19:02:00  BASE  0.39396  5    1.35828  16   -5.0  100   -5.0  371   0     985.4    NA       0.0000   9999     0     0     0    
2019/09/29  19:03:00  BASE  0.0294   349  1.21128  14   -5.0  100   -5.0  369   0     985.4    NA       0.0000   9999     0     0     0    
2019/09/29  19:04:00  BASE  0.08232  320  1.21128  14   -4.9  100   -4.9  368   0     985.4    NA       0.0000   9999     0     0     0    
2019/09/29  19:05:00  BASE  0.46452  285  1.21128  14   -4.9  100   -4.9  366   0     985.4    NA       0.0000   9999     0     0     0    
2019/09/29  19:06:00  BASE  0.7938   265  1.21128  14   -4.9  100   -4.9  364   0     985.4    NA       0.0000   9999     0     0     0    
2019/09/29  19:07:00  BASE  0.93492  249  1.48176  241  -4.9  100   -4.9  363   0     985.4    NA       0.0000   9999     0     0     0    
2019/09/29  19:08:00  BASE  1.49352  240  2.1168   243  -4.9  100   -4.9  362   0     985.4    NA       0.0000   9999     0     0     0    
2019/09/29  19:09:00  BASE  2.12268  241  2.75184  235  -5.0  100   -5.0  360   0     985.6    NA       0.0000   9999     0     0     0    
2019/09/29  19:10:00  BASE  2.5284   239  2.96352  241  -5.1  100   -5.1  358   0     985.6    NA       0.0000   9999     0     0     0    
2019/09/29  19:11:00  BASE  2.9106   240  3.41628  242  -5.1  100   -5.1  357   0     985.7    NA       0.0000   9999     0     0     0    
2019/09/29  19:12:00  BASE  3.22224  240  3.69264  231  -5.1  100   -5.1  346   0     985.7    NA       0.0000   9999     0     0     0    
2019/09/29  19:13:00  BASE  3.36924  238  3.96312  239  -5.1  100   -5.1  355   0     985.7    NA       0.0000   9999     0     0     0    
2019/09/29  19:14:00  BASE  3.43392  236  3.96312  239  -5.0  100   -5.0  353   0     985.7    NA       0.0000   9999     0     0     0    
2019/09/29  19:15:00  BASE  3.25752  235  3.96312  239  -5.0  100   -5.0  351   0     985.7    NA       0.0000   9999     0     0     0    
2019/09/29  19:16:00  BASE  2.84004  232  3.96312  239  -4.9  100   -4.9  350   0     985.6    NA       0.0000   9999     0     0     0    
2019/09/29  19:17:00  BASE  2.49312  233  3.96312  239  -4.8  100   -4.8  349   0     985.6    NA       0.0000   9999     0     0     0    
2019/09/29  19:18:00  BASE  2.16972  238  3.96312  239  -4.8  100   -4.8  347   0     985.6    NA       0.0000   9999     0     0     0    
2019/09/29  19:19:00  BASE  1.8816   237  3.96312  239  -4.8  100   -4.8  345   0     985.6    NA       0.0000   9999     0     0     0    
2019/09/29  19:20:00  BASE  1.63464  238  3.96312  239  -4.8  100   -4.8  343   0     985.6    NA       0.0000   9999     0     0     0    
2019/09/29  19:21:00  BASE  1.43472  241  3.96312  239  -4.8  100   -4.8  341   0     985.5    NA       0.0000   9999     0     0     0    
2019/09/29  19:22:00  BASE  1.1466   241  3.96312  239  -4.8  100   -4.8  340   0     985.4    NA       0.0000   9999     0     0     0    
2019/09/29  19:23:00  BASE  0.59976  229  3.81024  235  -4.8  100   -4.8  339   0     985.4    NA       0.0000   9999     0     0     0    
2019/09/29  19:24:00  BASE  0.13524  231  3.51036  231  -4.7  100   -4.7  337   0     985.4    NA       0.0000   9999     0     0     0    
2019/09/29  19:25:00  BASE  0        243  3.02232  228  -4.6  100   -4.6  335   0     985.4    NA       0.0000   9999     0     0     0    
2019/09/29  19:26:00  BASE  0        243  2.72244  247  -4.6  100   -4.6  334   0     985.5    NA       0.0000   9999     0     0     0    
2019/09/29  19:27:00  BASE  0        243  2.1462   233  -4.5  100   -4.5  333   0     985.6    NA       0.0000   9999     0     0     0    
2019/09/29  19:28:00  BASE  0        243  2.1462   233  -4.4  100   -4.4  331   0     985.6    NA       0.0000   9999     0     0     0    
2019/09/29  19:29:00  BASE  0        244  1.63464  232  -4.3  100   -4.3  329   0     985.6    NA       0.0000   9999     0     0     0    
2019/09/29  19:30:00  BASE  0        255  1.60524  242  -4.3  100   -4.3  328   0     985.6    NA       0.0000   9999     0     0     0    
2019/09/29  19:31:00  BASE  0        320  1.0878   246  -4.2  100   -4.2  325   0     985.6    NA       0.0000   9999     0     0     0    
2019/09/29  19:32:00  BASE  0.2352   14   1.0878   246  -4.2  100   -4.2  324   0     985.6    NA       0.0000   9999     0     0     0    
2019/09/29  19:33:00  BASE  0.65856  22   0.90552  22   -4.3  100   -4.3  322   0     985.6    NA       0.0000   9999     0     0     0    
2019/09/29  19:34:00  BASE  0.87024  23   1.0584   28   -4.4  100   -4.4  320   0     985.6    NA       0.0000   9999     0     0     0    
2019/09/29  19:35:00  BASE  1.08192  27   1.48176  31   -4.5  100   -4.5  318   0     985.6    NA       0.0000   9999     0     0     0    
2019/09/29  19:36:00  BASE  0.74088  16   1.48176  31   -4.6  100   -4.6  316   0     985.6    NA       0.0000   9999     0     0     0    
2019/09/29  19:37:00  BASE  0.59388  21   1.57584  52   -4.6  100   -4.6  314   0     985.6    NA       0.0000   9999     0     0     0    
2019/09/29  19:38:00  BASE  1.16424  42   1.63464  44   -4.5  100   -4.5  312   0     985.6    NA       0.0000   9999     0     0     0    
2019/09/29  19:39:00  BASE  1.08192  39   1.63464  44   -4.5  100   -4.5  310   0     985.6    NA       0.0000   9999     0     0     0    
2019/09/29  19:40:00  BASE  0.69972  32   1.63464  44   -4.5  100   -4.5  308   0     985.6    NA       0.0000   9999     0     0     0    
2019/09/29  19:41:00  BASE  0.294    42   1.63464  44   -4.5  100   -4.5  306   0     985.6    NA       0.0000   9999     0     0     0    
2019/09/29  19:42:00  BASE  0        63   1.63464  44   -4.5  100   -4.5  305   0     985.6    NA       0.0000   9999     0     0     0    
2019/09/29  19:43:00  BASE  0.0882   79   1.63464  44   -4.5  100   -4.5  303   0     985.6    NA       0.0000   9999     0     0     0    
2019/09/29  19:44:00  BASE  0.32928  87   1.63464  44   -4.5  100   -4.5  298   0     985.6    NA       0.0000   9999     0     0     0    
2019/09/29  19:45:00  BASE  0.42924  81   1.63464  44   -4.5  100   -4.5  296   0     985.5    NA       0.0000   9999     0     0     0    
2019/09/29  19:46:00  BASE  0.72324  68   1.63464  44   -4.5  100   -4.5  297   0     985.4    NA       0.0000   9999     0     0     0    
2019/09/29  19:47:00  BASE  1.31124  61   1.66404  57   -4.5  100   -4.5  295   0     985.4    NA       0.0000   9999     0     0     0    
2019/09/29  19:48:00  BASE  1.42296  45   1.66404  57   -4.5  100   -4.5  294   0     985.4    NA       0.0000   9999     0     0     0    
2019/09/29  19:49:00  BASE  1.28184  34   1.66404  57   -4.6  100   -4.6  292   0     985.4    NA       0.0000   9999     0     0     0    
2019/09/29  19:50:00  BASE  1.40532  34   1.84632  35   -4.6  100   -4.6  290   0     985.4    NA       0.0000   9999     0     0     0    
2019/09/29  19:51:00  BASE  1.37592  34   1.84632  35   -4.7  100   -4.7  289   0     985.4    NA       0.0000   9999     0     0     0    
2019/09/29  19:52:00  BASE  1.27596  37   1.84632  35   -4.7  100   -4.7  287   0     985.4    NA       0.0000   9999     0     0     0    
2019/09/29  19:53:00  BASE  1.30536  41   1.84632  35   -4.7  100   -4.7  285   0     985.4    NA       0.0000   9999     0     0     0    
2019/09/29  19:54:00  BASE  1.2642   42   1.84632  35   -4.7  100   -4.7  284   0     985.4    NA       0.0000   9999     0     0     0    
2019/09/29  19:55:00  BASE  1.22304  40   1.84632  35   -4.7  100   -4.7  281   0     985.4    NA       0.0000   9999     0     0     0    
2019/09/29  19:56:00  BASE  1.29948  40   1.84632  35   -4.7  100   -4.7  279   0     985.4    NA       0.0000   9999     0     0     0    
2019/09/29  19:57:00  BASE  1.42296  41   1.84632  35   -4.7  100   -4.7  277   0     985.4    NA       0.0000   9999     0     0     0    
2019/09/29  19:58:00  BASE  1.49352  42   1.84632  35   -4.7  100   -4.7  276   0     985.4    NA       0.0000   9999     0     0     0    
2019/09/29  19:59:00  BASE  1.52292  42   1.84632  35   -4.7  100   -4.7  275   0     985.4    NA       0.0000   9999     0     0     0    
2019/09/29  20:00:00  BASE  1.55232  40   1.72284  34   -4.7  100   -4.7  273   0     985.4    NA       0.0000   9999     0     0     0    
2019/09/29  20:01:00  BASE  1.66992  38   1.87572  35   -4.7  100   -4.7  271   0     985.4    NA       0.0000   9999     0     0     0    
2019/09/29  20:02:00  BASE  1.911    40   2.29908  47   -4.7  100   -4.7  270   0     985.4    NA       0.0000   9999     0     0     0    
2019/09/29  20:03:00  BASE  2.1462   46   2.32848  53   -4.8  100   -4.8  268   0     985.4    NA       0.0000   9999     0     0     0    
2019/09/29  20:04:00  BASE  2.2344   51   2.35788  54   -4.8  100   -4.8  265   0     985.4    NA       0.0000   9999     0     0     0    
2019/09/29  20:05:00  BASE  2.19912  57   2.42256  59   -4.8  100   -4.8  264   0     985.4    NA       0.0000   9999     0     0     0    
2019/09/29  20:06:00  BASE  2.05212  60   2.42256  59   -4.8  100   -4.8  262   0     985.4    NA       0.0000   9999     0     0     0    
2019/09/29  20:07:00  BASE  1.92864  62   2.42256  59   -4.8  100   -4.8  260   0     985.4    NA       0.0000   9999     0     0     0    
2019/09/29  20:08:00  BASE  1.911    64   2.42256  59   -4.9  100   -4.9  258   0     985.4    NA       0.0000   9999     0     0     0    
2019/09/29  20:09:00  BASE  1.68168  66   2.42256  59   -4.9  100   -4.9  256   0     985.4    NA       0.0000   9999     0     0     0    
2019/09/29  20:10:00  BASE  1.40532  65   2.42256  59   -4.9  100   -4.9  254   0     985.4    NA       0.0000   9999     0     0     0    
2019/09/29  20:11:00  BASE  1.27008  60   2.42256  59   -4.9  100   -4.9  246   0     985.4    NA       0.0000   9999     0     0     0    
2019/09/29  20:12:00  BASE  0.9996   60   2.42256  59   -4.9  100   -4.9  239   0     985.4    NA       0.0000   9999     0     0     0    
2019/09/29  20:13:00  BASE  0.7056   67   2.42256  59   -4.9  100   -4.9  248   0     985.5    NA       0.0000   9999     0     0     0    
2019/09/29  20:14:00  BASE  0.57036  70   2.42256  59   -4.9  100   -4.9  247   0     985.6    NA       0.0000   9999     0     0     0    
2019/09/29  20:15:00  BASE  0.294    57   2.1756   67   -4.9  100   -4.9  245   0     985.6    NA       0.0000   9999     0     0     0    
2019/09/29  20:16:00  BASE  0.02352  39   2.1756   67   -4.9  100   -4.9  244   0     985.6    NA       0.0000   9999     0     0     0    
2019/09/29  20:17:00  BASE  0        37   2.1756   67   -4.9  100   -4.9  242   0     985.6    NA       0.0000   9999     0     0     0    
2019/09/29  20:18:00  BASE  0.18816  39   1.69344  64   -4.9  100   -4.9  240   0     985.6    NA       0.0000   9999     0     0     0    
2019/09/29  20:19:00  BASE  0.53508  37   1.48176  71   -4.9  100   -4.9  238   0     985.5    NA       0.0000   9999     0     0     0    
2019/09/29  20:20:00  BASE  0.80556  36   1.32888  58   -4.9  100   -4.9  237   0     985.4    NA       0.0000   9999     0     0     0    
2019/09/29  20:21:00  BASE  1.02312  36   1.21128  33   -4.8  100   -4.8  235   0     985.4    NA       0.0000   9999     0     0     0    
2019/09/29  20:22:00  BASE  1.1466   38   1.24068  38   -4.9  100   -4.9  233   0     985.4    NA       0.0000   9999     0     0     0    
2019/09/29  20:23:00  BASE  1.13484  38   1.24068  39   -4.8  100   -4.8  231   0     985.5    NA       0.0000   9999     0     0     0    
2019/09/29  20:24:00  BASE  1.13484  22   1.24068  9    -4.8  100   -4.8  229   0     985.6    NA       0.0000   9999     0     0     0    
2019/09/29  20:25:00  BASE  0.91728  11   1.24068  9    -4.9  100   -4.9  227   0     985.6    NA       0.0000   9999     0     0     0    
2019/09/29  20:26:00  BASE  0.4116   35   1.24068  9    -5.0  100   -5.0  226   0     985.6    NA       0.0000   9999     0     0     0    
2019/09/29  20:27:00  BASE  0.08232  64   1.24068  9    -5.1  100   -5.1  224   0     985.6    NA       0.0000   9999     0     0     0    
2019/09/29  20:28:00  BASE  0        67   1.24068  9    -5.1  100   -5.1  222   0     985.6    NA       0.0000   9999     0     0     0    
2019/09/29  20:29:00  BASE  0.05292  63   1.24068  9    -5.2  100   -5.2  220   0     985.6    NA       0.0000   9999     0     0     0    
2019/09/29  20:30:00  BASE  0.07644  64   1.24068  9    -5.2  100   -5.2  217   0     985.6    NA       0.0000   9999     0     0     0    
2019/09/29  20:31:00  BASE  0.294    61   1.24068  9    -5.1  100   -5.1  215   0     985.6    NA       0.0000   9999     0     0     0    
2019/09/29  20:32:00  BASE  0.2646   53   1.24068  9    -5.1  100   -5.1  213   0     985.6    NA       0.0000   9999     0     0     0    
2019/09/29  20:33:00  BASE  0        40   1.24068  9    -5.0  100   -5.0  212   0     985.6    NA       0.0000   9999     0     0     0    
2019/09/29  20:34:01  BASE  0.19992  8    1.029    11   -5.0  100   -5.0  211   0     985.7    NA       0.0000   9999     0     0     0    
2019/09/29  20:35:00  BASE  0.62916  338  0.90552  329  -5.0  100   -5.0  209   0     985.7    NA       0.0000   9999     0     0     0    
2019/09/29  20:36:00  BASE  0.79968  327  0.90552  329  -5.0  100   -5.0  207   0     985.7    NA       0.0000   9999     0     0     0    
2019/09/29  20:37:00  BASE  0.735    327  0.90552  329  -5.0  100   -5.0  201   0     985.6    NA       0.0000   9999     0     0     0    
2019/09/29  20:38:00  BASE  0.735    338  0.90552  329  -5.0  100   -5.0  198   0     985.6    NA       0.0000   9999     0     0     0    
2019/09/29  20:39:00  BASE  0.72324  353  0.90552  329  -5.1  100   -5.1  201   0     985.6    NA       0.0000   9999     0     0     0    
2019/09/29  20:40:00  BASE  0.74676  3    0.90552  329  -5.2  100   -5.2  199   0     985.6    NA       0.0000   9999     0     0     0    
2019/09/29  20:41:00  BASE  0.78792  8    0.90552  329  -5.2  100   -5.2  180   0     985.6    NA       0.0000   9999     0     0     0    
2019/09/29  20:42:00  BASE  0.77616  10   0.90552  329  -5.3  100   -5.3  159   0     985.7    NA       0.0000   9999     0     0     0    
2019/09/29  20:43:00  BASE  0.74676  7    0.90552  329  -5.3  100   -5.3  175   0     985.7    NA       0.0000   9999     0     0     0    
2019/09/29  20:44:00  BASE  0.5586   3    0.90552  329  -5.3  100   -5.3  193   0     985.7    NA       0.0000   9999     0     0     0    
2019/09/29  20:45:00  BASE  0.55272  359  0.84672  10   -5.3  100   -5.3  190   0     985.7    NA       0.0000   9999     0     0     0    
2019/09/29  20:46:00  BASE  0.61152  350  0.84672  10   -5.3  100   -5.3  188   0     985.6    NA       0.0000   9999     0     0     0    
2019/09/29  20:47:00  BASE  0.37044  333  0.84672  353  -5.3  100   -5.3  186   0     985.6    NA       0.0000   9999     0     0     0    
2019/09/29  20:48:00  BASE  0.58212  334  0.9702   345  -5.3  100   -5.3  184   0     985.6    NA       0.0000   9999     0     0     0    
2019/09/29  20:49:00  BASE  0.91728  344  0.9702   338  -5.3  100   -5.3  183   0     985.6    NA       0.0000   9999     0     0     0    
2019/09/29  20:50:00  BASE  0.84672  351  0.9702   338  -5.3  100   -5.3  182   0     985.6    NA       0.0000   9999     0     0     0    
2019/09/29  20:51:00  BASE  0.78204  7    0.9702   20   -5.4  100   -5.4  180   0     985.6    NA       0.0000   9999     0     0     0    
2019/09/29  20:52:00  BASE  0.91728  15   1.1172   12   -5.4  100   -5.4  178   0     985.6    NA       0.0000   9999     0     0     0    
2019/09/29  20:53:00  BASE  1.09956  15   1.18188  12   -5.4  100   -5.4  176   0     985.7    NA       0.0000   9999     0     0     0    
2019/09/29  20:54:00  BASE  1.18776  19   1.29948  32   -5.4  100   -5.4  173   0     985.7    NA       0.0000   9999     0     0     0    
2019/09/29  20:55:00  BASE  1.22304  25   1.29948  27   -5.5  100   -5.5  168   0     985.8    NA       0.0000   9999     0     0     0    
2019/09/29  20:56:00  BASE  1.19952  29   1.29948  27   -5.5  100   -5.5  167   0     985.8    NA       0.0000   9999     0     0     0    
2019/09/29  20:57:00  BASE  1.0584   37   1.29948  27   -5.5  100   -5.5  168   0     985.8    NA       0.0000   9999     0     0     0    
2019/09/29  20:58:00  BASE  0.9408   41   1.29948  27   -5.5  100   -5.5  169   0     985.8    NA       0.0000   9999     0     0     0    
2019/09/29  20:59:00  BASE  0.95844  34   1.29948  27   -5.5  100   -5.5  168   0     985.8    NA       0.0000   9999     0     0     0    
2019/09/29  21:00:00  BASE  1.04664  23   1.29948  27   -5.5  100   -5.5  147   0     985.8    NA       0.0000   9999     0     0     0    
2019/09/29  21:01:00  BASE  1.01136  19   1.29948  27   -5.5  100   -5.5  145   0     985.8    NA       0.0000   9999     0     0     0    
2019/09/29  21:02:00  BASE  0.82908  16   1.29948  27   -5.5  100   -5.5  140   0     985.8    NA       0.0000   9999     0     0     0    
2019/09/29  21:03:00  BASE  0.62916  355  1.29948  27   -5.5  100   -5.5  144   0     985.9    NA       0.0000   9999     850   0     0    
2019/09/29  21:04:00  BASE  0.30576  328  1.29948  27   -5.5  100   -5.5  171   0     985.9    NA       0.0000   9999     0     0     0    
2019/09/29  21:05:00  BASE  0.0588   328  1.27008  27   -5.4  100   -5.4  147   0     985.9    NA       0.0000   9999     0     0     0    
2019/09/29  21:06:00  BASE  0        356  1.18188  19   -5.4  100   -5.4  137   0     985.9    NA       0.0000   9999     0     0     0    
2019/09/29  21:07:00  BASE  0        45   1.18188  19   -5.3  100   -5.3  57    0     985.9    NA       0.0000   9999     1150  0     0    
2019/09/29  21:08:00  BASE  0.27048  53   1.18188  19   -5.2  100   -5.2  48    0     985.9    NA       0.0000   9999     0     0     0    
2019/09/29  21:09:00  BASE  0.36456  32   1.18188  19   -5.2  100   -5.2  49    0     985.8    NA       0.0000   9999     0     0     0    
2019/09/29  21:10:00  BASE  0.09408  12   1.029    36   -5.1  100   -5.1  48    0     985.9    NA       0.0000   9999     0     0     0    
2019/09/29  21:11:00  BASE  0.3234   349  1.029    36   -5.1  100   -5.1  51    0     985.9    NA       0.0000   9999     1080  0     0    
2019/09/29  21:12:00  BASE  0.7056   350  1.029    36   -5.1  100   -5.1  59    0     985.9    NA       0.0000   9999     890   0     0    
2019/09/29  21:13:00  BASE  0.71736  359  1.18188  22   -5.1  100   -5.1  88    0     986.0    NA       0.0000   9999     750   0     0    
2019/09/29  21:14:00  BASE  0.81732  4    1.18188  22   -5.1  100   -5.1  89    0     986.0    NA       0.0000   9999     750   0     0    
2019/09/29  21:15:00  BASE  0.84672  20   1.18188  22   -5.1  100   -5.1  98    0     986.0    NA       0.0000   9999     920   0     0    
2019/09/29  21:16:00  BASE  0.84084  25   1.18188  22   -5.2  100   -5.2  98    0     986.0    NA       0.0000   9999     950   0     0    
2019/09/29  21:17:00  BASE  0.99372  28   1.24068  32   -5.2  100   -5.2  98    0     986.0    NA       0.0000   9999     1020  0     0    
2019/09/29  21:18:00  BASE  0.98784  30   1.27008  26   -5.2  100   -5.2  85    0     986.0    NA       0.0000   9999     980   0     0    
2019/09/29  21:19:00  BASE  0.92316  32   1.29948  20   -5.2  100   -5.3  65    0     986.0    NA       0.0000   9999     1020  0     0    
2019/09/29  21:20:00  BASE  0.85848  41   1.29948  20   -5.3  100   -5.3  76    0     986.0    NA       0.0000   9999     1050  0     0    
2019/09/29  21:21:00  BASE  1.15836  38   1.78752  17   -5.3  100   -5.3  72    0     986.0    NA       0.0000   9999     1080  0     0    
2019/09/29  21:22:00  BASE  1.6464   27   1.90512  25   -5.3  100   -5.3  80    0     986.0    NA       0.0000   9999     1120  0     0    
2019/09/29  21:23:00  BASE  1.68168  27   1.90512  25   -5.3  100   -5.3  84    0     986.0    NA       0.0000   9999     1050  0     0    
2019/09/29  21:24:00  BASE  1.42884  32   1.90512  25   -5.3  100   -5.3  107   0     986.0    NA       0.0000   9999     1150  0     0    
2019/09/29  21:25:00  BASE  1.49352  44   2.0286   56   -5.3  100   -5.3  70    0     986.0    NA       0.0000   9999     1180  0     0    
2019/09/29  21:26:00  BASE  1.76988  55   2.058    60   -5.3  100   -5.3  76    0     986.0    NA       0.0000   9999     1280  0     0    
2019/09/29  21:27:00  BASE  1.71696  53   2.058    60   -5.3  100   -5.3  81    0     986.0    NA       0.0000   9999     1280  0     0    
2019/09/29  21:28:00  BASE  1.41708  50   2.058    60   -5.3  100   -5.3  69    0     986.1    NA       0.0000   9999     1350  0     0    
2019/09/29  21:29:00  BASE  1.33476  47   2.058    60   -5.3  100   -5.3  127   0     986.1    NA       0.0000   9999     1310  0     0    
2019/09/29  21:30:00  BASE  1.52292  39   2.058    60   -5.3  100   -5.3  63    0     986.0    NA       0.0000   9999     1310  0     0    
2019/09/29  21:31:00  BASE  1.4112   30   2.1462   39   -5.2  100   -5.2  73    0     986.0    NA       0.0000   9999     1440  0     0    
2019/09/29  21:32:00  BASE  1.31712  43   2.1462   39   -5.2  100   -5.2  63    0     986.0    NA       0.0000   9999     1410  0     0    
2019/09/29  21:33:00  BASE  1.48764  55   2.1462   39   -5.2  100   -5.2  63    0     986.1    NA       0.0000   9999     1410  0     0    
2019/09/29  21:34:00  BASE  1.45236  54   2.1462   39   -5.2  100   -5.2  75    0     986.1    NA       0.0000   9999     1410  0     0    
2019/09/29  21:35:00  BASE  1.52292  56   2.1462   39   -5.2  100   -5.2  107   0     986.1    NA       0.0000   9999     1350  0     0    
2019/09/29  21:36:00  BASE  1.69344  49   2.1462   39   -5.2  100   -5.2  87    0     986.1    NA       0.0000   9999     1380  0     0    
2019/09/29  21:37:00  BASE  1.63464  42   2.1462   39   -5.2  100   -5.2  97    0     986.2    NA       0.0000   9999     1380  0     0    
2019/09/29  21:38:00  BASE  1.4994   45   2.1462   39   -5.2  100   -5.2  66    0     986.2    NA       0.0000   9999     1410  0     0    
2019/09/29  21:39:00  BASE  1.47     54   2.1462   39   -5.2  100   -5.2  97    0     986.2    NA       0.0000   9999     1440  0     0    
2019/09/29  21:40:00  BASE  1.54056  59   2.1462   39   -5.1  100   -5.1  91    0     986.2    NA       0.0000   9999     1410  0     0    
2019/09/29  21:41:00  BASE  1.5876   57   1.90512  26   -5.1  100   -5.1  51    0     986.2    NA       0.0000   9999     1440  0     0    
2019/09/29  21:42:00  BASE  1.52292  48   1.90512  26   -5.1  100   -5.1  36    0     986.2    NA       0.0000   9999     0     0     0    
2019/09/29  21:43:00  BASE  1.3818   47   1.87572  45   -5.1  100   -5.1  37    0     986.2    NA       0.0000   9999     0     0     0    
2019/09/29  21:44:00  BASE  1.34064  52   1.87572  45   -5.1  100   -5.1  50    0     986.2    NA       0.0000   9999     0     0     0    
2019/09/29  21:45:00  BASE  1.37592  53   1.87572  45   -5.1  100   -5.1  44    0     986.2    NA       0.0000   9999     0     0     0    
2019/09/29  21:46:00  BASE  1.24656  53   1.87572  45   -5.1  100   -5.1  50    0     986.2    NA       0.0000   9999     0     0     0    
2019/09/29  21:47:00  BASE  0.82908  51   1.81692  60   -5.1  100   -5.1  65    0     986.2    NA       0.0000   9999     1380  0     0    
2019/09/29  21:48:00  BASE  0.27636  49   1.81692  60   -5.0  100   -5.0  60    0     986.2    NA       0.0000   9999     1310  0     0    
2019/09/29  21:49:00  BASE  0.44688  54   1.81692  60   -5.1  100   -5.1  46    0     986.2    NA       0.0000   9999     0     0     0    
2019/09/29  21:50:00  BASE  1.04076  53   1.69344  47   -5.1  100   -5.1  45    0     986.1    NA       0.0000   9999     0     0     0    
2019/09/29  21:51:00  BASE  0.96432  42   1.57584  46   -5.1  100   -5.1  52    0     986.1    NA       0.0000   9999     0     0     0    
2019/09/29  21:52:00  BASE  0.7056   28   1.54056  49   -5.1  100   -5.1  51    0     986.0    NA       0.0000   9999     0     0     0    
2019/09/29  21:53:00  BASE  0.81144  24   1.54056  49   -5.1  100   -5.1  50    0     986.0    NA       0.0000   9999     0     0     0    
2019/09/29  21:54:00  BASE  0.90552  26   1.54056  49   -5.0  100   -5.0  49    0     986.1    NA       0.0000   9999     0     0     0    
2019/09/29  21:55:00  BASE  0.96432  27   1.35828  46   -5.0  100   -5.0  48    0     986.2    NA       0.0000   9999     0     0     0    
2019/09/29  21:56:00  BASE  1.02312  26   1.35828  46   -5.0  100   -5.0  46    0     986.1    NA       0.0000   9999     0     0     0    
2019/09/29  21:57:00  BASE  1.22304  19   1.63464  20   -5.0  100   -5.0  45    0     986.0    NA       0.0000   9999     0     0     0    
2019/09/29  21:58:00  BASE  1.50528  19   1.63464  31   -5.0  100   -5.0  43    0     986.0    NA       0.0000   9999     0     0     0    
2019/09/29  21:59:00  BASE  1.62288  23   1.90512  32   -5.0  100   -5.0  41    0     986.0    NA       0.0000   9999     0     0     0    
2019/09/29  22:00:00  BASE  1.66992  31   1.90512  32   -5.0  100   -5.0  40    0     986.0    NA       0.0000   9999     0     0     0    
2019/09/29  22:01:00  BASE  1.61112  35   1.90512  32   -5.1  100   -5.1  38    0     986.0    NA       0.0000   9999     0     0     0    
2019/09/29  22:02:00  BASE  1.47588  28   1.90512  32   -5.1  100   -5.1  37    0     986.0    NA       0.0000   9999     0     0     0    
2019/09/29  22:03:00  BASE  1.43472  22   1.90512  32   -5.1  100   -5.1  35    0     986.0    NA       0.0000   9999     0     0     0    
2019/09/29  22:04:00  BASE  1.45824  31   1.90512  32   -5.1  100   -5.1  34    0     986.0    NA       0.0000   9999     0     0     0    
2019/09/29  22:05:00  BASE  1.51116  45   1.90512  32   -5.1  100   -5.1  32    0     986.0    NA       0.0000   9999     0     0     0    
2019/09/29  22:06:00  BASE  1.62288  48   1.96392  43   -5.1  100   -5.1  30    0     986.0    NA       0.0000   9999     0     0     0    
2019/09/29  22:07:00  BASE  1.72872  50   1.96392  43   -5.1  100   -5.1  29    0     986.0    NA       0.0000   9999     0     0     0    
2019/09/29  22:08:00  BASE  1.84632  49   1.96392  50   -5.2  100   -5.2  25    0     986.0    NA       0.0000   9999     0     0     0    
2019/09/29  22:09:00  BASE  1.87572  48   2.1462   47   -5.2  100   -5.2  26    0     986.0    NA       0.0000   9999     0     0     0    
2019/09/29  22:10:00  BASE  1.6464   53   2.1462   47   -5.2  100   -5.2  25    0     986.0    NA       0.0000   9999     0     0     0    
2019/09/29  22:11:00  BASE  1.48764  51   2.1462   47   -5.2  100   -5.2  24    0     986.0    NA       0.0000   9999     0     0     0    
2019/09/29  22:12:00  BASE  1.46412  48   2.1462   47   -5.2  100   -5.2  23    0     986.0    NA       0.0000   9999     0     0     0    
2019/09/29  22:13:00  BASE  1.323    43   2.1462   47   -5.2  100   -5.2  21    0     986.0    NA       0.0000   9999     0     0     0    
2019/09/29  22:14:00  BASE  1.17012  41   2.1462   47   -5.2  100   -5.2  20    0     986.1    NA       0.0000   9999     0     0     0    
2019/09/29  22:15:00  BASE  1.05252  47   2.1462   47   -5.3  100   -5.3  19    0     986.2    NA       0.0000   9999     0     0     0    
2019/09/29  22:16:00  BASE  1.01724  51   2.1462   47   -5.3  100   -5.3  18    0     986.2    NA       0.0000   9999     0     0     0    
2019/09/29  22:17:00  BASE  1.07604  50   2.1462   47   -5.3  100   -5.3  17    0     986.2    NA       0.0000   9999     0     0     0    
2019/09/29  22:18:00  BASE  1.24068  51   2.1462   47   -5.3  100   -5.3  15    0     986.2    NA       0.0000   9999     0     0     0    
2019/09/29  22:19:00  BASE  1.3524   52   1.63464  51   -5.4  100   -5.4  14    0     986.2    NA       0.0000   9999     0     0     0    
2019/09/29  22:20:00  BASE  1.16424  50   1.63464  51   -5.4  100   -5.4  14    0     986.3    NA       0.0000   9999     0     0     0    
2019/09/29  22:21:00  BASE  1.02312  44   1.57584  53   -5.4  100   -5.4  13    0     986.3    NA       0.0000   9999     0     0     0    
2019/09/29  22:22:00  BASE  1.08192  40   1.57584  53   -5.4  100   -5.4  13    0     986.3    NA       0.0000   9999     0     0     0    
2019/09/29  22:23:00  BASE  1.00548  41   1.57584  53   -5.4  100   -5.4  12    0     986.3    NA       0.0000   9999     0     0     0    
2019/09/29  22:24:00  BASE  0.83496  42   1.57584  53   -5.3  100   -5.3  11    0     986.3    NA       0.0000   9999     0     0     0    
2019/09/29  22:25:00  BASE  0.6174   42   1.57584  53   -5.3  100   -5.3  10    0     986.3    NA       0.0000   9999     0     0     0    
2019/09/29  22:26:00  BASE  0.24108  42   1.57584  53   -5.3  100   -5.3  9     0     986.2    NA       0.0000   9999     0     0     0    
2019/09/29  22:27:00  BASE  0        41   1.57584  53   -5.4  100   -5.4  9     0     986.2    NA       0.0000   9999     0     0     0    
2019/09/29  22:28:00  BASE  0        37   1.51116  56   -5.4  100   -5.4  8     0     986.2    NA       0.0000   9999     0     0     0    
2019/09/29  22:29:00  BASE  0        25   1.1466   39   -5.4  100   -5.4  8     0     986.2    NA       0.0000   9999     0     0     0    
2019/09/29  22:30:00  BASE  0.35868  15   1.1466   39   -5.5  100   -5.5  7     0     986.3    NA       0.0000   9999     0     0     0    
2019/09/29  22:31:00  BASE  0.89964  20   1.21128  33   -5.6  100   -5.6  7     0     986.3    NA       0.0000   9999     0     0     0    
2019/09/29  22:32:00  BASE  1.2642   30   1.63464  41   -5.7  100   -5.7  6     0     986.3    NA       0.0000   9999     0     0     0    
2019/09/29  22:33:00  BASE  1.45824  37   1.63464  41   -5.8  100   -5.8  6     0     986.3    NA       0.0000   9999     0     0     0    
2019/09/29  22:34:00  BASE  1.41708  39   1.63464  41   -5.9  100   -5.9  6     0     986.3    NA       0.0000   9999     0     0     0    
2019/09/29  22:35:00  BASE  1.323    42   1.63464  41   -6.0  100   -6.0  5     0     986.3    NA       0.0000   9999     0     0     0    
2019/09/29  22:36:00  BASE  1.15248  42   1.63464  41   -6.1  100   -6.1  5     0     986.3    NA       0.0000   9999     0     0     0    
2019/09/29  22:37:00  BASE  1.00548  40   1.63464  41   -6.2  100   -6.2  5     0     986.4    NA       0.0000   9999     0     0     0    
2019/09/29  22:38:00  BASE  0.64092  28   1.63464  41   -6.2  100   -6.2  4     0     986.4    NA       0.0000   9999     0     0     0    
2019/09/29  22:39:00  BASE  0.22344  3    1.63464  41   -6.1  100   -6.1  4     0     986.4    NA       0.0000   9999     0     0     0    
2019/09/29  22:40:00  BASE  0.29988  347  1.63464  41   -6.0  100   -6.0  4     0     986.4    NA       0.0000   9999     0     0     0    
2019/09/29  22:41:00  BASE  0.81732  354  1.63464  41   -5.9  100   -5.9  4     0     986.4    NA       0.0000   9999     0     0     0    
2019/09/29  22:42:00  BASE  1.28772  8    1.54056  42   -5.9  100   -5.9  3     0     986.4    NA       0.0000   9999     0     0     0    
2019/09/29  22:43:00  BASE  1.37004  8    1.42296  11   -5.9  100   -5.9  3     0     986.4    NA       0.0000   9999     0     0     0    
2019/09/29  22:44:00  BASE  1.36416  7    1.45236  13   -6.0  100   -6.0  3     0     986.4    NA       0.0000   9999     0     0     0    
2019/09/29  22:45:00  BASE  1.2348   14   1.45236  13   -6.2  100   -6.2  3     0     986.4    NA       0.0000   9999     0     0     0    
2019/09/29  22:46:00  BASE  1.18776  29   1.45236  13   -6.3  100   -6.3  3     0     986.4    NA       0.0000   9999     1180  0     0    
2019/09/29  22:47:00  BASE  1.3524   35   1.60524  27   -6.4  100   -6.4  2     0     986.4    NA       0.0000   9999     1250  0     0    
2019/09/29  22:48:00  BASE  1.48764  35   1.63464  43   -6.5  100   -6.5  2     0     986.5    NA       0.0000   9999     1280  0     0    
2019/09/29  22:49:00  BASE  1.617    42   1.84632  45   -6.5  100   -6.5  2     0     986.5    NA       0.0000   9999     1310  0     0    
2019/09/29  22:50:00  BASE  1.7052   48   1.84632  45   -6.5  100   -6.5  2     0     986.5    NA       0.0000   9999     0     0     0    
2019/09/29  22:51:00  BASE  1.65816  50   1.84632  45   -6.5  100   -6.5  2     0     986.5    NA       0.0000   9999     0     0     0    
2019/09/29  22:52:00  BASE  1.617    48   1.84632  45   -6.5  100   -6.5  1     0     986.5    NA       0.0000   9999     0     0     0    
2019/09/29  22:53:00  BASE  1.617    45   1.84632  45   -6.5  100   -6.5  1     0     986.5    NA       0.0000   9999     0     0     0    
2019/09/29  22:54:00  BASE  1.61112  44   1.84632  45   -6.4  100   -6.4  1     0     986.5    NA       0.0000   9999     0     0     0    
2019/09/29  22:55:00  BASE  1.63464  47   1.84632  45   -6.4  100   -6.4  1     0     986.5    NA       0.0000   9999     0     0     0    
2019/09/29  22:56:00  BASE  1.7934   50   2.0286   50   -6.4  100   -6.4  1     0     986.5    NA       0.0000   9999     1410  0     0    
2019/09/29  22:57:00  BASE  1.95216  48   2.0286   42   -6.4  100   -6.4  1     0     986.5    NA       0.0000   9999     1280  0     0    
2019/09/29  22:58:00  BASE  1.92276  43   2.0286   38   -6.4  100   -6.4  1     0     986.5    NA       0.0000   9999     1310  0     0    
2019/09/29  22:59:00  BASE  1.9992   41   2.38728  42   -6.4  100   -6.4  1     0     986.5    NA       0.0000   9999     1310  0     0    
2019/09/29  23:00:00  BASE  2.24028  43   2.42256  44   -6.4  100   -6.4  1     0     986.5    NA       0.0000   9999     0     0     0    
2019/09/29  23:01:00  BASE  2.31084  44   2.42256  44   -6.4  100   -6.4  1     0     986.5    NA       0.0000   9999     0     0     0    
2019/09/29  23:02:00  BASE  2.14032  46   2.42256  44   -6.4  100   -6.4  1     0     986.4    NA       0.0000   9999     1280  0     0    
2019/09/29  23:03:00  BASE  1.92276  47   2.42256  44   -6.3  100   -6.3  0     0     986.5    NA       0.0000   9999     1210  0     0    
2019/09/29  23:04:00  BASE  1.7346   48   2.42256  44   -6.3  100   -6.3  0     0     986.5    NA       0.0000   9999     1180  0     0    
2019/09/29  23:05:00  BASE  1.617    50   2.42256  44   -6.2  100   -6.2  0     0     986.5    NA       0.0000   9999     1280  0     0    
2019/09/29  23:06:00  BASE  1.48764  50   2.42256  44   -6.2  100   -6.2  0     0     986.5    NA       0.0000   9999     1280  0     0    
2019/09/29  23:07:00  BASE  1.38768  49   2.42256  44   -6.1  100   -6.1  0     0     986.5    NA       0.0000   9999     1210  0     0    
2019/09/29  23:08:00  BASE  1.42296  45   2.42256  44   -6.1  100   -6.1  0     0     986.5    NA       0.0000   9999     1180  0     0    
2019/09/29  23:09:00  BASE  1.48764  39   2.42256  44   -6.1  100   -6.1  0     0     986.6    NA       0.0000   9999     1210  0     0    
2019/09/29  23:10:00  BASE  1.54056  34   2.35788  44   -6.0  100   -6.0  0     0     986.6    NA       0.0000   9999     1280  0     0    
2019/09/29  23:11:00  BASE  1.54056  29   2.1462   46   -6.0  100   -6.0  0     0     986.6    NA       0.0000   9999     1250  0     0    
2019/09/29  23:12:00  BASE  1.51704  26   1.90512  45   -6.0  100   -6.0  0     0     986.6    NA       0.0000   9999     1180  0     0    
2019/09/29  23:13:00  BASE  1.48764  33   1.75224  49   -6.0  100   -6.0  0     0     986.6    NA       0.0000   9999     1150  0     0    
2019/09/29  23:14:00  BASE  1.45236  39   1.69344  50   -6.0  100   -6.0  0     0     986.6    NA       0.0000   9999     1180  0     0    
2019/09/29  23:15:00  BASE  1.39944  39   1.66404  24   -6.0  100   -6.0  0     0     986.6    NA       0.0000   9999     1180  0     0    
2019/09/29  23:16:00  BASE  1.21716  35   1.66404  24   -6.0  100   -6.0  0     0     986.6    NA       0.0000   9999     1210  0     0    
2019/09/29  23:17:00  BASE  0.9996   30   1.66404  24   -6.0  100   -6.0  0     0     986.6    NA       0.0000   9999     1310  0     0    
2019/09/29  23:18:00  BASE  0.98196  35   1.66404  24   -6.0  100   -6.0  0     0     986.6    NA       0.0000   9999     1250  0     0    
2019/09/29  23:19:00  BASE  1.1172   38   1.66404  24   -6.0  100   -6.0  0     0     986.6    NA       0.0000   9999     1250  0     0    
2019/09/29  23:20:00  BASE  1.28772  35   1.66404  24   -6.0  100   -6.0  0     0     986.6    NA       0.0000   9999     1280  0     0    
2019/09/29  23:21:00  BASE  1.33476  39   1.63464  25   -6.0  100   -6.0  0     0     986.6    NA       0.0000   9999     1280  0     0    
2019/09/29  23:22:00  BASE  1.25244  51   1.54056  44   -6.0  100   -6.0  0     0     986.6    NA       0.0000   9999     1150  0     0    
2019/09/29  23:23:00  BASE  1.176    53   1.51116  38   -6.0  100   -6.0  0     0     986.6    NA       0.0000   9999     1280  0     0    
2019/09/29  23:24:00  BASE  1.07016  37   1.48176  38   -5.9  100   -5.9  0     0     986.6    NA       0.0000   9999     1180  0     0    
2019/09/29  23:25:00  BASE  0.92904  20   1.42296  34   -5.9  100   -5.9  0     0     986.6    NA       0.0000   9999     1120  0     0    
2019/09/29  23:26:00  BASE  0.9408   17   1.42296  34   -5.8  100   -5.8  0     0     986.6    NA       0.0000   9999     1180  0     0    
2019/09/29  23:27:00  BASE  1.07604  17   1.42296  34   -5.8  100   -5.8  0     0     986.6    NA       0.0000   9999     1120  0     0    
2019/09/29  23:28:00  BASE  1.029    13   1.42296  34   -5.7  100   -5.7  0     0     986.6    NA       0.0000   9999     1120  0     0    
2019/09/29  23:29:00  BASE  0.9114   7    1.42296  34   -5.7  100   -5.7  0     0     986.6    NA       0.0000   9999     1080  0     0    
2019/09/29  23:30:00  BASE  0.882    360  1.32888  35   -5.7  100   -5.7  0     0     986.6    NA       0.0000   9999     1050  0     0    
2019/09/29  23:31:00  BASE  0.88788  1    1.29948  59   -5.7  100   -5.7  0     0     986.6    NA       0.0000   9999     1050  0     0    
2019/09/29  23:32:00  BASE  0.95844  7    1.29948  10   -5.7  100   -5.7  0     0     986.6    NA       0.0000   9999     1020  0     0    
2019/09/29  23:33:00  BASE  1.16424  8    1.45236  2    -5.7  100   -5.7  0     0     986.6    NA       0.0000   9999     1080  0     0    
2019/09/29  23:34:00  BASE  1.37004  3    1.63464  360  -5.7  100   -5.7  0     0     986.6    NA       0.0000   9999     1120  0     0    
2019/09/29  23:35:00  BASE  1.43472  3    1.63464  360  -5.7  100   -5.7  0     0     986.6    NA       0.0000   9999     1210  0     0    
2019/09/29  23:36:00  BASE  1.3524   9    1.63464  360  -5.7  100   -5.7  0     0     986.6    NA       0.0000   9999     1210  0     0    
2019/09/29  23:37:00  BASE  1.24068  10   1.63464  360  -5.7  100   -5.7  0     0     986.6    NA       0.0000   9999     1150  0     0    
2019/09/29  23:38:00  BASE  1.0584   11   1.63464  360  -5.7  100   -5.7  0     0     986.6    NA       0.0000   9999     1180  0     0    
2019/09/29  23:39:00  BASE  0.79968  14   1.63464  360  -5.7  100   -5.7  0     0     986.6    NA       0.0000   9999     1180  0     0    
2019/09/29  23:40:00  BASE  0.68208  16   1.63464  360  -5.7  100   -5.7  0     0     986.6    NA       0.0000   9999     1210  0     0    
2019/09/29  23:41:00  BASE  0.74088  21   1.63464  360  -5.7  100   -5.7  0     0     986.6    NA       0.0000   9999     1350  0     0    
2019/09/29  23:42:00  BASE  1.029    22   1.63464  360  -5.7  100   -5.7  0     0     986.6    NA       0.0000   9999     0     0     0    
2019/09/29  23:43:00  BASE  1.176    21   1.63464  360  -5.7  100   -5.7  0     0     986.6    NA       0.0000   9999     0     0     0    
2019/09/29  23:44:00  BASE  1.10544  19   1.57584  23   -5.7  100   -5.7  0     0     986.6    NA       0.0000   9999     0     0     0    
2019/09/29  23:45:00  BASE  1.10544  19   1.42296  8    -5.7  100   -5.7  0     0     986.6    NA       0.0000   9999     0     0     0    
2019/09/29  23:46:00  BASE  1.15836  17   1.35828  6    -5.7  100   -5.7  0     0     986.6    NA       0.0000   9999     0     0     0    
2019/09/29  23:47:00  BASE  1.176    14   1.32888  32   -5.7  100   -5.7  0     0     986.6    NA       0.0000   9999     0     0     0    
2019/09/29  23:48:00  BASE  1.13484  9    1.32888  32   -5.7  100   -5.7  0     0     986.6    NA       0.0000   9999     0     0     0    
2019/09/29  23:49:01  BASE  1.14072  3    1.32888  32   -5.7  100   -5.7  0     0     986.6    NA       0.0000   9999     0     0     0    
2019/09/29  23:50:00  BASE  1.1172   1    1.32888  32   -5.7  100   -5.7  0     0     986.6    NA       0.0000   9999     0     0     0    
2019/09/29  23:51:00  BASE  1.04076  4    1.29948  22   -5.7  100   -5.7  0     0     986.6    NA       0.0000   9999     0     0     0    
2019/09/29  23:52:00  BASE  0.90552  8    1.29948  22   -5.7  100   -5.7  0     0     986.6    NA       0.0000   9999     0     0     0    
2019/09/29  23:53:00  BASE  0.72912  7    1.29948  22   -5.7  100   -5.7  0     0     986.7    NA       0.0000   9999     0     0     0    
2019/09/29  23:54:00  BASE  0.65268  3    1.29948  22   -5.7  100   -5.7  0     0     986.7    NA       0.0000   9999     0     0     0    
2019/09/29  23:55:00  BASE  0.81144  1    1.29948  22   -5.7  100   -5.7  0     0     986.7    NA       0.0000   9999     0     0     0    
2019/09/29  23:56:00  BASE  1.05252  0    1.24068  360  -5.7  100   -5.7  0     0     986.7    NA       0.0000   9999     0     0     0    
2019/09/29  23:57:00  BASE  1.09368  1    1.24068  360  -5.7  100   -5.7  0     0     986.7    NA       0.0000   9999     0     0     0    
2019/09/29  23:58:00  BASE  1.01136  2    1.24068  360  -5.7  100   -5.7  0     0     986.8    NA       0.0000   9999     0     0     0    
2019/09/29  23:59:00  BASE  0.94668  8    1.21128  1    -5.7  100   -5.7  0     0     986.8    NA       0.0000   9999     0     0     0